ISO8601,Initialization_Date,Location,Lat_[degN],Lon_[degE],SurfacePressure_[hPa],Temperature_[K],Precipitation_[mm],Eastward_wind_[ms-1],Northward_wind_[ms-1],o3_orig_[ugm-3],o3_ML_[ugm-3],no2_orig_[ugm-3],no2_ML_[ugm-3],pm25_gcc_orig_[ugm-3],pm25_gcc_ML_[ugm-3],pm25_gocart_orig_[ugm-3],pm25_gocart_ML_[ugm-3]
2020-12-17T12:00:00Z,2020-12-17T12:00:00Z,Rio_PedraDeGuaratiba,-23.0044,-43.6290,1004.6811,300.0039,15.8250,-2.3840,-0.3212,59.7559,60.1678,25.6405,,39.8228,,17.5528,
2020-12-17T13:00:00Z,2020-12-17T12:00:00Z,Rio_PedraDeGuaratiba,-23.0044,-43.6290,1004.4956,300.5617,20.5636,-2.5412,-0.2026,64.6878,70.7746,23.7047,,40.7616,,20.2083,
2020-12-17T14:00:00Z,2020-12-17T12:00:00Z,Rio_PedraDeGuaratiba,-23.0044,-43.6290,1003.7755,300.9723,23.5438,-2.4840,-0.1917,72.5103,72.9593,21.6953,,41.3908,,22.7222,
2020-12-17T15:00:00Z,2020-12-17T12:00:00Z,Rio_PedraDeGuaratiba,-23.0044,-43.6290,1003.5536,301.6142,26.9115,-2.1187,-0.0191,89.3348,72.6156,17.8405,,40.6346,,23.6823,
2020-12-17T16:00:00Z,2020-12-17T12:00:00Z,Rio_PedraDeGuaratiba,-23.0044,-43.6290,1002.6204,301.9938,40.5908,-1.4678,0.7648,106.2088,71.2698,15.1554,,41.3265,,24.3577,
2020-12-17T17:00:00Z,2020-12-17T12:00:00Z,Rio_PedraDeGuaratiba,-23.0044,-43.6290,1002.2635,301.2672,115.6330,-0.9261,1.8832,112.4640,61.6028,14.6241,,43.2638,,26.4804,
2020-12-17T18:00:00Z,2020-12-17T12:00:00Z,Rio_PedraDeGuaratiba,-23.0044,-43.6290,1001.0325,299.9680,1323.7000,-0.5635,2.4763,111.8031,51.2307,12.6678,,42.5133,,25.6058,
2020-12-17T19:00:00Z,2020-12-17T12:00:00Z,Rio_PedraDeGuaratiba,-23.0044,-43.6290,1001.0130,299.0062,1688.0035,-0.6224,1.5245,104.9606,39.9622,13.5034,,40.7014,,23.9165,
2020-12-17T20:00:00Z,2020-12-17T12:00:00Z,Rio_PedraDeGuaratiba,-23.0044,-43.6290,1000.6022,298.7630,823.9746,-1.3650,-0.6300,89.0218,45.7724,26.5592,,47.9527,,26.5076,
2020-12-17T21:00:00Z,2020-12-17T12:00:00Z,Rio_PedraDeGuaratiba,-23.0044,-43.6290,1000.9570,298.8414,57.4589,-1.1725,-1.5452,77.9997,39.7420,34.1391,,47.7737,,30.4669,
2020-12-17T22:00:00Z,2020-12-17T12:00:00Z,Rio_PedraDeGuaratiba,-23.0044,-43.6290,1000.2392,298.9165,13.9922,-0.9639,-1.4777,68.1415,36.1046,32.3819,,41.2783,,30.0015,
2020-12-17T23:00:00Z,2020-12-17T12:00:00Z,Rio_PedraDeGuaratiba,-23.0044,-43.6290,1000.9976,299.1039,22.4710,-0.4524,-0.5616,63.5396,49.6698,29.2068,,38.5917,,30.2348,
2020-12-18T00:00:00Z,2020-12-17T12:00:00Z,Rio_PedraDeGuaratiba,-23.0044,-43.6290,1001.7863,299.0251,26.7029,-0.7088,-0.3951,59.8914,50.2923,27.9968,,39.8431,,32.3948,
2020-12-18T01:00:00Z,2020-12-17T12:00:00Z,Rio_PedraDeGuaratiba,-23.0044,-43.6290,1002.0628,298.7289,65.9227,-1.5445,-0.0383,55.0640,36.2832,28.7344,,41.0300,,36.0728,
2020-12-18T02:00:00Z,2020-12-17T12:00:00Z,Rio_PedraDeGuaratiba,-23.0044,-43.6290,1002.0087,298.4498,334.2628,-1.7760,-0.1463,48.7382,29.9408,31.2465,,42.3431,,40.2583,
2020-12-18T03:00:00Z,2020-12-17T12:00:00Z,Rio_PedraDeGuaratiba,-23.0044,-43.6290,1001.7794,298.2611,1062.3932,-1.3692,-2.0396,41.8731,35.9812,34.9907,,40.9712,,40.7237,
2020-12-18T04:00:00Z,2020-12-17T12:00:00Z,Rio_PedraDeGuaratiba,-23.0044,-43.6290,1001.3594,298.0716,272.7509,-1.2208,-3.0928,38.7776,42.5632,38.7307,,31.6614,,32.1168,
2020-12-18T05:00:00Z,2020-12-17T12:00:00Z,Rio_PedraDeGuaratiba,-23.0044,-43.6290,1000.8623,297.8747,54.5979,-0.3270,-2.7483,48.4377,37.3858,30.6759,,25.9476,,24.9874,
2020-12-18T06:00:00Z,2020-12-17T12:00:00Z,Rio_PedraDeGuaratiba,-23.0044,-43.6290,1000.0400,297.7837,12.2041,0.0483,-2.5794,51.4596,39.0198,26.7127,,28.9801,,23.1525,
2020-12-18T07:00:00Z,2020-12-17T12:00:00Z,Rio_PedraDeGuaratiba,-23.0044,-43.6290,999.5974,297.6855,5.8040,0.2657,-2.3406,49.0842,44.0745,30.9810,,32.6069,,23.0607,
2020-12-18T08:00:00Z,2020-12-17T12:00:00Z,Rio_PedraDeGuaratiba,-23.0044,-43.6290,999.7712,297.6610,2.2575,0.6194,-1.3454,47.0088,62.9254,36.9920,,41.9844,,24.1636,
2020-12-18T09:00:00Z,2020-12-17T12:00:00Z,Rio_PedraDeGuaratiba,-23.0044,-43.6290,1000.4822,298.4121,3.6843,0.9777,-0.2024,58.6970,61.1295,26.6413,,39.9208,,23.8409,
2020-12-18T10:00:00Z,2020-12-17T12:00:00Z,Rio_PedraDeGuaratiba,-23.0044,-43.6290,1000.9888,299.7907,5.0142,1.0530,0.6731,75.7356,73.7654,12.7016,,27.2937,,20.8401,
2020-12-18T11:00:00Z,2020-12-17T12:00:00Z,Rio_PedraDeGuaratiba,-23.0044,-43.6290,1001.0175,299.8430,19.3119,0.9799,2.2387,80.8850,66.1508,8.6413,,26.6632,,25.5243,
2020-12-18T12:00:00Z,2020-12-17T12:00:00Z,Rio_PedraDeGuaratiba,-23.0044,-43.6290,1001.3416,299.5201,46.1936,0.9270,3.2107,86.7279,74.6591,5.2553,,23.2846,,32.3347,
2020-12-18T13:00:00Z,2020-12-17T12:00:00Z,Rio_PedraDeGuaratiba,-23.0044,-43.6290,1001.6188,299.2462,40.8292,0.7930,3.6447,88.8559,74.2465,3.1631,,18.0629,,32.0425,
2020-12-18T14:00:00Z,2020-12-17T12:00:00Z,Rio_PedraDeGuaratiba,-23.0044,-43.6290,1001.4709,299.3539,36.8953,0.7040,3.7563,86.5624,71.5314,2.7844,,15.2101,,26.5707,
2020-12-18T15:00:00Z,2020-12-17T12:00:00Z,Rio_PedraDeGuaratiba,-23.0044,-43.6290,1001.6840,299.4155,26.5539,0.6343,3.7907,81.5042,66.8992,2.8079,,13.7846,,21.6510,
2020-12-18T16:00:00Z,2020-12-17T12:00:00Z,Rio_PedraDeGuaratiba,-23.0044,-43.6290,1001.1929,299.4101,27.7460,0.4508,3.7618,75.7350,60.2607,2.9412,,12.4558,,19.0313,
2020-12-18T17:00:00Z,2020-12-17T12:00:00Z,Rio_PedraDeGuaratiba,-23.0044,-43.6290,1001.0126,299.0578,34.2727,0.5445,3.8074,68.4994,51.4449,3.4225,,10.9409,,17.0529,
2020-12-18T18:00:00Z,2020-12-17T12:00:00Z,Rio_PedraDeGuaratiba,-23.0044,-43.6290,1000.5273,298.6682,40.1139,0.3544,3.6417,61.1259,50.8106,4.1535,,9.3961,,15.6565,
2020-12-18T19:00:00Z,2020-12-17T12:00:00Z,Rio_PedraDeGuaratiba,-23.0044,-43.6290,999.1638,298.3708,380.0392,-0.3673,3.8114,54.5767,49.6244,5.4932,,8.3527,,16.5874,
2020-12-18T20:00:00Z,2020-12-17T12:00:00Z,Rio_PedraDeGuaratiba,-23.0044,-43.6290,998.6804,298.0167,984.1919,0.3204,4.2015,47.1830,42.3526,7.1091,,8.2323,,20.1084,
2020-12-18T21:00:00Z,2020-12-17T12:00:00Z,Rio_PedraDeGuaratiba,-23.0044,-43.6290,1000.8599,297.7959,629.4250,0.5413,2.6892,42.7470,39.6888,7.1569,,8.9072,,20.1956,
2020-12-18T22:00:00Z,2020-12-17T12:00:00Z,Rio_PedraDeGuaratiba,-23.0044,-43.6290,1001.1572,297.7545,264.6446,0.3218,1.8810,40.6189,35.4549,7.0653,,10.0952,,17.5476,
2020-12-18T23:00:00Z,2020-12-17T12:00:00Z,Rio_PedraDeGuaratiba,-23.0044,-43.6290,1001.8361,297.8168,32.5441,1.0384,1.2748,40.2988,35.9823,6.6556,,11.2029,,15.5109,
2020-12-19T00:00:00Z,2020-12-17T12:00:00Z,Rio_PedraDeGuaratiba,-23.0044,-43.6290,1002.2576,297.8642,6.7055,1.7338,1.0723,41.9489,28.0741,5.5128,,10.9808,,13.8526,
2020-12-19T01:00:00Z,2020-12-17T12:00:00Z,Rio_PedraDeGuaratiba,-23.0044,-43.6290,1002.0599,297.8134,0.2300,1.8229,0.9361,43.1915,27.1760,5.4247,,10.6501,,12.5576,
2020-12-19T02:00:00Z,2020-12-17T12:00:00Z,Rio_PedraDeGuaratiba,-23.0044,-43.6290,1001.3677,297.7755,0.0338,1.4669,-0.0112,43.1671,23.9725,6.3421,,11.3215,,12.2378,
2020-12-19T03:00:00Z,2020-12-17T12:00:00Z,Rio_PedraDeGuaratiba,-23.0044,-43.6290,1000.2381,297.6439,0.0295,0.6446,-0.5008,41.9518,33.0401,7.8190,,13.0566,,12.7907,
2020-12-19T04:00:00Z,2020-12-17T12:00:00Z,Rio_PedraDeGuaratiba,-23.0044,-43.6290,999.6376,297.4075,1.4063,-0.3474,-0.9878,32.8112,23.9693,16.0198,,17.4619,,14.6819,
2020-12-19T05:00:00Z,2020-12-17T12:00:00Z,Rio_PedraDeGuaratiba,-23.0044,-43.6290,999.1826,297.2433,3.2522,-0.5183,-1.4925,25.8392,21.5841,21.7316,,23.1149,,16.4706,
2020-12-19T06:00:00Z,2020-12-17T12:00:00Z,Rio_PedraDeGuaratiba,-23.0044,-43.6290,999.2996,297.2006,0.9313,-0.0010,-1.6954,22.7388,21.8868,23.1991,,27.2360,,17.7211,
2020-12-19T07:00:00Z,2020-12-17T12:00:00Z,Rio_PedraDeGuaratiba,-23.0044,-43.6290,999.3718,297.2237,0.0281,0.4304,-1.2261,22.5409,31.5326,22.6305,,28.1711,,17.7206,
2020-12-19T08:00:00Z,2020-12-17T12:00:00Z,Rio_PedraDeGuaratiba,-23.0044,-43.6290,999.4535,297.2783,0.0186,0.4273,-1.1403,24.2615,39.6976,21.4643,,29.4205,,17.7794,
2020-12-19T09:00:00Z,2020-12-17T12:00:00Z,Rio_PedraDeGuaratiba,-23.0044,-43.6290,999.8253,297.6777,0.0111,0.1703,-1.2209,30.1917,50.9560,19.1180,,29.4840,,17.8074,
2020-12-19T10:00:00Z,2020-12-17T12:00:00Z,Rio_PedraDeGuaratiba,-23.0044,-43.6290,1000.0492,298.8767,0.0080,-0.1647,-0.9392,43.4012,60.9995,15.7860,,25.8317,,17.0498,
2020-12-19T11:00:00Z,2020-12-17T12:00:00Z,Rio_PedraDeGuaratiba,-23.0044,-43.6290,1000.1226,300.0707,0.0036,-0.6597,-0.0300,53.8716,68.8983,13.2960,,25.4356,,17.2529,
2020-12-19T12:00:00Z,2020-12-17T12:00:00Z,Rio_PedraDeGuaratiba,-23.0044,-43.6290,1000.3115,300.9456,0.0023,-0.8592,1.0454,61.8789,65.8147,12.6845,,25.6990,,18.1548,
2020-12-19T13:00:00Z,2020-12-17T12:00:00Z,Rio_PedraDeGuaratiba,-23.0044,-43.6290,1000.2703,301.3672,0.0547,-1.1322,2.1318,68.5933,57.7628,11.9848,,26.7388,,20.3668,
2020-12-19T14:00:00Z,2020-12-17T12:00:00Z,Rio_PedraDeGuaratiba,-23.0044,-43.6290,999.7763,301.3643,0.5942,-1.4553,2.8571,74.5800,54.6878,11.0308,,28.4534,,23.1325,
2020-12-19T15:00:00Z,2020-12-17T12:00:00Z,Rio_PedraDeGuaratiba,-23.0044,-43.6290,999.1528,301.1932,0.9965,-1.6853,3.1755,80.9298,61.6719,9.3076,,30.1460,,25.2286,
2020-12-19T16:00:00Z,2020-12-17T12:00:00Z,Rio_PedraDeGuaratiba,-23.0044,-43.6290,998.2878,300.8939,2.9095,-1.8925,3.1532,86.1801,58.9278,7.3723,,31.6773,,26.4515,
2020-12-19T17:00:00Z,2020-12-17T12:00:00Z,Rio_PedraDeGuaratiba,-23.0044,-43.6290,997.6993,300.5629,6.0946,-2.1422,2.8795,90.1283,56.7155,6.1066,,32.6776,,26.5976,
2020-12-19T18:00:00Z,2020-12-17T12:00:00Z,Rio_PedraDeGuaratiba,-23.0044,-43.6290,997.4454,300.1784,4.7907,-2.4337,2.6691,91.2257,53.7569,6.1196,,32.5532,,25.5214,
2020-12-19T19:00:00Z,2020-12-17T12:00:00Z,Rio_PedraDeGuaratiba,-23.0044,-43.6290,997.2104,299.6490,9.9242,-2.7340,2.3659,87.0039,40.9537,7.2877,,30.3355,,22.9899,
2020-12-19T20:00:00Z,2020-12-17T12:00:00Z,Rio_PedraDeGuaratiba,-23.0044,-43.6290,997.5755,299.0291,13.5303,-2.7693,1.8818,76.1180,37.8156,11.0522,,27.8361,,20.4582,
2020-12-19T21:00:00Z,2020-12-17T12:00:00Z,Rio_PedraDeGuaratiba,-23.0044,-43.6290,998.1558,298.2930,4.5747,-2.2124,1.1951,62.6319,33.7283,16.2449,,27.0231,,18.7705,
2020-12-19T22:00:00Z,2020-12-17T12:00:00Z,Rio_PedraDeGuaratiba,-23.0044,-43.6290,999.0403,297.9891,0.9835,-1.5834,0.7176,55.5411,39.2012,18.2462,,26.9608,,18.5668,
2020-12-19T23:00:00Z,2020-12-17T12:00:00Z,Rio_PedraDeGuaratiba,-23.0044,-43.6290,999.8899,297.9364,0.7926,-0.6270,0.4455,52.4405,45.7331,18.9945,,30.2105,,19.4689,
2020-12-20T00:00:00Z,2020-12-17T12:00:00Z,Rio_PedraDeGuaratiba,-23.0044,-43.6290,1000.1262,297.8955,0.1851,-0.0461,-0.0755,51.1627,42.2651,19.1097,,33.9281,,20.6329,
2020-12-20T01:00:00Z,2020-12-17T12:00:00Z,Rio_PedraDeGuaratiba,-23.0044,-43.6290,999.7950,297.8390,0.0342,0.3462,-0.0194,49.6326,33.4441,19.4584,,38.8023,,21.9714,
2020-12-20T02:00:00Z,2020-12-17T12:00:00Z,Rio_PedraDeGuaratiba,-23.0044,-43.6290,999.0397,297.8082,0.0774,0.3172,-0.2304,50.2203,33.3639,18.5814,,42.7291,,22.9898,
2020-12-20T03:00:00Z,2020-12-17T12:00:00Z,Rio_PedraDeGuaratiba,-23.0044,-43.6290,998.7919,297.7489,0.1001,0.3624,-1.3470,43.6799,25.0176,24.3599,,51.1568,,25.3761,
2020-12-20T04:00:00Z,2020-12-17T12:00:00Z,Rio_PedraDeGuaratiba,-23.0044,-43.6290,998.6019,297.8058,2.3358,0.7245,-2.0260,41.3533,25.2874,26.9962,,64.5160,,27.8498,
2020-12-20T05:00:00Z,2020-12-17T12:00:00Z,Rio_PedraDeGuaratiba,-23.0044,-43.6290,997.8778,297.9354,7.4431,0.4560,-2.1930,44.2317,26.5910,25.4279,,75.6381,,29.8283,
2020-12-20T06:00:00Z,2020-12-17T12:00:00Z,Rio_PedraDeGuaratiba,-23.0044,-43.6290,997.0583,297.9599,6.4448,-0.0928,-2.4735,44.8107,29.9668,26.4556,,63.0088,,32.0978,
2020-12-20T07:00:00Z,2020-12-17T12:00:00Z,Rio_PedraDeGuaratiba,-23.0044,-43.6290,997.1077,297.9177,2.8722,-0.4129,-2.6128,44.4254,27.2496,26.9457,,48.5671,,35.1236,
2020-12-20T08:00:00Z,2020-12-17T12:00:00Z,Rio_PedraDeGuaratiba,-23.0044,-43.6290,997.8619,298.0543,0.7981,-0.5265,-2.4772,47.9264,53.2956,22.5064,,38.5655,,39.4884,
2020-12-20T09:00:00Z,2020-12-17T12:00:00Z,Rio_PedraDeGuaratiba,-23.0044,-43.6290,998.5157,298.6607,0.4726,-0.8319,-2.2844,52.5786,66.5008,18.6264,,44.1899,,44.0282,
2020-12-20T10:00:00Z,2020-12-17T12:00:00Z,Rio_PedraDeGuaratiba,-23.0044,-43.6290,998.9052,299.8694,0.8363,-0.9639,-1.7013,60.4465,70.1527,15.4476,,34.3148,,38.8476,
2020-12-20T11:00:00Z,2020-12-17T12:00:00Z,Rio_PedraDeGuaratiba,-23.0044,-43.6290,999.1968,301.6280,4.7833,-0.9621,-1.3971,73.1358,78.9083,11.8282,,23.4724,,28.9812,
2020-12-20T12:00:00Z,2020-12-17T12:00:00Z,Rio_PedraDeGuaratiba,-23.0044,-43.6290,998.9496,303.2918,3.3341,-1.3323,-1.3854,88.7652,76.8102,8.7375,,20.0026,,23.2480,
2020-12-20T13:00:00Z,2020-12-17T12:00:00Z,Rio_PedraDeGuaratiba,-23.0044,-43.6290,998.2654,304.7891,2.6301,-1.6521,-1.2916,105.4380,95.5908,6.0715,,19.5301,,20.3387,
2020-12-20T14:00:00Z,2020-12-17T12:00:00Z,Rio_PedraDeGuaratiba,-23.0044,-43.6290,997.7607,306.0062,1.8757,-1.7487,-0.7225,119.4285,80.5209,4.2658,,20.7490,,18.9717,
2020-12-20T15:00:00Z,2020-12-17T12:00:00Z,Rio_PedraDeGuaratiba,-23.0044,-43.6290,997.0793,306.5363,1.4454,-2.0367,0.1104,131.1639,90.1945,3.4568,,22.7771,,19.4089,
2020-12-20T16:00:00Z,2020-12-17T12:00:00Z,Rio_PedraDeGuaratiba,-23.0044,-43.6290,996.4679,306.3018,2.1011,-2.4939,0.6788,141.6785,84.9646,3.2609,,25.1492,,21.9122,
2020-12-20T17:00:00Z,2020-12-17T12:00:00Z,Rio_PedraDeGuaratiba,-23.0044,-43.6290,996.2422,305.2200,3.6806,-2.8268,0.8472,150.4843,74.4405,3.9418,,27.7720,,25.1728,
2020-12-20T18:00:00Z,2020-12-17T12:00:00Z,Rio_PedraDeGuaratiba,-23.0044,-43.6290,996.0464,303.9450,3.8370,-2.6939,0.6938,154.1693,68.5751,5.3295,,30.2111,,28.5205,
2020-12-20T19:00:00Z,2020-12-17T12:00:00Z,Rio_PedraDeGuaratiba,-23.0044,-43.6290,996.3898,303.0237,3.9712,-2.2702,0.6678,147.1777,57.2736,8.2595,,30.8393,,30.2966,
2020-12-20T20:00:00Z,2020-12-17T12:00:00Z,Rio_PedraDeGuaratiba,-23.0044,-43.6290,996.6789,302.2402,4.8578,-1.9273,0.6573,132.5316,53.1262,12.8364,,30.1239,,31.2278,
2020-12-20T21:00:00Z,2020-12-17T12:00:00Z,Rio_PedraDeGuaratiba,-23.0044,-43.6290,996.7877,301.3842,3.5129,-1.8800,0.4863,113.6954,46.9655,20.1035,,30.4072,,32.1015,
2020-12-20T22:00:00Z,2020-12-17T12:00:00Z,Rio_PedraDeGuaratiba,-23.0044,-43.6290,997.1605,300.7947,0.6771,-2.0034,0.2552,101.9298,36.4722,15.9069,,27.3189,,34.7803,
2020-12-20T23:00:00Z,2020-12-17T12:00:00Z,Rio_PedraDeGuaratiba,-23.0044,-43.6290,997.4399,300.5645,0.4438,-1.8066,-0.1947,88.2086,35.4446,15.3892,,25.3901,,40.1942,
2020-12-21T00:00:00Z,2020-12-17T12:00:00Z,Rio_PedraDeGuaratiba,-23.0044,-43.6290,998.0078,300.6620,0.9462,-0.9561,-0.8921,81.2030,45.1284,14.2171,,22.9879,,45.7823,
2020-12-21T01:00:00Z,2020-12-17T12:00:00Z,Rio_PedraDeGuaratiba,-23.0044,-43.6290,998.5579,300.9334,3.8669,-0.2546,-1.3900,78.4984,39.3059,11.9281,,19.4305,,46.5380,
2020-12-21T02:00:00Z,2020-12-17T12:00:00Z,Rio_PedraDeGuaratiba,-23.0044,-43.6290,998.2425,301.0731,3.8743,-0.1308,-1.9049,78.9943,43.7192,9.2228,,16.0142,,41.2992,
2020-12-21T03:00:00Z,2020-12-17T12:00:00Z,Rio_PedraDeGuaratiba,-23.0044,-43.6290,997.3322,300.9608,1.5032,-0.3096,-2.2429,79.0631,46.6905,8.1506,,14.6251,,33.7904,
2020-12-21T04:00:00Z,2020-12-17T12:00:00Z,Rio_PedraDeGuaratiba,-23.0044,-43.6290,996.9074,300.6183,1.6689,-0.3704,-2.1970,79.6769,45.7529,8.1164,,15.7214,,29.3376,
2020-12-21T05:00:00Z,2020-12-17T12:00:00Z,Rio_PedraDeGuaratiba,-23.0044,-43.6290,996.5004,300.0331,0.8224,-0.4941,-2.1852,80.4692,45.7213,8.7439,,16.7265,,28.1736,
2020-12-21T06:00:00Z,2020-12-17T12:00:00Z,Rio_PedraDeGuaratiba,-23.0044,-43.6290,996.6085,299.5445,0.1241,-0.4658,-2.1481,81.2799,32.7815,9.2814,,16.7941,,28.0276,
2020-12-21T07:00:00Z,2020-12-17T12:00:00Z,Rio_PedraDeGuaratiba,-23.0044,-43.6290,997.3516,299.2182,0.0182,-0.2800,-2.3044,80.1971,45.8640,10.2914,,16.5781,,27.7942,
2020-12-21T08:00:00Z,2020-12-17T12:00:00Z,Rio_PedraDeGuaratiba,-23.0044,-43.6290,998.4406,299.0501,0.0003,-0.0502,-2.5258,77.6372,46.8754,12.7544,,17.5470,,27.8225,
2020-12-21T09:00:00Z,2020-12-17T12:00:00Z,Rio_PedraDeGuaratiba,-23.0044,-43.6290,998.8023,299.4411,0.0000,0.0097,-3.0325,66.6915,55.8242,22.1816,,25.5416,,28.6656,
2020-12-21T10:00:00Z,2020-12-17T12:00:00Z,Rio_PedraDeGuaratiba,-23.0044,-43.6290,998.8854,300.3079,0.0008,-0.0260,-2.8528,69.8577,63.8556,20.7805,,27.4153,,27.8210,
2020-12-21T11:00:00Z,2020-12-17T12:00:00Z,Rio_PedraDeGuaratiba,-23.0044,-43.6290,998.8875,302.0141,0.0031,0.1731,-2.5838,89.0240,75.2394,11.4899,,18.6014,,23.1059,
2020-12-21T12:00:00Z,2020-12-17T12:00:00Z,Rio_PedraDeGuaratiba,-23.0044,-43.6290,999.1318,304.0403,0.0116,0.3806,-2.1444,105.8999,88.6571,5.9462,,15.6871,,18.4779,
2020-12-21T13:00:00Z,2020-12-17T12:00:00Z,Rio_PedraDeGuaratiba,-23.0044,-43.6290,998.8452,305.8471,0.0555,0.5910,-1.0921,116.9866,80.7812,3.8849,,15.8204,,15.6551,
2020-12-21T14:00:00Z,2020-12-17T12:00:00Z,Rio_PedraDeGuaratiba,-23.0044,-43.6290,998.4561,306.4271,0.2878,0.8101,0.9546,123.0703,62.7532,2.7283,,16.6440,,16.6452,
2020-12-21T15:00:00Z,2020-12-17T12:00:00Z,Rio_PedraDeGuaratiba,-23.0044,-43.6290,998.4717,304.5374,0.9192,1.2627,3.2383,126.2598,62.8153,2.5704,,18.3863,,25.1735,
2020-12-21T16:00:00Z,2020-12-17T12:00:00Z,Rio_PedraDeGuaratiba,-23.0044,-43.6290,998.6677,302.4788,1.0617,2.0115,4.5928,122.9281,58.6982,2.3923,,22.5370,,34.5451,
2020-12-21T17:00:00Z,2020-12-17T12:00:00Z,Rio_PedraDeGuaratiba,-23.0044,-43.6290,998.7675,301.0602,1.1083,2.3516,4.4176,115.7160,55.4259,2.7177,,27.9137,,38.7943,
2020-12-21T18:00:00Z,2020-12-17T12:00:00Z,Rio_PedraDeGuaratiba,-23.0044,-43.6290,999.1719,300.4476,4.7907,2.3424,4.0229,89.5136,56.6620,2.9218,,22.5136,,37.3400,
2020-12-21T19:00:00Z,2020-12-17T12:00:00Z,Rio_PedraDeGuaratiba,-23.0044,-43.6290,999.7784,300.0262,9.1046,2.0525,3.2856,72.0014,46.9061,3.3971,,16.9906,,39.4363,
2020-12-21T20:00:00Z,2020-12-17T12:00:00Z,Rio_PedraDeGuaratiba,-23.0044,-43.6290,1000.0812,299.5761,10.9524,1.6109,2.2743,65.6250,49.7616,5.4358,,16.3776,,44.2099,
2020-12-21T21:00:00Z,2020-12-17T12:00:00Z,Rio_PedraDeGuaratiba,-23.0044,-43.6290,1000.1199,299.0566,2.6338,0.9199,1.1826,58.6617,41.3445,9.1542,,18.5433,,47.2951,
2020-12-21T22:00:00Z,2020-12-17T12:00:00Z,Rio_PedraDeGuaratiba,-23.0044,-43.6290,999.9986,298.6951,10.0732,1.2082,1.4750,54.2817,44.2226,10.8084,,20.5810,,49.5655,
2020-12-21T23:00:00Z,2020-12-17T12:00:00Z,Rio_PedraDeGuaratiba,-23.0044,-43.6290,1001.2796,298.6466,33.0806,1.7458,0.9342,50.8675,43.4845,10.2167,,21.0836,,46.7721,
2020-12-22T00:00:00Z,2020-12-17T12:00:00Z,Rio_PedraDeGuaratiba,-23.0044,-43.6290,1002.4696,298.6970,80.7047,2.1224,1.0229,46.5774,45.0544,9.0382,,19.9948,,43.3973,
2020-12-22T01:00:00Z,2020-12-17T12:00:00Z,Rio_PedraDeGuaratiba,-23.0044,-43.6290,1002.6769,298.6452,77.6052,1.2888,0.8806,39.7131,40.5217,8.6092,,19.6853,,41.9433,
2020-12-22T02:00:00Z,2020-12-17T12:00:00Z,Rio_PedraDeGuaratiba,-23.0044,-43.6290,1001.7367,298.5665,46.8493,1.6079,0.6518,33.8799,31.4088,9.8325,,21.5335,,45.4949,
2020-12-22T03:00:00Z,2020-12-17T12:00:00Z,Rio_PedraDeGuaratiba,-23.0044,-43.6290,1000.5132,298.4967,23.1564,2.3003,0.4050,32.6640,41.0821,8.2441,,21.5026,,54.6346,
2020-12-22T04:00:00Z,2020-12-17T12:00:00Z,Rio_PedraDeGuaratiba,-23.0044,-43.6290,1000.3508,298.5192,64.3730,2.1925,0.0468,32.9948,40.6272,7.8914,,22.6236,,64.4134,
2020-12-22T05:00:00Z,2020-12-17T12:00:00Z,Rio_PedraDeGuaratiba,-23.0044,-43.6290,999.6352,298.4764,48.5778,2.0998,0.5561,36.1265,40.2478,6.0264,,21.6875,,78.2668,
2020-12-22T06:00:00Z,2020-12-17T12:00:00Z,Rio_PedraDeGuaratiba,-23.0044,-43.6290,999.5929,298.2957,24.8849,2.4050,1.3987,38.2298,34.0874,5.0047,,19.6820,,99.8033,
2020-12-22T07:00:00Z,2020-12-17T12:00:00Z,Rio_PedraDeGuaratiba,-23.0044,-43.6290,999.8541,298.0409,38.5642,2.9508,2.0367,39.5126,44.0672,4.6996,,16.4701,,107.3700,
2020-12-22T08:00:00Z,2020-12-17T12:00:00Z,Rio_PedraDeGuaratiba,-23.0044,-43.6290,1001.2339,297.9342,40.1735,3.3504,1.9109,40.7669,47.3426,4.5455,,12.8626,,92.4696,
2020-12-22T09:00:00Z,2020-12-17T12:00:00Z,Rio_PedraDeGuaratiba,-23.0044,-43.6290,1001.9459,298.0046,32.1865,3.0532,1.9240,41.6901,50.4059,4.1213,,10.8047,,84.0865,
2020-12-22T10:00:00Z,2020-12-17T12:00:00Z,Rio_PedraDeGuaratiba,-23.0044,-43.6290,1002.1755,298.1086,86.6652,2.9859,2.1492,43.2667,51.9814,3.4408,,9.9432,,76.1702,
2020-12-22T11:00:00Z,2020-12-17T12:00:00Z,Rio_PedraDeGuaratiba,-23.0044,-43.6290,1002.8152,298.3501,105.0234,3.2890,2.6175,45.4617,52.6963,2.9701,,9.3335,,50.1523,
2020-12-17T12:00:00Z,2020-12-17T12:00:00Z,Rio_Copacabana,-22.9650,-43.1805,1010.4411,299.0352,81.8968,-2.2785,-1.0976,61.4287,24.3829,11.4666,,20.2290,,17.5528,
2020-12-17T13:00:00Z,2020-12-17T12:00:00Z,Rio_Copacabana,-22.9650,-43.1805,1010.2556,299.6242,43.1538,-2.1037,-1.2055,67.6416,25.6968,9.2024,,18.5116,,18.1128,
2020-12-17T14:00:00Z,2020-12-17T12:00:00Z,Rio_Copacabana,-22.9650,-43.1805,1009.5355,300.3473,24.1101,-2.5777,-1.6273,78.3867,36.3751,6.9683,,17.5158,,18.3275,
2020-12-17T15:00:00Z,2020-12-17T12:00:00Z,Rio_Copacabana,-22.9650,-43.1805,1008.6736,301.1142,23.5140,-2.9585,-1.9576,89.4894,34.1643,4.8680,,15.8221,,18.1817,
2020-12-17T16:00:00Z,2020-12-17T12:00:00Z,Rio_Copacabana,-22.9650,-43.1805,1008.3804,301.6501,24.9743,-2.6436,-1.8172,93.9101,44.2694,5.3289,,16.3578,,17.9548,
2020-12-17T17:00:00Z,2020-12-17T12:00:00Z,Rio_Copacabana,-22.9650,-43.1805,1007.3835,302.0484,34.9879,-2.3245,-1.0143,97.0558,34.9918,6.0685,,17.3263,,18.4186,
2020-12-17T18:00:00Z,2020-12-17T12:00:00Z,Rio_Copacabana,-22.9650,-43.1805,1006.1525,301.9055,21.3981,-2.3506,-0.0081,95.6392,30.5783,6.4462,,17.2945,,18.9119,
2020-12-17T19:00:00Z,2020-12-17T12:00:00Z,Rio_Copacabana,-22.9650,-43.1805,1006.1330,301.6000,124.2161,-1.3255,-0.3877,88.3356,18.7204,8.4334,,17.8264,,19.6673,
2020-12-17T20:00:00Z,2020-12-17T12:00:00Z,Rio_Copacabana,-22.9650,-43.1805,1006.3622,300.9193,79.2742,-0.6512,-1.1261,81.4756,15.7328,11.3488,,19.2027,,24.2957,
2020-12-17T21:00:00Z,2020-12-17T12:00:00Z,Rio_Copacabana,-22.9650,-43.1805,1005.7570,300.3101,10.8331,-0.1881,-1.4603,83.1673,21.0302,11.8368,,17.2737,,27.5565,
2020-12-17T22:00:00Z,2020-12-17T12:00:00Z,Rio_Copacabana,-22.9650,-43.1805,1005.0392,299.7915,1.8515,-1.0420,-1.1632,78.2949,14.0108,14.0350,,17.7783,,31.1074,
2020-12-17T23:00:00Z,2020-12-17T12:00:00Z,Rio_Copacabana,-22.9650,-43.1805,1005.7976,299.5102,1.3132,-1.6936,-0.1620,70.7541,16.9659,15.7891,,18.7480,,35.2407,
2020-12-18T00:00:00Z,2020-12-17T12:00:00Z,Rio_Copacabana,-22.9650,-43.1805,1006.9063,299.0564,5.2899,-2.0448,-0.4293,68.3374,25.7445,14.1227,,17.6868,,39.4961,
2020-12-18T01:00:00Z,2020-12-17T12:00:00Z,Rio_Copacabana,-22.9650,-43.1805,1007.1828,298.8539,11.2057,-1.8199,-0.7388,65.0050,21.9216,14.2447,,17.6862,,42.5338,
2020-12-18T02:00:00Z,2020-12-17T12:00:00Z,Rio_Copacabana,-22.9650,-43.1805,1007.1287,298.7623,25.0041,-1.6383,-0.5772,61.3965,19.9547,14.8454,,18.1868,,44.3911,
2020-12-18T03:00:00Z,2020-12-17T12:00:00Z,Rio_Copacabana,-22.9650,-43.1805,1006.5793,298.4174,57.7569,-1.2374,-0.9712,55.9933,17.4812,17.5972,,21.1587,,47.3594,
2020-12-18T04:00:00Z,2020-12-17T12:00:00Z,Rio_Copacabana,-22.9650,-43.1805,1007.1194,297.8841,62.7041,0.3778,-2.1006,46.9212,20.7479,24.0347,,26.3802,,52.1402,
2020-12-18T05:00:00Z,2020-12-17T12:00:00Z,Rio_Copacabana,-22.9650,-43.1805,1006.3023,297.8747,6.8471,-0.0571,-1.9592,39.7327,12.5393,29.4283,,31.6976,,49.3473,
2020-12-18T06:00:00Z,2020-12-17T12:00:00Z,Rio_Copacabana,-22.9650,-43.1805,1005.4800,297.8462,0.5048,-0.7398,-1.7318,39.9876,8.2358,30.5486,,35.2301,,46.6684,
2020-12-18T07:00:00Z,2020-12-17T12:00:00Z,Rio_Copacabana,-22.9650,-43.1805,1005.0374,297.5293,0.1525,-1.2392,-1.9109,33.0317,8.3018,37.0946,,45.1069,,45.5580,
2020-12-18T08:00:00Z,2020-12-17T12:00:00Z,Rio_Copacabana,-22.9650,-43.1805,1005.2112,297.3173,0.0221,-1.0231,-1.6306,23.6312,4.7771,43.0068,,57.4844,,45.2639,
2020-12-18T09:00:00Z,2020-12-17T12:00:00Z,Rio_Copacabana,-22.9650,-43.1805,1005.6022,297.5996,0.3036,-0.4031,-1.0998,23.5612,15.3959,41.2417,,69.5458,,45.4360,
2020-12-18T10:00:00Z,2020-12-17T12:00:00Z,Rio_Copacabana,-22.9650,-43.1805,1006.1088,298.6032,0.4498,0.5319,-0.5046,35.9484,27.4134,30.0562,,53.8562,,36.5852,
2020-12-18T11:00:00Z,2020-12-17T12:00:00Z,Rio_Copacabana,-22.9650,-43.1805,1006.1375,299.7493,1.1865,1.1128,0.1283,48.1629,35.1295,23.4835,,40.6632,,30.8794,
2020-12-18T12:00:00Z,2020-12-17T12:00:00Z,Rio_Copacabana,-22.9650,-43.1805,1006.1415,300.5826,2.9467,1.5928,0.9548,60.5150,40.5407,20.4272,,40.7221,,29.0169,
2020-12-18T13:00:00Z,2020-12-17T12:00:00Z,Rio_Copacabana,-22.9650,-43.1805,1006.4188,300.7150,13.3067,1.8892,2.1564,75.3501,39.8792,17.3791,,41.7192,,29.8889,
2020-12-18T14:00:00Z,2020-12-17T12:00:00Z,Rio_Copacabana,-22.9650,-43.1805,1006.5909,300.3539,18.2986,1.8520,3.4009,90.7695,32.0326,12.1417,,40.8351,,32.0422,
2020-12-18T15:00:00Z,2020-12-17T12:00:00Z,Rio_Copacabana,-22.9650,-43.1805,1006.4839,300.1030,30.6964,1.8159,4.0719,95.7945,32.7187,8.2759,,34.5189,,30.2948,
2020-12-18T16:00:00Z,2020-12-17T12:00:00Z,Rio_Copacabana,-22.9650,-43.1805,1006.3129,299.8163,34.1535,1.3751,4.1641,87.7491,23.6658,6.2625,,26.9870,,26.0453,
2020-12-18T17:00:00Z,2020-12-17T12:00:00Z,Rio_Copacabana,-22.9650,-43.1805,1006.1326,299.5266,29.1169,1.0582,4.0652,75.2889,23.1498,5.7130,,19.9565,,20.6618,
2020-12-18T18:00:00Z,2020-12-17T12:00:00Z,Rio_Copacabana,-22.9650,-43.1805,1005.6473,299.1682,23.6034,0.7831,3.9464,64.4988,21.0168,5.9336,,14.8180,,16.4132,
2020-12-18T19:00:00Z,2020-12-17T12:00:00Z,Rio_Copacabana,-22.9650,-43.1805,1004.9237,298.8083,6.4820,-0.6466,3.6630,57.8058,24.2834,6.4374,,12.8840,,14.7975,
2020-12-18T20:00:00Z,2020-12-17T12:00:00Z,Rio_Copacabana,-22.9650,-43.1805,1003.4805,298.4230,10.3861,-1.7255,3.4632,51.8085,20.3393,8.7578,,13.6073,,15.3936,
2020-12-18T21:00:00Z,2020-12-17T12:00:00Z,Rio_Copacabana,-22.9650,-43.1805,1005.9799,298.0771,63.5386,-0.0909,1.6853,39.5796,24.5505,17.5524,,18.9697,,17.1106,
2020-12-18T22:00:00Z,2020-12-17T12:00:00Z,Rio_Copacabana,-22.9650,-43.1805,1006.2772,297.8795,301.3611,0.0728,1.4787,30.3091,19.3738,23.8789,,26.6577,,19.2356,
2020-12-18T23:00:00Z,2020-12-17T12:00:00Z,Rio_Copacabana,-22.9650,-43.1805,1006.3162,297.8168,30.6964,0.6141,0.6381,23.3336,18.4912,28.0199,,34.5935,,22.1466,
2020-12-19T00:00:00Z,2020-12-17T12:00:00Z,Rio_Copacabana,-22.9650,-43.1805,1007.0576,297.6454,8.0019,1.5288,0.3028,15.4909,20.7780,32.1970,,50.0277,,28.7538,
2020-12-19T01:00:00Z,2020-12-17T12:00:00Z,Rio_Copacabana,-22.9650,-43.1805,1007.1799,297.4697,0.8177,1.4694,1.0474,13.2407,19.7414,31.0206,,63.7752,,34.3127,
2020-12-19T02:00:00Z,2020-12-17T12:00:00Z,Rio_Copacabana,-22.9650,-43.1805,1006.8077,297.4630,3.2298,1.2306,0.5689,12.7385,11.2884,29.3204,,75.7746,,38.9114,
2020-12-19T03:00:00Z,2020-12-17T12:00:00Z,Rio_Copacabana,-22.9650,-43.1805,1005.6781,297.3939,2.5891,0.7457,0.0788,12.4715,12.2794,26.7623,,87.6503,,43.6844,
2020-12-19T04:00:00Z,2020-12-17T12:00:00Z,Rio_Copacabana,-22.9650,-43.1805,1004.7576,297.2512,5.2378,0.4642,-0.4643,11.5005,14.3877,25.4172,,98.1494,,47.5256,
2020-12-19T05:00:00Z,2020-12-17T12:00:00Z,Rio_Copacabana,-22.9650,-43.1805,1004.3026,297.1183,3.5949,0.9080,-0.3538,10.3504,9.6060,24.4646,,111.7711,,51.5990,
2020-12-19T06:00:00Z,2020-12-17T12:00:00Z,Rio_Copacabana,-22.9650,-43.1805,1004.4196,296.9506,0.7898,1.4384,-0.3160,8.1411,13.0386,23.6916,,142.6422,,59.0485,
2020-12-19T07:00:00Z,2020-12-17T12:00:00Z,Rio_Copacabana,-22.9650,-43.1805,1004.4919,296.8175,0.4005,1.5837,0.0601,6.7806,15.0038,22.0692,,168.8899,,65.8002,
2020-12-19T08:00:00Z,2020-12-17T12:00:00Z,Rio_Copacabana,-22.9650,-43.1805,1004.5735,296.8408,0.2850,1.2848,0.0692,6.8162,12.6740,20.8705,,179.3893,,67.7798,
2020-12-19T09:00:00Z,2020-12-17T12:00:00Z,Rio_Copacabana,-22.9650,-43.1805,1004.9453,297.3964,0.0151,0.9052,-0.2814,8.6015,21.5746,26.0353,,127.5152,,52.2372,
2020-12-19T10:00:00Z,2020-12-17T12:00:00Z,Rio_Copacabana,-22.9650,-43.1805,1005.4892,298.4392,0.0508,0.3419,-0.5074,15.6521,24.6279,28.4268,,77.1442,,36.1128,
2020-12-19T11:00:00Z,2020-12-17T12:00:00Z,Rio_Copacabana,-22.9650,-43.1805,1005.5626,299.4770,0.1350,-0.2530,-0.0446,27.2206,34.1653,24.1132,,59.4669,,29.7384,
2020-12-19T12:00:00Z,2020-12-17T12:00:00Z,Rio_Copacabana,-22.9650,-43.1805,1005.7515,300.5081,0.0860,-0.6297,0.5688,39.1380,49.1320,20.8824,,50.1678,,25.7800,
2020-12-19T13:00:00Z,2020-12-17T12:00:00Z,Rio_Copacabana,-22.9650,-43.1805,1005.3903,301.1172,0.2177,-0.9622,1.5615,54.3037,53.0573,17.1232,,44.1763,,23.7429,
2020-12-19T14:00:00Z,2020-12-17T12:00:00Z,Rio_Copacabana,-22.9650,-43.1805,1004.8963,301.3643,1.3970,-1.5529,2.3219,70.5920,43.3035,12.4967,,39.6721,,22.5213,
2020-12-19T15:00:00Z,2020-12-17T12:00:00Z,Rio_Copacabana,-22.9650,-43.1805,1004.2728,301.2870,1.4715,-2.0047,2.8278,85.5756,39.1263,8.1716,,36.5523,,21.1249,
2020-12-19T16:00:00Z,2020-12-17T12:00:00Z,Rio_Copacabana,-22.9650,-43.1805,1003.4078,301.0189,2.1979,-2.4179,3.0438,95.6592,58.9344,5.1393,,33.2398,,19.4375,
2020-12-19T17:00:00Z,2020-12-17T12:00:00Z,Rio_Copacabana,-22.9650,-43.1805,1002.8193,300.6254,1.3616,-2.8864,2.7975,95.1678,58.5244,4.0889,,28.6463,,17.6046,
2020-12-19T18:00:00Z,2020-12-17T12:00:00Z,Rio_Copacabana,-22.9650,-43.1805,1002.5654,300.2409,0.8643,-3.2150,2.3410,88.9818,53.9188,4.1939,,24.3344,,16.4701,
2020-12-19T19:00:00Z,2020-12-17T12:00:00Z,Rio_Copacabana,-22.9650,-43.1805,1002.3304,299.7740,0.3497,-3.3082,2.0183,84.3805,58.1101,5.1147,,21.2105,,16.8199,
2020-12-19T20:00:00Z,2020-12-17T12:00:00Z,Rio_Copacabana,-22.9650,-43.1805,1002.6955,299.2478,0.2324,-3.0115,1.7255,76.2276,49.8084,8.6055,,19.9298,,19.2067,
2020-12-19T21:00:00Z,2020-12-17T12:00:00Z,Rio_Copacabana,-22.9650,-43.1805,1003.2758,298.4492,0.3553,-2.3062,1.1795,70.7147,47.3794,9.8108,,17.2731,,24.5331,
2020-12-19T22:00:00Z,2020-12-17T12:00:00Z,Rio_Copacabana,-22.9650,-43.1805,1003.8404,298.1141,1.1399,-2.1420,0.7683,66.8736,24.3167,9.7053,,15.0077,,29.7136,
2020-12-19T23:00:00Z,2020-12-17T12:00:00Z,Rio_Copacabana,-22.9650,-43.1805,1004.6899,298.0614,3.0622,-1.6104,0.6360,58.8999,19.3629,14.7628,,18.0542,,34.8939,
2020-12-20T00:00:00Z,2020-12-17T12:00:00Z,Rio_Copacabana,-22.9650,-43.1805,1004.9261,298.0205,15.0949,-1.0159,0.4143,40.1122,22.2105,30.0252,,31.4594,,41.1220,
2020-12-20T01:00:00Z,2020-12-17T12:00:00Z,Rio_Copacabana,-22.9650,-43.1805,1004.5950,297.8390,5.1409,-0.6509,0.3698,31.5094,20.5687,35.6276,,50.1773,,48.5723,
2020-12-20T02:00:00Z,2020-12-17T12:00:00Z,Rio_Copacabana,-22.9650,-43.1805,1004.1597,297.5582,0.2328,-0.5187,0.0206,22.3116,22.9545,40.7535,,77.6666,,56.7211,
2020-12-20T03:00:00Z,2020-12-17T12:00:00Z,Rio_Copacabana,-22.9650,-43.1805,1003.9119,297.3114,0.7274,-0.0565,-0.9427,11.6445,20.0140,47.5735,,125.7818,,68.4789,
2020-12-20T04:00:00Z,2020-12-17T12:00:00Z,Rio_Copacabana,-22.9650,-43.1805,1003.7219,297.0871,0.4815,1.0458,-1.3658,4.3284,17.6554,49.5044,,174.8910,,78.8397,
2020-12-20T05:00:00Z,2020-12-17T12:00:00Z,Rio_Copacabana,-22.9650,-43.1805,1002.9978,297.1854,0.1122,1.2143,-1.2340,0.9162,11.0196,46.1374,,199.3881,,87.8031,
2020-12-20T06:00:00Z,2020-12-17T12:00:00Z,Rio_Copacabana,-22.9650,-43.1805,1002.4982,297.4286,0.0110,0.2099,-1.4540,0.0434,9.2546,46.9994,,191.8838,,92.8084,
2020-12-20T07:00:00Z,2020-12-17T12:00:00Z,Rio_Copacabana,-22.9650,-43.1805,1002.5477,297.6989,0.0001,-0.7528,-1.5620,0.0782,9.2815,50.7548,,164.1296,,90.1298,
2020-12-20T08:00:00Z,2020-12-17T12:00:00Z,Rio_Copacabana,-22.9650,-43.1805,1003.3019,298.0543,0.0123,-1.2921,-1.3951,5.1685,13.4907,50.8950,,132.8780,,81.3979,
2020-12-20T09:00:00Z,2020-12-17T12:00:00Z,Rio_Copacabana,-22.9650,-43.1805,1003.9557,298.9107,0.2482,-1.7694,-1.4504,27.9341,25.0610,33.3681,,81.7524,,62.7710,
2020-12-20T10:00:00Z,2020-12-17T12:00:00Z,Rio_Copacabana,-22.9650,-43.1805,1004.3452,300.0257,1.2442,-1.7959,-1.5060,52.3636,22.7507,14.6073,,31.5023,,39.7790,
2020-12-20T11:00:00Z,2020-12-17T12:00:00Z,Rio_Copacabana,-22.9650,-43.1805,1004.9568,301.4405,5.0515,-1.6575,-1.3971,67.8897,38.1469,8.9782,,21.6599,,25.9544,
2020-12-20T12:00:00Z,2020-12-17T12:00:00Z,Rio_Copacabana,-22.9650,-43.1805,1004.7096,302.7293,4.0010,-1.8323,-1.4323,86.6548,53.8764,6.0788,,18.7213,,19.8138,
2020-12-20T13:00:00Z,2020-12-17T12:00:00Z,Rio_Copacabana,-22.9650,-43.1805,1004.0254,303.9141,3.3453,-1.9997,-1.5221,104.5755,47.7886,4.1027,,18.2488,,17.1955,
2020-12-20T14:00:00Z,2020-12-17T12:00:00Z,Rio_Copacabana,-22.9650,-43.1805,1003.2007,304.8812,3.2224,-1.8659,-1.2333,116.3210,60.4065,3.0400,,18.5615,,16.1777,
2020-12-20T15:00:00Z,2020-12-17T12:00:00Z,Rio_Copacabana,-22.9650,-43.1805,1002.5193,305.4113,1.9372,-1.8531,-0.3904,123.9822,35.5427,2.7650,,19.3083,,16.1492,
2020-12-20T16:00:00Z,2020-12-17T12:00:00Z,Rio_Copacabana,-22.9650,-43.1805,1001.9079,305.4268,1.0654,-2.3767,0.4566,128.9709,34.1611,3.1462,,20.5555,,16.9064,
2020-12-20T17:00:00Z,2020-12-17T12:00:00Z,Rio_Copacabana,-22.9650,-43.1805,1001.3622,305.1575,1.0058,-3.1510,0.6460,130.9993,23.6106,3.9959,,21.4907,,18.5080,
2020-12-20T18:00:00Z,2020-12-17T12:00:00Z,Rio_Copacabana,-22.9650,-43.1805,1001.1664,304.8825,0.6612,-3.4088,0.3628,131.7539,22.2849,3.3841,,20.2736,,20.0513,
2020-12-20T19:00:00Z,2020-12-17T12:00:00Z,Rio_Copacabana,-22.9650,-43.1805,1001.5098,304.5237,0.7926,-3.3288,0.2196,125.9865,15.1287,4.3027,,19.5268,,22.0020,
2020-12-20T20:00:00Z,2020-12-17T12:00:00Z,Rio_Copacabana,-22.9650,-43.1805,1001.7989,303.6152,0.8056,-3.3258,0.2271,112.8730,33.0015,7.4381,,19.8114,,25.7563,
2020-12-20T21:00:00Z,2020-12-17T12:00:00Z,Rio_Copacabana,-22.9650,-43.1805,1002.2277,301.9780,0.5253,-3.4191,0.2108,101.8233,20.0020,7.3614,,17.6884,,33.0911,
2020-12-20T22:00:00Z,2020-12-17T12:00:00Z,Rio_Copacabana,-22.9650,-43.1805,1002.2805,301.1072,0.1201,-3.4800,-0.2230,92.5037,19.3677,7.6242,,17.2876,,38.9131,
2020-12-20T23:00:00Z,2020-12-17T12:00:00Z,Rio_Copacabana,-22.9650,-43.1805,1002.5599,300.8770,0.0436,-3.2011,-0.7093,87.7855,18.9461,7.4847,,17.3276,,41.8823,
2020-12-21T00:00:00Z,2020-12-17T12:00:00Z,Rio_Copacabana,-22.9650,-43.1805,1003.1278,301.0995,0.0901,-2.4834,-1.2486,83.5161,19.3305,7.4029,,16.9879,,41.8824,
2020-12-21T01:00:00Z,2020-12-17T12:00:00Z,Rio_Copacabana,-22.9650,-43.1805,1003.3580,301.3709,0.1297,-1.6081,-1.5325,78.7612,16.0370,7.5990,,16.3992,,41.9978,
2020-12-21T02:00:00Z,2020-12-17T12:00:00Z,Rio_Copacabana,-22.9650,-43.1805,1003.3625,301.3231,0.4042,-1.1025,-1.8678,74.8577,15.1930,7.8281,,15.4829,,42.1142,
2020-12-21T03:00:00Z,2020-12-17T12:00:00Z,Rio_Copacabana,-22.9650,-43.1805,1002.4523,301.0233,0.1348,-1.2344,-2.0593,72.4025,13.9942,7.7752,,14.3282,,40.6589,
2020-12-21T04:00:00Z,2020-12-17T12:00:00Z,Rio_Copacabana,-22.9650,-43.1805,1002.3474,300.6183,0.0576,-1.3988,-1.9489,70.9241,17.3836,7.0198,,13.1589,,37.8650,
2020-12-21T05:00:00Z,2020-12-17T12:00:00Z,Rio_Copacabana,-22.9650,-43.1805,1001.9404,300.0331,0.0013,-1.5253,-2.0563,60.2606,19.8192,14.8946,,19.5078,,35.3622,
2020-12-21T06:00:00Z,2020-12-17T12:00:00Z,Rio_Copacabana,-22.9650,-43.1805,1002.0485,299.5445,0.0000,-1.5722,-2.1442,37.9953,12.2042,32.6956,,34.2941,,33.1499,
2020-12-21T07:00:00Z,2020-12-17T12:00:00Z,Rio_Copacabana,-22.9650,-43.1805,1002.7916,299.1557,0.0000,-1.5095,-2.3083,23.5421,6.2303,45.0685,,46.4843,,31.9851,
2020-12-21T08:00:00Z,2020-12-17T12:00:00Z,Rio_Copacabana,-22.9650,-43.1805,1003.5606,299.0501,0.0000,-1.1986,-2.4008,22.9201,5.5655,45.7134,,52.9845,,31.8097,
2020-12-21T09:00:00Z,2020-12-17T12:00:00Z,Rio_Copacabana,-22.9650,-43.1805,1004.2423,299.5661,0.0000,-1.0064,-3.0052,31.0351,20.2660,37.8928,,56.2916,,31.7506,
2020-12-21T10:00:00Z,2020-12-17T12:00:00Z,Rio_Copacabana,-22.9650,-43.1805,1004.3254,300.4641,0.0015,-0.8996,-3.3840,48.4672,25.7810,25.6460,,41.2278,,25.9001,
2020-12-21T11:00:00Z,2020-12-17T12:00:00Z,Rio_Copacabana,-22.9650,-43.1805,1004.3275,302.0141,0.0190,-0.5442,-3.4315,77.2167,50.2802,11.2580,,21.2264,,18.5948,
2020-12-21T12:00:00Z,2020-12-17T12:00:00Z,Rio_Copacabana,-22.9650,-43.1805,1004.2518,303.5403,0.2477,-0.0964,-3.1873,98.7244,62.1114,6.7124,,16.6871,,14.8399,
2020-12-21T13:00:00Z,2020-12-17T12:00:00Z,Rio_Copacabana,-22.9650,-43.1805,1003.9651,304.9096,1.4380,0.2003,-2.7738,114.4072,58.6004,5.4874,,17.8673,,13.2249,
2020-12-21T14:00:00Z,2020-12-17T12:00:00Z,Rio_Copacabana,-22.9650,-43.1805,1003.5760,305.9896,2.8610,0.4273,-1.9419,128.5072,63.9615,4.8784,,20.3940,,12.8035,
2020-12-21T15:00:00Z,2020-12-17T12:00:00Z,Rio_Copacabana,-22.9650,-43.1805,1003.2717,306.5374,5.9456,0.7562,-0.2617,142.3163,51.4717,5.2766,,24.4488,,13.3719,
2020-12-21T16:00:00Z,2020-12-17T12:00:00Z,Rio_Copacabana,-22.9650,-43.1805,1002.8277,305.5413,10.3712,1.4206,2.4990,154.4080,57.0029,5.0933,,28.4745,,16.7627,
2020-12-21T17:00:00Z,2020-12-17T12:00:00Z,Rio_Copacabana,-22.9650,-43.1805,1003.2475,303.0290,7.6443,2.2168,4.6910,150.4132,34.8735,4.8578,,31.0387,,24.1551,
2020-12-21T18:00:00Z,2020-12-17T12:00:00Z,Rio_Copacabana,-22.9650,-43.1805,1003.9719,301.0726,3.9861,2.8151,4.8042,124.6064,23.9507,6.6983,,33.2011,,29.6566,
2020-12-21T19:00:00Z,2020-12-17T12:00:00Z,Rio_Copacabana,-22.9650,-43.1805,1004.5784,300.2450,17.2853,2.8142,3.9106,95.4555,27.8875,8.4448,,29.5219,,29.9485,
2020-12-21T20:00:00Z,2020-12-17T12:00:00Z,Rio_Copacabana,-22.9650,-43.1805,1005.2012,299.7324,22.3815,2.3668,2.8290,72.6883,20.9124,11.6100,,25.1276,,31.3460,
2020-12-21T21:00:00Z,2020-12-17T12:00:00Z,Rio_Copacabana,-22.9650,-43.1805,1005.2399,299.2128,11.5037,1.2314,1.3701,52.5526,20.7794,18.3655,,26.6996,,36.0610,
2020-12-21T22:00:00Z,2020-12-17T12:00:00Z,Rio_Copacabana,-22.9650,-43.1805,1004.7986,298.9139,13.5303,1.0793,1.1654,42.4723,26.0882,21.4339,,28.7060,,38.3314,
2020-12-21T23:00:00Z,2020-12-17T12:00:00Z,Rio_Copacabana,-22.9650,-43.1805,1005.7596,298.7716,15.7356,1.7497,0.5950,28.4780,18.6696,28.8905,,36.1149,,51.0213,
2020-12-22T00:00:00Z,2020-12-17T12:00:00Z,Rio_Copacabana,-22.9650,-43.1805,1007.2696,298.6970,75.1019,2.0130,0.1918,15.5246,27.5330,36.8144,,53.4948,,67.0878,
2020-12-22T01:00:00Z,2020-12-17T12:00:00Z,Rio_Copacabana,-22.9650,-43.1805,1007.7969,298.5827,64.0154,2.0789,0.3147,12.7740,21.1906,37.7173,,62.8103,,71.2800,
2020-12-22T02:00:00Z,2020-12-17T12:00:00Z,Rio_Copacabana,-22.9650,-43.1805,1006.5367,298.3478,10.4010,2.0923,0.0937,11.3085,15.1508,36.1245,,73.9397,,68.8361,
2020-12-22T03:00:00Z,2020-12-17T12:00:00Z,Rio_Copacabana,-22.9650,-43.1805,1005.6332,298.2467,9.0003,1.9936,-0.6353,9.7161,16.1805,34.0955,,107.8151,,76.4043,
2020-12-22T04:00:00Z,2020-12-17T12:00:00Z,Rio_Copacabana,-22.9650,-43.1805,1005.1508,298.2067,25.1830,1.8448,-1.1456,3.5901,15.9298,35.0607,,151.4362,,85.8338,
2020-12-22T05:00:00Z,2020-12-17T12:00:00Z,Rio_Copacabana,-22.9650,-43.1805,1004.7552,298.1952,41.9617,2.0041,-0.6168,0.8690,10.8784,31.5217,,179.1875,,91.4217,
2020-12-22T06:00:00Z,2020-12-17T12:00:00Z,Rio_Copacabana,-22.9650,-43.1805,1004.3929,298.1707,13.0087,2.1355,-0.0217,3.6789,13.1475,24.4076,,193.4320,,99.9197,
2020-12-22T07:00:00Z,2020-12-17T12:00:00Z,Rio_Copacabana,-22.9650,-43.1805,1004.6541,298.1346,23.0968,2.3102,0.5414,8.4363,17.2615,19.0995,,191.9389,,110.3968,
2020-12-22T08:00:00Z,2020-12-17T12:00:00Z,Rio_Copacabana,-22.9650,-43.1805,1006.0339,298.2780,55.8496,3.0301,0.8825,12.9631,11.1396,18.7364,,151.4250,,116.4511,
2020-12-22T09:00:00Z,2020-12-17T12:00:00Z,Rio_Copacabana,-22.9650,-43.1805,1006.7458,298.5984,57.5185,3.5766,1.1037,16.9945,18.5240,22.1225,,78.5547,,110.7456,
2020-12-22T10:00:00Z,2020-12-17T12:00:00Z,Rio_Copacabana,-22.9650,-43.1805,1006.9755,298.7961,79.3934,3.6070,1.5496,27.3493,21.1635,16.6322,,27.2401,,102.1308,
2020-12-22T11:00:00Z,2020-12-17T12:00:00Z,Rio_Copacabana,-22.9650,-43.1805,1007.2952,298.9438,114.3217,3.9648,2.1488,34.3080,25.0120,11.2581,,17.9741,,82.9232,
2020-12-17T12:00:00Z,2020-12-17T12:00:00Z,Rio_Tijuca,-22.9249,-43.2327,1010.4411,299.0352,81.8968,-2.2785,-1.0976,61.4287,47.3769,11.4666,40.3437,20.2290,,17.5528,
2020-12-17T13:00:00Z,2020-12-17T12:00:00Z,Rio_Tijuca,-22.9249,-43.2327,1010.2556,299.6242,43.1538,-2.1037,-1.2055,67.6416,66.6516,9.2024,38.5466,18.5116,,18.1128,
2020-12-17T14:00:00Z,2020-12-17T12:00:00Z,Rio_Tijuca,-22.9249,-43.2327,1009.5355,300.3473,24.1101,-2.5777,-1.6273,78.3867,89.5119,6.9683,39.8660,17.5158,,18.3275,
2020-12-17T15:00:00Z,2020-12-17T12:00:00Z,Rio_Tijuca,-22.9249,-43.2327,1008.6736,301.1142,23.5140,-2.9585,-1.9576,89.4894,86.7579,4.8680,35.6160,15.8221,,18.1817,
2020-12-17T16:00:00Z,2020-12-17T12:00:00Z,Rio_Tijuca,-22.9249,-43.2327,1008.3804,301.6501,24.9743,-2.6436,-1.8172,93.9101,59.7095,5.3289,40.5123,16.3578,,17.9548,
2020-12-17T17:00:00Z,2020-12-17T12:00:00Z,Rio_Tijuca,-22.9249,-43.2327,1007.3835,302.0484,34.9879,-2.3245,-1.0143,97.0558,48.2452,6.0685,45.9160,17.3263,,18.4186,
2020-12-17T18:00:00Z,2020-12-17T12:00:00Z,Rio_Tijuca,-22.9249,-43.2327,1006.1525,301.9055,21.3981,-2.3506,-0.0081,95.6392,46.8737,6.4462,46.7205,17.2945,,18.9119,
2020-12-17T19:00:00Z,2020-12-17T12:00:00Z,Rio_Tijuca,-22.9249,-43.2327,1006.1330,301.6000,124.2161,-1.3255,-0.3877,88.3356,47.3767,8.4334,46.5721,17.8264,,19.6673,
2020-12-17T20:00:00Z,2020-12-17T12:00:00Z,Rio_Tijuca,-22.9249,-43.2327,1006.3622,300.9193,79.2742,-0.6512,-1.1261,81.4756,39.0052,11.3488,45.3801,19.2027,,24.2957,
2020-12-17T21:00:00Z,2020-12-17T12:00:00Z,Rio_Tijuca,-22.9249,-43.2327,1005.7570,300.3101,10.8331,-0.1881,-1.4603,83.1673,44.1041,11.8368,47.3534,17.2737,,27.5565,
2020-12-17T22:00:00Z,2020-12-17T12:00:00Z,Rio_Tijuca,-22.9249,-43.2327,1005.0392,299.7915,1.8515,-1.0420,-1.1632,78.2949,26.7587,14.0350,50.5340,17.7783,,31.1074,
2020-12-17T23:00:00Z,2020-12-17T12:00:00Z,Rio_Tijuca,-22.9249,-43.2327,1005.7976,299.5102,1.3132,-1.6936,-0.1620,70.7541,30.7321,15.7891,54.6246,18.7480,,35.2407,
2020-12-18T00:00:00Z,2020-12-17T12:00:00Z,Rio_Tijuca,-22.9249,-43.2327,1006.9063,299.0564,5.2899,-2.0448,-0.4293,68.3374,35.0707,14.1227,41.9395,17.6868,,39.4961,
2020-12-18T01:00:00Z,2020-12-17T12:00:00Z,Rio_Tijuca,-22.9249,-43.2327,1007.1828,298.8539,11.2057,-1.8199,-0.7388,65.0050,47.9995,14.2447,35.7945,17.6862,,42.5338,
2020-12-18T02:00:00Z,2020-12-17T12:00:00Z,Rio_Tijuca,-22.9249,-43.2327,1007.1287,298.7623,25.0041,-1.6383,-0.5772,61.3965,41.2692,14.8454,37.1794,18.1868,,44.3911,
2020-12-18T03:00:00Z,2020-12-17T12:00:00Z,Rio_Tijuca,-22.9249,-43.2327,1006.5793,298.4174,57.7569,-1.2374,-0.9712,55.9933,38.8729,17.5972,30.6590,21.1587,,47.3594,
2020-12-18T04:00:00Z,2020-12-17T12:00:00Z,Rio_Tijuca,-22.9249,-43.2327,1007.1194,297.8841,62.7041,0.3778,-2.1006,46.9212,37.1704,24.0347,29.3910,26.3802,,52.1402,
2020-12-18T05:00:00Z,2020-12-17T12:00:00Z,Rio_Tijuca,-22.9249,-43.2327,1006.3023,297.8747,6.8471,-0.0571,-1.9592,39.7327,18.4869,29.4283,30.7863,31.6976,,49.3473,
2020-12-18T06:00:00Z,2020-12-17T12:00:00Z,Rio_Tijuca,-22.9249,-43.2327,1005.4800,297.8462,0.5048,-0.7398,-1.7318,39.9876,12.0954,30.5486,34.5401,35.2301,,46.6684,
2020-12-18T07:00:00Z,2020-12-17T12:00:00Z,Rio_Tijuca,-22.9249,-43.2327,1005.0374,297.5293,0.1525,-1.2392,-1.9109,33.0317,12.1401,37.0946,41.7588,45.1069,,45.5580,
2020-12-18T08:00:00Z,2020-12-17T12:00:00Z,Rio_Tijuca,-22.9249,-43.2327,1005.2112,297.3173,0.0221,-1.0231,-1.6306,23.6312,13.2095,43.0068,47.3371,57.4844,,45.2639,
2020-12-18T09:00:00Z,2020-12-17T12:00:00Z,Rio_Tijuca,-22.9249,-43.2327,1005.6022,297.5996,0.3036,-0.4031,-1.0998,23.5612,27.8770,41.2417,53.2419,69.5458,,45.4360,
2020-12-18T10:00:00Z,2020-12-17T12:00:00Z,Rio_Tijuca,-22.9249,-43.2327,1006.1088,298.6032,0.4498,0.5319,-0.5046,35.9484,49.4663,30.0562,59.1776,53.8562,,36.5852,
2020-12-18T11:00:00Z,2020-12-17T12:00:00Z,Rio_Tijuca,-22.9249,-43.2327,1006.1375,299.7493,1.1865,1.1128,0.1283,48.1629,62.8952,23.4835,62.6149,40.6632,,30.8794,
2020-12-18T12:00:00Z,2020-12-17T12:00:00Z,Rio_Tijuca,-22.9249,-43.2327,1006.1415,300.5826,2.9467,1.5928,0.9548,60.5150,71.1062,20.4272,50.8345,40.7221,,29.0169,
2020-12-18T13:00:00Z,2020-12-17T12:00:00Z,Rio_Tijuca,-22.9249,-43.2327,1006.4188,300.7150,13.3067,1.8892,2.1564,75.3501,65.7845,17.3791,47.9607,41.7192,,29.8889,
2020-12-18T14:00:00Z,2020-12-17T12:00:00Z,Rio_Tijuca,-22.9249,-43.2327,1006.5909,300.3539,18.2986,1.8520,3.4009,90.7695,67.0868,12.1417,32.6035,40.8351,,32.0422,
2020-12-18T15:00:00Z,2020-12-17T12:00:00Z,Rio_Tijuca,-22.9249,-43.2327,1006.4839,300.1030,30.6964,1.8159,4.0719,95.7945,47.8855,8.2759,35.1333,34.5189,,30.2948,
2020-12-18T16:00:00Z,2020-12-17T12:00:00Z,Rio_Tijuca,-22.9249,-43.2327,1006.3129,299.8163,34.1535,1.3751,4.1641,87.7491,50.5948,6.2625,37.1471,26.9870,,26.0453,
2020-12-18T17:00:00Z,2020-12-17T12:00:00Z,Rio_Tijuca,-22.9249,-43.2327,1006.1326,299.5266,29.1169,1.0582,4.0652,75.2889,45.5191,5.7130,33.1755,19.9565,,20.6618,
2020-12-18T18:00:00Z,2020-12-17T12:00:00Z,Rio_Tijuca,-22.9249,-43.2327,1005.6473,299.1682,23.6034,0.7831,3.9464,64.4988,46.9065,5.9336,27.9569,14.8180,,16.4132,
2020-12-18T19:00:00Z,2020-12-17T12:00:00Z,Rio_Tijuca,-22.9249,-43.2327,1004.9237,298.8083,6.4820,-0.6466,3.6630,57.8058,32.8087,6.4374,33.1493,12.8840,,14.7975,
2020-12-18T20:00:00Z,2020-12-17T12:00:00Z,Rio_Tijuca,-22.9249,-43.2327,1003.4805,298.4230,10.3861,-1.7255,3.4632,51.8085,20.3006,8.7578,37.9120,13.6073,,15.3936,
2020-12-18T21:00:00Z,2020-12-17T12:00:00Z,Rio_Tijuca,-22.9249,-43.2327,1005.9799,298.0771,63.5386,-0.0909,1.6853,39.5796,26.4692,17.5524,30.2681,18.9697,,17.1106,
2020-12-18T22:00:00Z,2020-12-17T12:00:00Z,Rio_Tijuca,-22.9249,-43.2327,1006.2772,297.8795,301.3611,0.0728,1.4787,30.3091,22.4617,23.8789,33.0387,26.6577,,19.2356,
2020-12-18T23:00:00Z,2020-12-17T12:00:00Z,Rio_Tijuca,-22.9249,-43.2327,1006.3162,297.8168,30.6964,0.6141,0.6381,23.3336,22.7033,28.0199,32.0224,34.5935,,22.1466,
2020-12-19T00:00:00Z,2020-12-17T12:00:00Z,Rio_Tijuca,-22.9249,-43.2327,1007.0576,297.6454,8.0019,1.5288,0.3028,15.4909,15.2843,32.1970,30.9129,50.0277,,28.7538,
2020-12-19T01:00:00Z,2020-12-17T12:00:00Z,Rio_Tijuca,-22.9249,-43.2327,1007.1799,297.4697,0.8177,1.4694,1.0474,13.2407,17.5159,31.0206,26.2021,63.7752,,34.3127,
2020-12-19T02:00:00Z,2020-12-17T12:00:00Z,Rio_Tijuca,-22.9249,-43.2327,1006.8077,297.4630,3.2298,1.2306,0.5689,12.7385,12.2102,29.3204,26.7181,75.7746,,38.9114,
2020-12-19T03:00:00Z,2020-12-17T12:00:00Z,Rio_Tijuca,-22.9249,-43.2327,1005.6781,297.3939,2.5891,0.7457,0.0788,12.4715,14.3782,26.7623,23.5211,87.6503,,43.6844,
2020-12-19T04:00:00Z,2020-12-17T12:00:00Z,Rio_Tijuca,-22.9249,-43.2327,1004.7576,297.2512,5.2378,0.4642,-0.4643,11.5005,15.9444,25.4172,22.8953,98.1494,,47.5256,
2020-12-19T05:00:00Z,2020-12-17T12:00:00Z,Rio_Tijuca,-22.9249,-43.2327,1004.3026,297.1183,3.5949,0.9080,-0.3538,10.3504,13.4206,24.4646,26.8364,111.7711,,51.5990,
2020-12-19T06:00:00Z,2020-12-17T12:00:00Z,Rio_Tijuca,-22.9249,-43.2327,1004.4196,296.9506,0.7898,1.4384,-0.3160,8.1411,12.1776,23.6916,29.2942,142.6422,,59.0485,
2020-12-19T07:00:00Z,2020-12-17T12:00:00Z,Rio_Tijuca,-22.9249,-43.2327,1004.4919,296.8175,0.4005,1.5837,0.0601,6.7806,12.4682,22.0692,33.3553,168.8899,,65.8002,
2020-12-19T08:00:00Z,2020-12-17T12:00:00Z,Rio_Tijuca,-22.9249,-43.2327,1004.5735,296.8408,0.2850,1.2848,0.0692,6.8162,16.0222,20.8705,39.7964,179.3893,,67.7798,
2020-12-19T09:00:00Z,2020-12-17T12:00:00Z,Rio_Tijuca,-22.9249,-43.2327,1004.9453,297.3964,0.0151,0.9052,-0.2814,8.6015,23.8403,26.0353,51.3918,127.5152,,52.2372,
2020-12-19T10:00:00Z,2020-12-17T12:00:00Z,Rio_Tijuca,-22.9249,-43.2327,1005.4892,298.4392,0.0508,0.3419,-0.5074,15.6521,42.4294,28.4268,56.7055,77.1442,,36.1128,
2020-12-19T11:00:00Z,2020-12-17T12:00:00Z,Rio_Tijuca,-22.9249,-43.2327,1005.5626,299.4770,0.1350,-0.2530,-0.0446,27.2206,49.4720,24.1132,52.2809,59.4669,,29.7384,
2020-12-19T12:00:00Z,2020-12-17T12:00:00Z,Rio_Tijuca,-22.9249,-43.2327,1005.7515,300.5081,0.0860,-0.6297,0.5688,39.1380,63.5422,20.8824,51.9279,50.1678,,25.7800,
2020-12-19T13:00:00Z,2020-12-17T12:00:00Z,Rio_Tijuca,-22.9249,-43.2327,1005.3903,301.1172,0.2177,-0.9622,1.5615,54.3037,74.9089,17.1232,44.7338,44.1763,,23.7429,
2020-12-19T14:00:00Z,2020-12-17T12:00:00Z,Rio_Tijuca,-22.9249,-43.2327,1004.8963,301.3643,1.3970,-1.5529,2.3219,70.5920,70.1085,12.4967,41.2228,39.6721,,22.5213,
2020-12-19T15:00:00Z,2020-12-17T12:00:00Z,Rio_Tijuca,-22.9249,-43.2327,1004.2728,301.2870,1.4715,-2.0047,2.8278,85.5756,54.6899,8.1716,34.8620,36.5523,,21.1249,
2020-12-19T16:00:00Z,2020-12-17T12:00:00Z,Rio_Tijuca,-22.9249,-43.2327,1003.4078,301.0189,2.1979,-2.4179,3.0438,95.6592,53.4444,5.1393,36.7214,33.2398,,19.4375,
2020-12-19T17:00:00Z,2020-12-17T12:00:00Z,Rio_Tijuca,-22.9249,-43.2327,1002.8193,300.6254,1.3616,-2.8864,2.7975,95.1678,47.5300,4.0889,36.8482,28.6463,,17.6046,
2020-12-19T18:00:00Z,2020-12-17T12:00:00Z,Rio_Tijuca,-22.9249,-43.2327,1002.5654,300.2409,0.8643,-3.2150,2.3410,88.9818,36.7204,4.1939,40.1552,24.3344,,16.4701,
2020-12-19T19:00:00Z,2020-12-17T12:00:00Z,Rio_Tijuca,-22.9249,-43.2327,1002.3304,299.7740,0.3497,-3.3082,2.0183,84.3805,38.8428,5.1147,40.0836,21.2105,,16.8199,
2020-12-19T20:00:00Z,2020-12-17T12:00:00Z,Rio_Tijuca,-22.9249,-43.2327,1002.6955,299.2478,0.2324,-3.0115,1.7255,76.2276,43.5370,8.6055,41.2648,19.9298,,19.2067,
2020-12-19T21:00:00Z,2020-12-17T12:00:00Z,Rio_Tijuca,-22.9249,-43.2327,1003.2758,298.4492,0.3553,-2.3062,1.1795,70.7147,30.2261,9.8108,37.2949,17.2731,,24.5331,
2020-12-19T22:00:00Z,2020-12-17T12:00:00Z,Rio_Tijuca,-22.9249,-43.2327,1003.8404,298.1141,1.1399,-2.1420,0.7683,66.8736,31.5031,9.7053,33.4891,15.0077,,29.7136,
2020-12-19T23:00:00Z,2020-12-17T12:00:00Z,Rio_Tijuca,-22.9249,-43.2327,1004.6899,298.0614,3.0622,-1.6104,0.6360,58.8999,43.1145,14.7628,37.5676,18.0542,,34.8939,
2020-12-20T00:00:00Z,2020-12-17T12:00:00Z,Rio_Tijuca,-22.9249,-43.2327,1004.9261,298.0205,15.0949,-1.0159,0.4143,40.1122,24.1245,30.0252,42.1174,31.4594,,41.1220,
2020-12-20T01:00:00Z,2020-12-17T12:00:00Z,Rio_Tijuca,-22.9249,-43.2327,1004.5950,297.8390,5.1409,-0.6509,0.3698,31.5094,25.2037,35.6276,42.3312,50.1773,,48.5723,
2020-12-20T02:00:00Z,2020-12-17T12:00:00Z,Rio_Tijuca,-22.9249,-43.2327,1004.1597,297.5582,0.2328,-0.5187,0.0206,22.3116,28.7444,40.7535,49.2685,77.6666,,56.7211,
2020-12-20T03:00:00Z,2020-12-17T12:00:00Z,Rio_Tijuca,-22.9249,-43.2327,1003.9119,297.3114,0.7274,-0.0565,-0.9427,11.6445,25.2217,47.5735,27.0117,125.7818,,68.4789,
2020-12-20T04:00:00Z,2020-12-17T12:00:00Z,Rio_Tijuca,-22.9249,-43.2327,1003.7219,297.0871,0.4815,1.0458,-1.3658,4.3284,25.9837,49.5044,33.8922,174.8910,,78.8397,
2020-12-20T05:00:00Z,2020-12-17T12:00:00Z,Rio_Tijuca,-22.9249,-43.2327,1002.9978,297.1854,0.1122,1.2143,-1.2340,0.9162,21.2222,46.1374,47.8423,199.3881,,87.8031,
2020-12-20T06:00:00Z,2020-12-17T12:00:00Z,Rio_Tijuca,-22.9249,-43.2327,1002.4982,297.4286,0.0110,0.2099,-1.4540,0.0434,25.6564,46.9994,47.5519,191.8838,,92.8084,
2020-12-20T07:00:00Z,2020-12-17T12:00:00Z,Rio_Tijuca,-22.9249,-43.2327,1002.5477,297.6989,0.0001,-0.7528,-1.5620,0.0782,26.5294,50.7548,57.0030,164.1296,,90.1298,
2020-12-20T08:00:00Z,2020-12-17T12:00:00Z,Rio_Tijuca,-22.9249,-43.2327,1003.3019,298.0543,0.0123,-1.2921,-1.3951,5.1685,38.2831,50.8950,60.5095,132.8780,,81.3979,
2020-12-20T09:00:00Z,2020-12-17T12:00:00Z,Rio_Tijuca,-22.9249,-43.2327,1003.9557,298.9107,0.2482,-1.7694,-1.4504,27.9341,39.7306,33.3681,59.3162,81.7524,,62.7710,
2020-12-20T10:00:00Z,2020-12-17T12:00:00Z,Rio_Tijuca,-22.9249,-43.2327,1004.3452,300.0257,1.2442,-1.7959,-1.5060,52.3636,78.3473,14.6073,55.4343,31.5023,,39.7790,
2020-12-20T11:00:00Z,2020-12-17T12:00:00Z,Rio_Tijuca,-22.9249,-43.2327,1004.9568,301.4405,5.0515,-1.6575,-1.3971,67.8897,94.5797,8.9782,51.7443,21.6599,,25.9544,
2020-12-20T12:00:00Z,2020-12-17T12:00:00Z,Rio_Tijuca,-22.9249,-43.2327,1004.7096,302.7293,4.0010,-1.8323,-1.4323,86.6548,97.5963,6.0788,53.0445,18.7213,,19.8138,
2020-12-20T13:00:00Z,2020-12-17T12:00:00Z,Rio_Tijuca,-22.9249,-43.2327,1004.0254,303.9141,3.3453,-1.9997,-1.5221,104.5755,113.4824,4.1027,42.5601,18.2488,,17.1955,
2020-12-20T14:00:00Z,2020-12-17T12:00:00Z,Rio_Tijuca,-22.9249,-43.2327,1003.2007,304.8812,3.2224,-1.8659,-1.2333,116.3210,115.3205,3.0400,41.7296,18.5615,,16.1777,
2020-12-20T15:00:00Z,2020-12-17T12:00:00Z,Rio_Tijuca,-22.9249,-43.2327,1002.5193,305.4113,1.9372,-1.8531,-0.3904,123.9822,117.4338,2.7650,41.7135,19.3083,,16.1492,
2020-12-20T16:00:00Z,2020-12-17T12:00:00Z,Rio_Tijuca,-22.9249,-43.2327,1001.9079,305.4268,1.0654,-2.3767,0.4566,128.9709,81.9255,3.1462,47.3101,20.5555,,16.9064,
2020-12-20T17:00:00Z,2020-12-17T12:00:00Z,Rio_Tijuca,-22.9249,-43.2327,1001.3622,305.1575,1.0058,-3.1510,0.6460,130.9993,63.1449,3.9959,52.6353,21.4907,,18.5080,
2020-12-20T18:00:00Z,2020-12-17T12:00:00Z,Rio_Tijuca,-22.9249,-43.2327,1001.1664,304.8825,0.6612,-3.4088,0.3628,131.7539,71.2745,3.3841,48.9202,20.2736,,20.0513,
2020-12-20T19:00:00Z,2020-12-17T12:00:00Z,Rio_Tijuca,-22.9249,-43.2327,1001.5098,304.5237,0.7926,-3.3288,0.2196,125.9865,71.9188,4.3027,54.6174,19.5268,,22.0020,
2020-12-20T20:00:00Z,2020-12-17T12:00:00Z,Rio_Tijuca,-22.9249,-43.2327,1001.7989,303.6152,0.8056,-3.3258,0.2271,112.8730,43.2530,7.4381,51.5102,19.8114,,25.7563,
2020-12-20T21:00:00Z,2020-12-17T12:00:00Z,Rio_Tijuca,-22.9249,-43.2327,1002.2277,301.9780,0.5253,-3.4191,0.2108,101.8233,36.3970,7.3614,37.3204,17.6884,,33.0911,
2020-12-20T22:00:00Z,2020-12-17T12:00:00Z,Rio_Tijuca,-22.9249,-43.2327,1002.2805,301.1072,0.1201,-3.4800,-0.2230,92.5037,20.0482,7.6242,44.3455,17.2876,,38.9131,
2020-12-20T23:00:00Z,2020-12-17T12:00:00Z,Rio_Tijuca,-22.9249,-43.2327,1002.5599,300.8770,0.0436,-3.2011,-0.7093,87.7855,10.3481,7.4847,50.9693,17.3276,,41.8823,
2020-12-21T00:00:00Z,2020-12-17T12:00:00Z,Rio_Tijuca,-22.9249,-43.2327,1003.1278,301.0995,0.0901,-2.4834,-1.2486,83.5161,39.4676,7.4029,44.2484,16.9879,,41.8824,
2020-12-21T01:00:00Z,2020-12-17T12:00:00Z,Rio_Tijuca,-22.9249,-43.2327,1003.3580,301.3709,0.1297,-1.6081,-1.5325,78.7612,38.7621,7.5990,49.0900,16.3992,,41.9978,
2020-12-21T02:00:00Z,2020-12-17T12:00:00Z,Rio_Tijuca,-22.9249,-43.2327,1003.3625,301.3231,0.4042,-1.1025,-1.8678,74.8577,34.9344,7.8281,42.4119,15.4829,,42.1142,
2020-12-21T03:00:00Z,2020-12-17T12:00:00Z,Rio_Tijuca,-22.9249,-43.2327,1002.4523,301.0233,0.1348,-1.2344,-2.0593,72.4025,32.3399,7.7752,34.6165,14.3282,,40.6589,
2020-12-21T04:00:00Z,2020-12-17T12:00:00Z,Rio_Tijuca,-22.9249,-43.2327,1002.3474,300.6183,0.0576,-1.3988,-1.9489,70.9241,30.8118,7.0198,37.5026,13.1589,,37.8650,
2020-12-21T05:00:00Z,2020-12-17T12:00:00Z,Rio_Tijuca,-22.9249,-43.2327,1001.9404,300.0331,0.0013,-1.5253,-2.0563,60.2606,43.8656,14.8946,36.7772,19.5078,,35.3622,
2020-12-21T06:00:00Z,2020-12-17T12:00:00Z,Rio_Tijuca,-22.9249,-43.2327,1002.0485,299.5445,0.0000,-1.5722,-2.1442,37.9953,44.8508,32.6956,33.9987,34.2941,,33.1499,
2020-12-21T07:00:00Z,2020-12-17T12:00:00Z,Rio_Tijuca,-22.9249,-43.2327,1002.7916,299.1557,0.0000,-1.5095,-2.3083,23.5421,24.4611,45.0685,45.4684,46.4843,,31.9851,
2020-12-21T08:00:00Z,2020-12-17T12:00:00Z,Rio_Tijuca,-22.9249,-43.2327,1003.5606,299.0501,0.0000,-1.1986,-2.4008,22.9201,23.6721,45.7134,51.3099,52.9845,,31.8097,
2020-12-21T09:00:00Z,2020-12-17T12:00:00Z,Rio_Tijuca,-22.9249,-43.2327,1004.2423,299.5661,0.0000,-1.0064,-3.0052,31.0351,47.3080,37.8928,54.7250,56.2916,,31.7506,
2020-12-21T10:00:00Z,2020-12-17T12:00:00Z,Rio_Tijuca,-22.9249,-43.2327,1004.3254,300.4641,0.0015,-0.8996,-3.3840,48.4672,69.2399,25.6460,48.0312,41.2278,,25.9001,
2020-12-21T11:00:00Z,2020-12-17T12:00:00Z,Rio_Tijuca,-22.9249,-43.2327,1004.3275,302.0141,0.0190,-0.5442,-3.4315,77.2167,104.7814,11.2580,52.8440,21.2264,,18.5948,
2020-12-21T12:00:00Z,2020-12-17T12:00:00Z,Rio_Tijuca,-22.9249,-43.2327,1004.2518,303.5403,0.2477,-0.0964,-3.1873,98.7244,143.2421,6.7124,51.3624,16.6871,,14.8399,
2020-12-21T13:00:00Z,2020-12-17T12:00:00Z,Rio_Tijuca,-22.9249,-43.2327,1003.9651,304.9096,1.4380,0.2003,-2.7738,114.4072,124.0250,5.4874,47.0304,17.8673,,13.2249,
2020-12-21T14:00:00Z,2020-12-17T12:00:00Z,Rio_Tijuca,-22.9249,-43.2327,1003.5760,305.9896,2.8610,0.4273,-1.9419,128.5072,118.6602,4.8784,49.8044,20.3940,,12.8035,
2020-12-21T15:00:00Z,2020-12-17T12:00:00Z,Rio_Tijuca,-22.9249,-43.2327,1003.2717,306.5374,5.9456,0.7562,-0.2617,142.3163,120.8677,5.2766,56.4535,24.4488,,13.3719,
2020-12-21T16:00:00Z,2020-12-17T12:00:00Z,Rio_Tijuca,-22.9249,-43.2327,1002.8277,305.5413,10.3712,1.4206,2.4990,154.4080,126.7962,5.0933,47.9587,28.4745,,16.7627,
2020-12-21T17:00:00Z,2020-12-17T12:00:00Z,Rio_Tijuca,-22.9249,-43.2327,1003.2475,303.0290,7.6443,2.2168,4.6910,150.4132,97.1657,4.8578,39.1238,31.0387,,24.1551,
2020-12-21T18:00:00Z,2020-12-17T12:00:00Z,Rio_Tijuca,-22.9249,-43.2327,1003.9719,301.0726,3.9861,2.8151,4.8042,124.6064,80.0012,6.6983,35.6543,33.2011,,29.6566,
2020-12-21T19:00:00Z,2020-12-17T12:00:00Z,Rio_Tijuca,-22.9249,-43.2327,1004.5784,300.2450,17.2853,2.8142,3.9106,95.4555,65.5805,8.4448,23.8546,29.5219,,29.9485,
2020-12-21T20:00:00Z,2020-12-17T12:00:00Z,Rio_Tijuca,-22.9249,-43.2327,1005.2012,299.7324,22.3815,2.3668,2.8290,72.6883,43.4030,11.6100,31.4238,25.1276,,31.3460,
2020-12-21T21:00:00Z,2020-12-17T12:00:00Z,Rio_Tijuca,-22.9249,-43.2327,1005.2399,299.2128,11.5037,1.2314,1.3701,52.5526,28.0250,18.3655,29.6538,26.6996,,36.0610,
2020-12-21T22:00:00Z,2020-12-17T12:00:00Z,Rio_Tijuca,-22.9249,-43.2327,1004.7986,298.9139,13.5303,1.0793,1.1654,42.4723,24.3612,21.4339,21.3244,28.7060,,38.3314,
2020-12-21T23:00:00Z,2020-12-17T12:00:00Z,Rio_Tijuca,-22.9249,-43.2327,1005.7596,298.7716,15.7356,1.7497,0.5950,28.4780,25.1293,28.8905,13.8425,36.1149,,51.0213,
2020-12-22T00:00:00Z,2020-12-17T12:00:00Z,Rio_Tijuca,-22.9249,-43.2327,1007.2696,298.6970,75.1019,2.0130,0.1918,15.5246,29.7303,36.8144,21.5453,53.4948,,67.0878,
2020-12-22T01:00:00Z,2020-12-17T12:00:00Z,Rio_Tijuca,-22.9249,-43.2327,1007.7969,298.5827,64.0154,2.0789,0.3147,12.7740,30.2991,37.7173,16.2277,62.8103,,71.2800,
2020-12-22T02:00:00Z,2020-12-17T12:00:00Z,Rio_Tijuca,-22.9249,-43.2327,1006.5367,298.3478,10.4010,2.0923,0.0937,11.3085,28.7428,36.1245,20.0172,73.9397,,68.8361,
2020-12-22T03:00:00Z,2020-12-17T12:00:00Z,Rio_Tijuca,-22.9249,-43.2327,1005.6332,298.2467,9.0003,1.9936,-0.6353,9.7161,15.5374,34.0955,24.7262,107.8151,,76.4043,
2020-12-22T04:00:00Z,2020-12-17T12:00:00Z,Rio_Tijuca,-22.9249,-43.2327,1005.1508,298.2067,25.1830,1.8448,-1.1456,3.5901,10.6064,35.0607,32.2761,151.4362,,85.8338,
2020-12-22T05:00:00Z,2020-12-17T12:00:00Z,Rio_Tijuca,-22.9249,-43.2327,1004.7552,298.1952,41.9617,2.0041,-0.6168,0.8690,8.5661,31.5217,45.5661,179.1875,,91.4217,
2020-12-22T06:00:00Z,2020-12-17T12:00:00Z,Rio_Tijuca,-22.9249,-43.2327,1004.3929,298.1707,13.0087,2.1355,-0.0217,3.6789,14.1860,24.4076,32.9922,193.4320,,99.9197,
2020-12-22T07:00:00Z,2020-12-17T12:00:00Z,Rio_Tijuca,-22.9249,-43.2327,1004.6541,298.1346,23.0968,2.3102,0.5414,8.4363,19.4301,19.0995,28.5954,191.9389,,110.3968,
2020-12-22T08:00:00Z,2020-12-17T12:00:00Z,Rio_Tijuca,-22.9249,-43.2327,1006.0339,298.2780,55.8496,3.0301,0.8825,12.9631,37.9698,18.7364,24.2724,151.4250,,116.4511,
2020-12-22T09:00:00Z,2020-12-17T12:00:00Z,Rio_Tijuca,-22.9249,-43.2327,1006.7458,298.5984,57.5185,3.5766,1.1037,16.9945,45.4828,22.1225,36.4874,78.5547,,110.7456,
2020-12-22T10:00:00Z,2020-12-17T12:00:00Z,Rio_Tijuca,-22.9249,-43.2327,1006.9755,298.7961,79.3934,3.6070,1.5496,27.3493,37.1686,16.6322,24.4223,27.2401,,102.1308,
2020-12-22T11:00:00Z,2020-12-17T12:00:00Z,Rio_Tijuca,-22.9249,-43.2327,1007.2952,298.9438,114.3217,3.9648,2.1488,34.3080,37.5181,11.2581,29.8433,17.9741,,82.9232,
2020-12-17T12:00:00Z,2020-12-17T12:00:00Z,Rio_Centro,-22.9083,-43.1782,1010.4411,299.0352,81.8968,-2.2785,-1.0976,61.4287,33.2856,11.4666,,20.2290,,17.5528,
2020-12-17T13:00:00Z,2020-12-17T12:00:00Z,Rio_Centro,-22.9083,-43.1782,1010.2556,299.6242,43.1538,-2.1037,-1.2055,67.6416,40.4873,9.2024,,18.5116,,18.1128,
2020-12-17T14:00:00Z,2020-12-17T12:00:00Z,Rio_Centro,-22.9083,-43.1782,1009.5355,300.3473,24.1101,-2.5777,-1.6273,78.3867,55.9006,6.9683,,17.5158,,18.3275,
2020-12-17T15:00:00Z,2020-12-17T12:00:00Z,Rio_Centro,-22.9083,-43.1782,1008.6736,301.1142,23.5140,-2.9585,-1.9576,89.4894,77.7279,4.8680,,15.8221,,18.1817,
2020-12-17T16:00:00Z,2020-12-17T12:00:00Z,Rio_Centro,-22.9083,-43.1782,1008.3804,301.6501,24.9743,-2.6436,-1.8172,93.9101,52.9301,5.3289,,16.3578,,17.9548,
2020-12-17T17:00:00Z,2020-12-17T12:00:00Z,Rio_Centro,-22.9083,-43.1782,1007.3835,302.0484,34.9879,-2.3245,-1.0143,97.0558,42.2314,6.0685,,17.3263,,18.4186,
2020-12-17T18:00:00Z,2020-12-17T12:00:00Z,Rio_Centro,-22.9083,-43.1782,1006.1525,301.9055,21.3981,-2.3506,-0.0081,95.6392,25.1350,6.4462,,17.2945,,18.9119,
2020-12-17T19:00:00Z,2020-12-17T12:00:00Z,Rio_Centro,-22.9083,-43.1782,1006.1330,301.6000,124.2161,-1.3255,-0.3877,88.3356,14.6220,8.4334,,17.8264,,19.6673,
2020-12-17T20:00:00Z,2020-12-17T12:00:00Z,Rio_Centro,-22.9083,-43.1782,1006.3622,300.9193,79.2742,-0.6512,-1.1261,81.4756,14.3602,11.3488,,19.2027,,24.2957,
2020-12-17T21:00:00Z,2020-12-17T12:00:00Z,Rio_Centro,-22.9083,-43.1782,1005.7570,300.3101,10.8331,-0.1881,-1.4603,83.1673,19.8590,11.8368,,17.2737,,27.5565,
2020-12-17T22:00:00Z,2020-12-17T12:00:00Z,Rio_Centro,-22.9083,-43.1782,1005.0392,299.7915,1.8515,-1.0420,-1.1632,78.2949,13.9546,14.0350,,17.7783,,31.1074,
2020-12-17T23:00:00Z,2020-12-17T12:00:00Z,Rio_Centro,-22.9083,-43.1782,1005.7976,299.5102,1.3132,-1.6936,-0.1620,70.7541,1.6430,15.7891,,18.7480,,35.2407,
2020-12-18T00:00:00Z,2020-12-17T12:00:00Z,Rio_Centro,-22.9083,-43.1782,1006.9063,299.0564,5.2899,-2.0448,-0.4293,68.3374,12.1105,14.1227,,17.6868,,39.4961,
2020-12-18T01:00:00Z,2020-12-17T12:00:00Z,Rio_Centro,-22.9083,-43.1782,1007.1828,298.8539,11.2057,-1.8199,-0.7388,65.0050,14.1873,14.2447,,17.6862,,42.5338,
2020-12-18T02:00:00Z,2020-12-17T12:00:00Z,Rio_Centro,-22.9083,-43.1782,1007.1287,298.7623,25.0041,-1.6383,-0.5772,61.3965,15.5967,14.8454,,18.1868,,44.3911,
2020-12-18T03:00:00Z,2020-12-17T12:00:00Z,Rio_Centro,-22.9083,-43.1782,1006.5793,298.4174,57.7569,-1.2374,-0.9712,55.9933,17.8089,17.5972,,21.1587,,47.3594,
2020-12-18T04:00:00Z,2020-12-17T12:00:00Z,Rio_Centro,-22.9083,-43.1782,1007.1194,297.8841,62.7041,0.3778,-2.1006,46.9212,17.5892,24.0347,,26.3802,,52.1402,
2020-12-18T05:00:00Z,2020-12-17T12:00:00Z,Rio_Centro,-22.9083,-43.1782,1006.3023,297.8747,6.8471,-0.0571,-1.9592,39.7327,11.7856,29.4283,,31.6976,,49.3473,
2020-12-18T06:00:00Z,2020-12-17T12:00:00Z,Rio_Centro,-22.9083,-43.1782,1005.4800,297.8462,0.5048,-0.7398,-1.7318,39.9876,9.2053,30.5486,,35.2301,,46.6684,
2020-12-18T07:00:00Z,2020-12-17T12:00:00Z,Rio_Centro,-22.9083,-43.1782,1005.0374,297.5293,0.1525,-1.2392,-1.9109,33.0317,8.2670,37.0946,,45.1069,,45.5580,
2020-12-18T08:00:00Z,2020-12-17T12:00:00Z,Rio_Centro,-22.9083,-43.1782,1005.2112,297.3173,0.0221,-1.0231,-1.6306,23.6312,18.9021,43.0068,,57.4844,,45.2639,
2020-12-18T09:00:00Z,2020-12-17T12:00:00Z,Rio_Centro,-22.9083,-43.1782,1005.6022,297.5996,0.3036,-0.4031,-1.0998,23.5612,27.1428,41.2417,,69.5458,,45.4360,
2020-12-18T10:00:00Z,2020-12-17T12:00:00Z,Rio_Centro,-22.9083,-43.1782,1006.1088,298.6032,0.4498,0.5319,-0.5046,35.9484,46.8616,30.0562,,53.8562,,36.5852,
2020-12-18T11:00:00Z,2020-12-17T12:00:00Z,Rio_Centro,-22.9083,-43.1782,1006.1375,299.7493,1.1865,1.1128,0.1283,48.1629,52.2491,23.4835,,40.6632,,30.8794,
2020-12-18T12:00:00Z,2020-12-17T12:00:00Z,Rio_Centro,-22.9083,-43.1782,1006.1415,300.5826,2.9467,1.5928,0.9548,60.5150,62.1439,20.4272,,40.7221,,29.0169,
2020-12-18T13:00:00Z,2020-12-17T12:00:00Z,Rio_Centro,-22.9083,-43.1782,1006.4188,300.7150,13.3067,1.8892,2.1564,75.3501,43.1026,17.3791,,41.7192,,29.8889,
2020-12-18T14:00:00Z,2020-12-17T12:00:00Z,Rio_Centro,-22.9083,-43.1782,1006.5909,300.3539,18.2986,1.8520,3.4009,90.7695,52.3210,12.1417,,40.8351,,32.0422,
2020-12-18T15:00:00Z,2020-12-17T12:00:00Z,Rio_Centro,-22.9083,-43.1782,1006.4839,300.1030,30.6964,1.8159,4.0719,95.7945,45.5920,8.2759,,34.5189,,30.2948,
2020-12-18T16:00:00Z,2020-12-17T12:00:00Z,Rio_Centro,-22.9083,-43.1782,1006.3129,299.8163,34.1535,1.3751,4.1641,87.7491,37.0776,6.2625,,26.9870,,26.0453,
2020-12-18T17:00:00Z,2020-12-17T12:00:00Z,Rio_Centro,-22.9083,-43.1782,1006.1326,299.5266,29.1169,1.0582,4.0652,75.2889,31.5659,5.7130,,19.9565,,20.6618,
2020-12-18T18:00:00Z,2020-12-17T12:00:00Z,Rio_Centro,-22.9083,-43.1782,1005.6473,299.1682,23.6034,0.7831,3.9464,64.4988,24.4621,5.9336,,14.8180,,16.4132,
2020-12-18T19:00:00Z,2020-12-17T12:00:00Z,Rio_Centro,-22.9083,-43.1782,1004.9237,298.8083,6.4820,-0.6466,3.6630,57.8058,31.1020,6.4374,,12.8840,,14.7975,
2020-12-18T20:00:00Z,2020-12-17T12:00:00Z,Rio_Centro,-22.9083,-43.1782,1003.4805,298.4230,10.3861,-1.7255,3.4632,51.8085,29.5797,8.7578,,13.6073,,15.3936,
2020-12-18T21:00:00Z,2020-12-17T12:00:00Z,Rio_Centro,-22.9083,-43.1782,1005.9799,298.0771,63.5386,-0.0909,1.6853,39.5796,23.2908,17.5524,,18.9697,,17.1106,
2020-12-18T22:00:00Z,2020-12-17T12:00:00Z,Rio_Centro,-22.9083,-43.1782,1006.2772,297.8795,301.3611,0.0728,1.4787,30.3091,19.2506,23.8789,,26.6577,,19.2356,
2020-12-18T23:00:00Z,2020-12-17T12:00:00Z,Rio_Centro,-22.9083,-43.1782,1006.3162,297.8168,30.6964,0.6141,0.6381,23.3336,12.4887,28.0199,,34.5935,,22.1466,
2020-12-19T00:00:00Z,2020-12-17T12:00:00Z,Rio_Centro,-22.9083,-43.1782,1007.0576,297.6454,8.0019,1.5288,0.3028,15.4909,16.0228,32.1970,,50.0277,,28.7538,
2020-12-19T01:00:00Z,2020-12-17T12:00:00Z,Rio_Centro,-22.9083,-43.1782,1007.1799,297.4697,0.8177,1.4694,1.0474,13.2407,14.4598,31.0206,,63.7752,,34.3127,
2020-12-19T02:00:00Z,2020-12-17T12:00:00Z,Rio_Centro,-22.9083,-43.1782,1006.8077,297.4630,3.2298,1.2306,0.5689,12.7385,12.6436,29.3204,,75.7746,,38.9114,
2020-12-19T03:00:00Z,2020-12-17T12:00:00Z,Rio_Centro,-22.9083,-43.1782,1005.6781,297.3939,2.5891,0.7457,0.0788,12.4715,11.0684,26.7623,,87.6503,,43.6844,
2020-12-19T04:00:00Z,2020-12-17T12:00:00Z,Rio_Centro,-22.9083,-43.1782,1004.7576,297.2512,5.2378,0.4642,-0.4643,11.5005,14.6632,25.4172,,98.1494,,47.5256,
2020-12-19T05:00:00Z,2020-12-17T12:00:00Z,Rio_Centro,-22.9083,-43.1782,1004.3026,297.1183,3.5949,0.9080,-0.3538,10.3504,9.4284,24.4646,,111.7711,,51.5990,
2020-12-19T06:00:00Z,2020-12-17T12:00:00Z,Rio_Centro,-22.9083,-43.1782,1004.4196,296.9506,0.7898,1.4384,-0.3160,8.1411,7.1208,23.6916,,142.6422,,59.0485,
2020-12-19T07:00:00Z,2020-12-17T12:00:00Z,Rio_Centro,-22.9083,-43.1782,1004.4919,296.8175,0.4005,1.5837,0.0601,6.7806,16.1313,22.0692,,168.8899,,65.8002,
2020-12-19T08:00:00Z,2020-12-17T12:00:00Z,Rio_Centro,-22.9083,-43.1782,1004.5735,296.8408,0.2850,1.2848,0.0692,6.8162,19.0611,20.8705,,179.3893,,67.7798,
2020-12-19T09:00:00Z,2020-12-17T12:00:00Z,Rio_Centro,-22.9083,-43.1782,1004.9453,297.3964,0.0151,0.9052,-0.2814,8.6015,29.4381,26.0353,,127.5152,,52.2372,
2020-12-19T10:00:00Z,2020-12-17T12:00:00Z,Rio_Centro,-22.9083,-43.1782,1005.4892,298.4392,0.0508,0.3419,-0.5074,15.6521,22.3395,28.4268,,77.1442,,36.1128,
2020-12-19T11:00:00Z,2020-12-17T12:00:00Z,Rio_Centro,-22.9083,-43.1782,1005.5626,299.4770,0.1350,-0.2530,-0.0446,27.2206,38.6314,24.1132,,59.4669,,29.7384,
2020-12-19T12:00:00Z,2020-12-17T12:00:00Z,Rio_Centro,-22.9083,-43.1782,1005.7515,300.5081,0.0860,-0.6297,0.5688,39.1380,62.6895,20.8824,,50.1678,,25.7800,
2020-12-19T13:00:00Z,2020-12-17T12:00:00Z,Rio_Centro,-22.9083,-43.1782,1005.3903,301.1172,0.2177,-0.9622,1.5615,54.3037,62.5981,17.1232,,44.1763,,23.7429,
2020-12-19T14:00:00Z,2020-12-17T12:00:00Z,Rio_Centro,-22.9083,-43.1782,1004.8963,301.3643,1.3970,-1.5529,2.3219,70.5920,101.4373,12.4967,,39.6721,,22.5213,
2020-12-19T15:00:00Z,2020-12-17T12:00:00Z,Rio_Centro,-22.9083,-43.1782,1004.2728,301.2870,1.4715,-2.0047,2.8278,85.5756,58.4906,8.1716,,36.5523,,21.1249,
2020-12-19T16:00:00Z,2020-12-17T12:00:00Z,Rio_Centro,-22.9083,-43.1782,1003.4078,301.0189,2.1979,-2.4179,3.0438,95.6592,59.7703,5.1393,,33.2398,,19.4375,
2020-12-19T17:00:00Z,2020-12-17T12:00:00Z,Rio_Centro,-22.9083,-43.1782,1002.8193,300.6254,1.3616,-2.8864,2.7975,95.1678,53.8143,4.0889,,28.6463,,17.6046,
2020-12-19T18:00:00Z,2020-12-17T12:00:00Z,Rio_Centro,-22.9083,-43.1782,1002.5654,300.2409,0.8643,-3.2150,2.3410,88.9818,48.5381,4.1939,,24.3344,,16.4701,
2020-12-19T19:00:00Z,2020-12-17T12:00:00Z,Rio_Centro,-22.9083,-43.1782,1002.3304,299.7740,0.3497,-3.3082,2.0183,84.3805,61.1265,5.1147,,21.2105,,16.8199,
2020-12-19T20:00:00Z,2020-12-17T12:00:00Z,Rio_Centro,-22.9083,-43.1782,1002.6955,299.2478,0.2324,-3.0115,1.7255,76.2276,34.8325,8.6055,,19.9298,,19.2067,
2020-12-19T21:00:00Z,2020-12-17T12:00:00Z,Rio_Centro,-22.9083,-43.1782,1003.2758,298.4492,0.3553,-2.3062,1.1795,70.7147,30.7607,9.8108,,17.2731,,24.5331,
2020-12-19T22:00:00Z,2020-12-17T12:00:00Z,Rio_Centro,-22.9083,-43.1782,1003.8404,298.1141,1.1399,-2.1420,0.7683,66.8736,42.7434,9.7053,,15.0077,,29.7136,
2020-12-19T23:00:00Z,2020-12-17T12:00:00Z,Rio_Centro,-22.9083,-43.1782,1004.6899,298.0614,3.0622,-1.6104,0.6360,58.8999,25.9674,14.7628,,18.0542,,34.8939,
2020-12-20T00:00:00Z,2020-12-17T12:00:00Z,Rio_Centro,-22.9083,-43.1782,1004.9261,298.0205,15.0949,-1.0159,0.4143,40.1122,26.3208,30.0252,,31.4594,,41.1220,
2020-12-20T01:00:00Z,2020-12-17T12:00:00Z,Rio_Centro,-22.9083,-43.1782,1004.5950,297.8390,5.1409,-0.6509,0.3698,31.5094,19.1854,35.6276,,50.1773,,48.5723,
2020-12-20T02:00:00Z,2020-12-17T12:00:00Z,Rio_Centro,-22.9083,-43.1782,1004.1597,297.5582,0.2328,-0.5187,0.0206,22.3116,19.7541,40.7535,,77.6666,,56.7211,
2020-12-20T03:00:00Z,2020-12-17T12:00:00Z,Rio_Centro,-22.9083,-43.1782,1003.9119,297.3114,0.7274,-0.0565,-0.9427,11.6445,17.5161,47.5735,,125.7818,,68.4789,
2020-12-20T04:00:00Z,2020-12-17T12:00:00Z,Rio_Centro,-22.9083,-43.1782,1003.7219,297.0871,0.4815,1.0458,-1.3658,4.3284,15.5360,49.5044,,174.8910,,78.8397,
2020-12-20T05:00:00Z,2020-12-17T12:00:00Z,Rio_Centro,-22.9083,-43.1782,1002.9978,297.1854,0.1122,1.2143,-1.2340,0.9162,10.5683,46.1374,,199.3881,,87.8031,
2020-12-20T06:00:00Z,2020-12-17T12:00:00Z,Rio_Centro,-22.9083,-43.1782,1002.4982,297.4286,0.0110,0.2099,-1.4540,0.0434,11.3834,46.9994,,191.8838,,92.8084,
2020-12-20T07:00:00Z,2020-12-17T12:00:00Z,Rio_Centro,-22.9083,-43.1782,1002.5477,297.6989,0.0001,-0.7528,-1.5620,0.0782,15.4488,50.7548,,164.1296,,90.1298,
2020-12-20T08:00:00Z,2020-12-17T12:00:00Z,Rio_Centro,-22.9083,-43.1782,1003.3019,298.0543,0.0123,-1.2921,-1.3951,5.1685,24.1219,50.8950,,132.8780,,81.3979,
2020-12-20T09:00:00Z,2020-12-17T12:00:00Z,Rio_Centro,-22.9083,-43.1782,1003.9557,298.9107,0.2482,-1.7694,-1.4504,27.9341,39.2682,33.3681,,81.7524,,62.7710,
2020-12-20T10:00:00Z,2020-12-17T12:00:00Z,Rio_Centro,-22.9083,-43.1782,1004.3452,300.0257,1.2442,-1.7959,-1.5060,52.3636,60.6084,14.6073,,31.5023,,39.7790,
2020-12-20T11:00:00Z,2020-12-17T12:00:00Z,Rio_Centro,-22.9083,-43.1782,1004.9568,301.4405,5.0515,-1.6575,-1.3971,67.8897,55.2602,8.9782,,21.6599,,25.9544,
2020-12-20T12:00:00Z,2020-12-17T12:00:00Z,Rio_Centro,-22.9083,-43.1782,1004.7096,302.7293,4.0010,-1.8323,-1.4323,86.6548,89.9578,6.0788,,18.7213,,19.8138,
2020-12-20T13:00:00Z,2020-12-17T12:00:00Z,Rio_Centro,-22.9083,-43.1782,1004.0254,303.9141,3.3453,-1.9997,-1.5221,104.5755,105.5512,4.1027,,18.2488,,17.1955,
2020-12-20T14:00:00Z,2020-12-17T12:00:00Z,Rio_Centro,-22.9083,-43.1782,1003.2007,304.8812,3.2224,-1.8659,-1.2333,116.3210,105.1335,3.0400,,18.5615,,16.1777,
2020-12-20T15:00:00Z,2020-12-17T12:00:00Z,Rio_Centro,-22.9083,-43.1782,1002.5193,305.4113,1.9372,-1.8531,-0.3904,123.9822,109.2753,2.7650,,19.3083,,16.1492,
2020-12-20T16:00:00Z,2020-12-17T12:00:00Z,Rio_Centro,-22.9083,-43.1782,1001.9079,305.4268,1.0654,-2.3767,0.4566,128.9709,82.1309,3.1462,,20.5555,,16.9064,
2020-12-20T17:00:00Z,2020-12-17T12:00:00Z,Rio_Centro,-22.9083,-43.1782,1001.3622,305.1575,1.0058,-3.1510,0.6460,130.9993,39.6710,3.9959,,21.4907,,18.5080,
2020-12-20T18:00:00Z,2020-12-17T12:00:00Z,Rio_Centro,-22.9083,-43.1782,1001.1664,304.8825,0.6612,-3.4088,0.3628,131.7539,43.0469,3.3841,,20.2736,,20.0513,
2020-12-20T19:00:00Z,2020-12-17T12:00:00Z,Rio_Centro,-22.9083,-43.1782,1001.5098,304.5237,0.7926,-3.3288,0.2196,125.9865,28.6685,4.3027,,19.5268,,22.0020,
2020-12-20T20:00:00Z,2020-12-17T12:00:00Z,Rio_Centro,-22.9083,-43.1782,1001.7989,303.6152,0.8056,-3.3258,0.2271,112.8730,23.9032,7.4381,,19.8114,,25.7563,
2020-12-20T21:00:00Z,2020-12-17T12:00:00Z,Rio_Centro,-22.9083,-43.1782,1002.2277,301.9780,0.5253,-3.4191,0.2108,101.8233,18.8846,7.3614,,17.6884,,33.0911,
2020-12-20T22:00:00Z,2020-12-17T12:00:00Z,Rio_Centro,-22.9083,-43.1782,1002.2805,301.1072,0.1201,-3.4800,-0.2230,92.5037,36.2770,7.6242,,17.2876,,38.9131,
2020-12-20T23:00:00Z,2020-12-17T12:00:00Z,Rio_Centro,-22.9083,-43.1782,1002.5599,300.8770,0.0436,-3.2011,-0.7093,87.7855,34.1860,7.4847,,17.3276,,41.8823,
2020-12-21T00:00:00Z,2020-12-17T12:00:00Z,Rio_Centro,-22.9083,-43.1782,1003.1278,301.0995,0.0901,-2.4834,-1.2486,83.5161,38.5177,7.4029,,16.9879,,41.8824,
2020-12-21T01:00:00Z,2020-12-17T12:00:00Z,Rio_Centro,-22.9083,-43.1782,1003.3580,301.3709,0.1297,-1.6081,-1.5325,78.7612,19.7954,7.5990,,16.3992,,41.9978,
2020-12-21T02:00:00Z,2020-12-17T12:00:00Z,Rio_Centro,-22.9083,-43.1782,1003.3625,301.3231,0.4042,-1.1025,-1.8678,74.8577,17.8195,7.8281,,15.4829,,42.1142,
2020-12-21T03:00:00Z,2020-12-17T12:00:00Z,Rio_Centro,-22.9083,-43.1782,1002.4523,301.0233,0.1348,-1.2344,-2.0593,72.4025,29.3604,7.7752,,14.3282,,40.6589,
2020-12-21T04:00:00Z,2020-12-17T12:00:00Z,Rio_Centro,-22.9083,-43.1782,1002.3474,300.6183,0.0576,-1.3988,-1.9489,70.9241,34.5642,7.0198,,13.1589,,37.8650,
2020-12-21T05:00:00Z,2020-12-17T12:00:00Z,Rio_Centro,-22.9083,-43.1782,1001.9404,300.0331,0.0013,-1.5253,-2.0563,60.2606,38.9069,14.8946,,19.5078,,35.3622,
2020-12-21T06:00:00Z,2020-12-17T12:00:00Z,Rio_Centro,-22.9083,-43.1782,1002.0485,299.5445,0.0000,-1.5722,-2.1442,37.9953,28.2899,32.6956,,34.2941,,33.1499,
2020-12-21T07:00:00Z,2020-12-17T12:00:00Z,Rio_Centro,-22.9083,-43.1782,1002.7916,299.1557,0.0000,-1.5095,-2.3083,23.5421,13.2474,45.0685,,46.4843,,31.9851,
2020-12-21T08:00:00Z,2020-12-17T12:00:00Z,Rio_Centro,-22.9083,-43.1782,1003.5606,299.0501,0.0000,-1.1986,-2.4008,22.9201,17.6293,45.7134,,52.9845,,31.8097,
2020-12-21T09:00:00Z,2020-12-17T12:00:00Z,Rio_Centro,-22.9083,-43.1782,1004.2423,299.5661,0.0000,-1.0064,-3.0052,31.0351,35.5986,37.8928,,56.2916,,31.7506,
2020-12-21T10:00:00Z,2020-12-17T12:00:00Z,Rio_Centro,-22.9083,-43.1782,1004.3254,300.4641,0.0015,-0.8996,-3.3840,48.4672,58.9348,25.6460,,41.2278,,25.9001,
2020-12-21T11:00:00Z,2020-12-17T12:00:00Z,Rio_Centro,-22.9083,-43.1782,1004.3275,302.0141,0.0190,-0.5442,-3.4315,77.2167,70.4663,11.2580,,21.2264,,18.5948,
2020-12-21T12:00:00Z,2020-12-17T12:00:00Z,Rio_Centro,-22.9083,-43.1782,1004.2518,303.5403,0.2477,-0.0964,-3.1873,98.7244,110.8995,6.7124,,16.6871,,14.8399,
2020-12-21T13:00:00Z,2020-12-17T12:00:00Z,Rio_Centro,-22.9083,-43.1782,1003.9651,304.9096,1.4380,0.2003,-2.7738,114.4072,99.0476,5.4874,,17.8673,,13.2249,
2020-12-21T14:00:00Z,2020-12-17T12:00:00Z,Rio_Centro,-22.9083,-43.1782,1003.5760,305.9896,2.8610,0.4273,-1.9419,128.5072,112.1635,4.8784,,20.3940,,12.8035,
2020-12-21T15:00:00Z,2020-12-17T12:00:00Z,Rio_Centro,-22.9083,-43.1782,1003.2717,306.5374,5.9456,0.7562,-0.2617,142.3163,111.9428,5.2766,,24.4488,,13.3719,
2020-12-21T16:00:00Z,2020-12-17T12:00:00Z,Rio_Centro,-22.9083,-43.1782,1002.8277,305.5413,10.3712,1.4206,2.4990,154.4080,101.2088,5.0933,,28.4745,,16.7627,
2020-12-21T17:00:00Z,2020-12-17T12:00:00Z,Rio_Centro,-22.9083,-43.1782,1003.2475,303.0290,7.6443,2.2168,4.6910,150.4132,79.7258,4.8578,,31.0387,,24.1551,
2020-12-21T18:00:00Z,2020-12-17T12:00:00Z,Rio_Centro,-22.9083,-43.1782,1003.9719,301.0726,3.9861,2.8151,4.8042,124.6064,72.8800,6.6983,,33.2011,,29.6566,
2020-12-21T19:00:00Z,2020-12-17T12:00:00Z,Rio_Centro,-22.9083,-43.1782,1004.5784,300.2450,17.2853,2.8142,3.9106,95.4555,58.6462,8.4448,,29.5219,,29.9485,
2020-12-21T20:00:00Z,2020-12-17T12:00:00Z,Rio_Centro,-22.9083,-43.1782,1005.2012,299.7324,22.3815,2.3668,2.8290,72.6883,43.3011,11.6100,,25.1276,,31.3460,
2020-12-21T21:00:00Z,2020-12-17T12:00:00Z,Rio_Centro,-22.9083,-43.1782,1005.2399,299.2128,11.5037,1.2314,1.3701,52.5526,33.1049,18.3655,,26.6996,,36.0610,
2020-12-21T22:00:00Z,2020-12-17T12:00:00Z,Rio_Centro,-22.9083,-43.1782,1004.7986,298.9139,13.5303,1.0793,1.1654,42.4723,34.2542,21.4339,,28.7060,,38.3314,
2020-12-21T23:00:00Z,2020-12-17T12:00:00Z,Rio_Centro,-22.9083,-43.1782,1005.7596,298.7716,15.7356,1.7497,0.5950,28.4780,31.6485,28.8905,,36.1149,,51.0213,
2020-12-22T00:00:00Z,2020-12-17T12:00:00Z,Rio_Centro,-22.9083,-43.1782,1007.2696,298.6970,75.1019,2.0130,0.1918,15.5246,16.3579,36.8144,,53.4948,,67.0878,
2020-12-22T01:00:00Z,2020-12-17T12:00:00Z,Rio_Centro,-22.9083,-43.1782,1007.7969,298.5827,64.0154,2.0789,0.3147,12.7740,12.5305,37.7173,,62.8103,,71.2800,
2020-12-22T02:00:00Z,2020-12-17T12:00:00Z,Rio_Centro,-22.9083,-43.1782,1006.5367,298.3478,10.4010,2.0923,0.0937,11.3085,29.6109,36.1245,,73.9397,,68.8361,
2020-12-22T03:00:00Z,2020-12-17T12:00:00Z,Rio_Centro,-22.9083,-43.1782,1005.6332,298.2467,9.0003,1.9936,-0.6353,9.7161,28.5740,34.0955,,107.8151,,76.4043,
2020-12-22T04:00:00Z,2020-12-17T12:00:00Z,Rio_Centro,-22.9083,-43.1782,1005.1508,298.2067,25.1830,1.8448,-1.1456,3.5901,38.4506,35.0607,,151.4362,,85.8338,
2020-12-22T05:00:00Z,2020-12-17T12:00:00Z,Rio_Centro,-22.9083,-43.1782,1004.7552,298.1952,41.9617,2.0041,-0.6168,0.8690,32.5484,31.5217,,179.1875,,91.4217,
2020-12-22T06:00:00Z,2020-12-17T12:00:00Z,Rio_Centro,-22.9083,-43.1782,1004.3929,298.1707,13.0087,2.1355,-0.0217,3.6789,31.4444,24.4076,,193.4320,,99.9197,
2020-12-22T07:00:00Z,2020-12-17T12:00:00Z,Rio_Centro,-22.9083,-43.1782,1004.6541,298.1346,23.0968,2.3102,0.5414,8.4363,37.3079,19.0995,,191.9389,,110.3968,
2020-12-22T08:00:00Z,2020-12-17T12:00:00Z,Rio_Centro,-22.9083,-43.1782,1006.0339,298.2780,55.8496,3.0301,0.8825,12.9631,10.5716,18.7364,,151.4250,,116.4511,
2020-12-22T09:00:00Z,2020-12-17T12:00:00Z,Rio_Centro,-22.9083,-43.1782,1006.7458,298.5984,57.5185,3.5766,1.1037,16.9945,10.5727,22.1225,,78.5547,,110.7456,
2020-12-22T10:00:00Z,2020-12-17T12:00:00Z,Rio_Centro,-22.9083,-43.1782,1006.9755,298.7961,79.3934,3.6070,1.5496,27.3493,20.2116,16.6322,,27.2401,,102.1308,
2020-12-22T11:00:00Z,2020-12-17T12:00:00Z,Rio_Centro,-22.9083,-43.1782,1007.2952,298.9438,114.3217,3.9648,2.1488,34.3080,29.3074,11.2581,,17.9741,,82.9232,
2020-12-17T12:00:00Z,2020-12-17T12:00:00Z,Rio_SaoCristovao,-22.8978,-43.2217,1010.4411,299.0352,81.8968,-2.2785,-1.0976,61.4287,55.8955,11.4666,,20.2290,,17.5528,
2020-12-17T13:00:00Z,2020-12-17T12:00:00Z,Rio_SaoCristovao,-22.8978,-43.2217,1010.2556,299.6242,43.1538,-2.1037,-1.2055,67.6416,65.8311,9.2024,,18.5116,,18.1128,
2020-12-17T14:00:00Z,2020-12-17T12:00:00Z,Rio_SaoCristovao,-22.8978,-43.2217,1009.5355,300.3473,24.1101,-2.5777,-1.6273,78.3867,55.5738,6.9683,,17.5158,,18.3275,
2020-12-17T15:00:00Z,2020-12-17T12:00:00Z,Rio_SaoCristovao,-22.8978,-43.2217,1008.6736,301.1142,23.5140,-2.9585,-1.9576,89.4894,55.7966,4.8680,,15.8221,,18.1817,
2020-12-17T16:00:00Z,2020-12-17T12:00:00Z,Rio_SaoCristovao,-22.8978,-43.2217,1008.3804,301.6501,24.9743,-2.6436,-1.8172,93.9101,53.5573,5.3289,,16.3578,,17.9548,
2020-12-17T17:00:00Z,2020-12-17T12:00:00Z,Rio_SaoCristovao,-22.8978,-43.2217,1007.3835,302.0484,34.9879,-2.3245,-1.0143,97.0558,50.7869,6.0685,,17.3263,,18.4186,
2020-12-17T18:00:00Z,2020-12-17T12:00:00Z,Rio_SaoCristovao,-22.8978,-43.2217,1006.1525,301.9055,21.3981,-2.3506,-0.0081,95.6392,47.3487,6.4462,,17.2945,,18.9119,
2020-12-17T19:00:00Z,2020-12-17T12:00:00Z,Rio_SaoCristovao,-22.8978,-43.2217,1006.1330,301.6000,124.2161,-1.3255,-0.3877,88.3356,31.5945,8.4334,,17.8264,,19.6673,
2020-12-17T20:00:00Z,2020-12-17T12:00:00Z,Rio_SaoCristovao,-22.8978,-43.2217,1006.3622,300.9193,79.2742,-0.6512,-1.1261,81.4756,21.8666,11.3488,,19.2027,,24.2957,
2020-12-17T21:00:00Z,2020-12-17T12:00:00Z,Rio_SaoCristovao,-22.8978,-43.2217,1005.7570,300.3101,10.8331,-0.1881,-1.4603,83.1673,34.1360,11.8368,,17.2737,,27.5565,
2020-12-17T22:00:00Z,2020-12-17T12:00:00Z,Rio_SaoCristovao,-22.8978,-43.2217,1005.0392,299.7915,1.8515,-1.0420,-1.1632,78.2949,18.0608,14.0350,,17.7783,,31.1074,
2020-12-17T23:00:00Z,2020-12-17T12:00:00Z,Rio_SaoCristovao,-22.8978,-43.2217,1005.7976,299.5102,1.3132,-1.6936,-0.1620,70.7541,22.3672,15.7891,,18.7480,,35.2407,
2020-12-18T00:00:00Z,2020-12-17T12:00:00Z,Rio_SaoCristovao,-22.8978,-43.2217,1006.9063,299.0564,5.2899,-2.0448,-0.4293,68.3374,33.2763,14.1227,,17.6868,,39.4961,
2020-12-18T01:00:00Z,2020-12-17T12:00:00Z,Rio_SaoCristovao,-22.8978,-43.2217,1007.1828,298.8539,11.2057,-1.8199,-0.7388,65.0050,11.1957,14.2447,,17.6862,,42.5338,
2020-12-18T02:00:00Z,2020-12-17T12:00:00Z,Rio_SaoCristovao,-22.8978,-43.2217,1007.1287,298.7623,25.0041,-1.6383,-0.5772,61.3965,16.5833,14.8454,,18.1868,,44.3911,
2020-12-18T03:00:00Z,2020-12-17T12:00:00Z,Rio_SaoCristovao,-22.8978,-43.2217,1006.5793,298.4174,57.7569,-1.2374,-0.9712,55.9933,13.2421,17.5972,,21.1587,,47.3594,
2020-12-18T04:00:00Z,2020-12-17T12:00:00Z,Rio_SaoCristovao,-22.8978,-43.2217,1007.1194,297.8841,62.7041,0.3778,-2.1006,46.9212,19.4485,24.0347,,26.3802,,52.1402,
2020-12-18T05:00:00Z,2020-12-17T12:00:00Z,Rio_SaoCristovao,-22.8978,-43.2217,1006.3023,297.8747,6.8471,-0.0571,-1.9592,39.7327,11.8128,29.4283,,31.6976,,49.3473,
2020-12-18T06:00:00Z,2020-12-17T12:00:00Z,Rio_SaoCristovao,-22.8978,-43.2217,1005.4800,297.8462,0.5048,-0.7398,-1.7318,39.9876,18.9965,30.5486,,35.2301,,46.6684,
2020-12-18T07:00:00Z,2020-12-17T12:00:00Z,Rio_SaoCristovao,-22.8978,-43.2217,1005.0374,297.5293,0.1525,-1.2392,-1.9109,33.0317,12.2996,37.0946,,45.1069,,45.5580,
2020-12-18T08:00:00Z,2020-12-17T12:00:00Z,Rio_SaoCristovao,-22.8978,-43.2217,1005.2112,297.3173,0.0221,-1.0231,-1.6306,23.6312,15.1843,43.0068,,57.4844,,45.2639,
2020-12-18T09:00:00Z,2020-12-17T12:00:00Z,Rio_SaoCristovao,-22.8978,-43.2217,1005.6022,297.5996,0.3036,-0.4031,-1.0998,23.5612,27.5578,41.2417,,69.5458,,45.4360,
2020-12-18T10:00:00Z,2020-12-17T12:00:00Z,Rio_SaoCristovao,-22.8978,-43.2217,1006.1088,298.6032,0.4498,0.5319,-0.5046,35.9484,51.3491,30.0562,,53.8562,,36.5852,
2020-12-18T11:00:00Z,2020-12-17T12:00:00Z,Rio_SaoCristovao,-22.8978,-43.2217,1006.1375,299.7493,1.1865,1.1128,0.1283,48.1629,81.2836,23.4835,,40.6632,,30.8794,
2020-12-18T12:00:00Z,2020-12-17T12:00:00Z,Rio_SaoCristovao,-22.8978,-43.2217,1006.1415,300.5826,2.9467,1.5928,0.9548,60.5150,105.7160,20.4272,,40.7221,,29.0169,
2020-12-18T13:00:00Z,2020-12-17T12:00:00Z,Rio_SaoCristovao,-22.8978,-43.2217,1006.4188,300.7150,13.3067,1.8892,2.1564,75.3501,101.3603,17.3791,,41.7192,,29.8889,
2020-12-18T14:00:00Z,2020-12-17T12:00:00Z,Rio_SaoCristovao,-22.8978,-43.2217,1006.5909,300.3539,18.2986,1.8520,3.4009,90.7695,85.9136,12.1417,,40.8351,,32.0422,
2020-12-18T15:00:00Z,2020-12-17T12:00:00Z,Rio_SaoCristovao,-22.8978,-43.2217,1006.4839,300.1030,30.6964,1.8159,4.0719,95.7945,71.2047,8.2759,,34.5189,,30.2948,
2020-12-18T16:00:00Z,2020-12-17T12:00:00Z,Rio_SaoCristovao,-22.8978,-43.2217,1006.3129,299.8163,34.1535,1.3751,4.1641,87.7491,63.9077,6.2625,,26.9870,,26.0453,
2020-12-18T17:00:00Z,2020-12-17T12:00:00Z,Rio_SaoCristovao,-22.8978,-43.2217,1006.1326,299.5266,29.1169,1.0582,4.0652,75.2889,48.2310,5.7130,,19.9565,,20.6618,
2020-12-18T18:00:00Z,2020-12-17T12:00:00Z,Rio_SaoCristovao,-22.8978,-43.2217,1005.6473,299.1682,23.6034,0.7831,3.9464,64.4988,34.4280,5.9336,,14.8180,,16.4132,
2020-12-18T19:00:00Z,2020-12-17T12:00:00Z,Rio_SaoCristovao,-22.8978,-43.2217,1004.9237,298.8083,6.4820,-0.6466,3.6630,57.8058,27.2228,6.4374,,12.8840,,14.7975,
2020-12-18T20:00:00Z,2020-12-17T12:00:00Z,Rio_SaoCristovao,-22.8978,-43.2217,1003.4805,298.4230,10.3861,-1.7255,3.4632,51.8085,24.9429,8.7578,,13.6073,,15.3936,
2020-12-18T21:00:00Z,2020-12-17T12:00:00Z,Rio_SaoCristovao,-22.8978,-43.2217,1005.9799,298.0771,63.5386,-0.0909,1.6853,39.5796,18.2557,17.5524,,18.9697,,17.1106,
2020-12-18T22:00:00Z,2020-12-17T12:00:00Z,Rio_SaoCristovao,-22.8978,-43.2217,1006.2772,297.8795,301.3611,0.0728,1.4787,30.3091,16.8236,23.8789,,26.6577,,19.2356,
2020-12-18T23:00:00Z,2020-12-17T12:00:00Z,Rio_SaoCristovao,-22.8978,-43.2217,1006.3162,297.8168,30.6964,0.6141,0.6381,23.3336,10.6486,28.0199,,34.5935,,22.1466,
2020-12-19T00:00:00Z,2020-12-17T12:00:00Z,Rio_SaoCristovao,-22.8978,-43.2217,1007.0576,297.6454,8.0019,1.5288,0.3028,15.4909,10.2477,32.1970,,50.0277,,28.7538,
2020-12-19T01:00:00Z,2020-12-17T12:00:00Z,Rio_SaoCristovao,-22.8978,-43.2217,1007.1799,297.4697,0.8177,1.4694,1.0474,13.2407,11.0697,31.0206,,63.7752,,34.3127,
2020-12-19T02:00:00Z,2020-12-17T12:00:00Z,Rio_SaoCristovao,-22.8978,-43.2217,1006.8077,297.4630,3.2298,1.2306,0.5689,12.7385,10.5683,29.3204,,75.7746,,38.9114,
2020-12-19T03:00:00Z,2020-12-17T12:00:00Z,Rio_SaoCristovao,-22.8978,-43.2217,1005.6781,297.3939,2.5891,0.7457,0.0788,12.4715,10.3032,26.7623,,87.6503,,43.6844,
2020-12-19T04:00:00Z,2020-12-17T12:00:00Z,Rio_SaoCristovao,-22.8978,-43.2217,1004.7576,297.2512,5.2378,0.4642,-0.4643,11.5005,11.3072,25.4172,,98.1494,,47.5256,
2020-12-19T05:00:00Z,2020-12-17T12:00:00Z,Rio_SaoCristovao,-22.8978,-43.2217,1004.3026,297.1183,3.5949,0.9080,-0.3538,10.3504,9.0561,24.4646,,111.7711,,51.5990,
2020-12-19T06:00:00Z,2020-12-17T12:00:00Z,Rio_SaoCristovao,-22.8978,-43.2217,1004.4196,296.9506,0.7898,1.4384,-0.3160,8.1411,7.3583,23.6916,,142.6422,,59.0485,
2020-12-19T07:00:00Z,2020-12-17T12:00:00Z,Rio_SaoCristovao,-22.8978,-43.2217,1004.4919,296.8175,0.4005,1.5837,0.0601,6.7806,9.8706,22.0692,,168.8899,,65.8002,
2020-12-19T08:00:00Z,2020-12-17T12:00:00Z,Rio_SaoCristovao,-22.8978,-43.2217,1004.5735,296.8408,0.2850,1.2848,0.0692,6.8162,15.5608,20.8705,,179.3893,,67.7798,
2020-12-19T09:00:00Z,2020-12-17T12:00:00Z,Rio_SaoCristovao,-22.8978,-43.2217,1004.9453,297.3964,0.0151,0.9052,-0.2814,8.6015,24.4142,26.0353,,127.5152,,52.2372,
2020-12-19T10:00:00Z,2020-12-17T12:00:00Z,Rio_SaoCristovao,-22.8978,-43.2217,1005.4892,298.4392,0.0508,0.3419,-0.5074,15.6521,45.6438,28.4268,,77.1442,,36.1128,
2020-12-19T11:00:00Z,2020-12-17T12:00:00Z,Rio_SaoCristovao,-22.8978,-43.2217,1005.5626,299.4770,0.1350,-0.2530,-0.0446,27.2206,59.2620,24.1132,,59.4669,,29.7384,
2020-12-19T12:00:00Z,2020-12-17T12:00:00Z,Rio_SaoCristovao,-22.8978,-43.2217,1005.7515,300.5081,0.0860,-0.6297,0.5688,39.1380,75.0336,20.8824,,50.1678,,25.7800,
2020-12-19T13:00:00Z,2020-12-17T12:00:00Z,Rio_SaoCristovao,-22.8978,-43.2217,1005.3903,301.1172,0.2177,-0.9622,1.5615,54.3037,87.7259,17.1232,,44.1763,,23.7429,
2020-12-19T14:00:00Z,2020-12-17T12:00:00Z,Rio_SaoCristovao,-22.8978,-43.2217,1004.8963,301.3643,1.3970,-1.5529,2.3219,70.5920,60.5398,12.4967,,39.6721,,22.5213,
2020-12-19T15:00:00Z,2020-12-17T12:00:00Z,Rio_SaoCristovao,-22.8978,-43.2217,1004.2728,301.2870,1.4715,-2.0047,2.8278,85.5756,56.9729,8.1716,,36.5523,,21.1249,
2020-12-19T16:00:00Z,2020-12-17T12:00:00Z,Rio_SaoCristovao,-22.8978,-43.2217,1003.4078,301.0189,2.1979,-2.4179,3.0438,95.6592,59.3513,5.1393,,33.2398,,19.4375,
2020-12-19T17:00:00Z,2020-12-17T12:00:00Z,Rio_SaoCristovao,-22.8978,-43.2217,1002.8193,300.6254,1.3616,-2.8864,2.7975,95.1678,48.0407,4.0889,,28.6463,,17.6046,
2020-12-19T18:00:00Z,2020-12-17T12:00:00Z,Rio_SaoCristovao,-22.8978,-43.2217,1002.5654,300.2409,0.8643,-3.2150,2.3410,88.9818,56.5801,4.1939,,24.3344,,16.4701,
2020-12-19T19:00:00Z,2020-12-17T12:00:00Z,Rio_SaoCristovao,-22.8978,-43.2217,1002.3304,299.7740,0.3497,-3.3082,2.0183,84.3805,44.8297,5.1147,,21.2105,,16.8199,
2020-12-19T20:00:00Z,2020-12-17T12:00:00Z,Rio_SaoCristovao,-22.8978,-43.2217,1002.6955,299.2478,0.2324,-3.0115,1.7255,76.2276,33.9852,8.6055,,19.9298,,19.2067,
2020-12-19T21:00:00Z,2020-12-17T12:00:00Z,Rio_SaoCristovao,-22.8978,-43.2217,1003.2758,298.4492,0.3553,-2.3062,1.1795,70.7147,24.1183,9.8108,,17.2731,,24.5331,
2020-12-19T22:00:00Z,2020-12-17T12:00:00Z,Rio_SaoCristovao,-22.8978,-43.2217,1003.8404,298.1141,1.1399,-2.1420,0.7683,66.8736,27.4820,9.7053,,15.0077,,29.7136,
2020-12-19T23:00:00Z,2020-12-17T12:00:00Z,Rio_SaoCristovao,-22.8978,-43.2217,1004.6899,298.0614,3.0622,-1.6104,0.6360,58.8999,30.5639,14.7628,,18.0542,,34.8939,
2020-12-20T00:00:00Z,2020-12-17T12:00:00Z,Rio_SaoCristovao,-22.8978,-43.2217,1004.9261,298.0205,15.0949,-1.0159,0.4143,40.1122,18.8266,30.0252,,31.4594,,41.1220,
2020-12-20T01:00:00Z,2020-12-17T12:00:00Z,Rio_SaoCristovao,-22.8978,-43.2217,1004.5950,297.8390,5.1409,-0.6509,0.3698,31.5094,15.6411,35.6276,,50.1773,,48.5723,
2020-12-20T02:00:00Z,2020-12-17T12:00:00Z,Rio_SaoCristovao,-22.8978,-43.2217,1004.1597,297.5582,0.2328,-0.5187,0.0206,22.3116,15.9770,40.7535,,77.6666,,56.7211,
2020-12-20T03:00:00Z,2020-12-17T12:00:00Z,Rio_SaoCristovao,-22.8978,-43.2217,1003.9119,297.3114,0.7274,-0.0565,-0.9427,11.6445,13.8776,47.5735,,125.7818,,68.4789,
2020-12-20T04:00:00Z,2020-12-17T12:00:00Z,Rio_SaoCristovao,-22.8978,-43.2217,1003.7219,297.0871,0.4815,1.0458,-1.3658,4.3284,12.4732,49.5044,,174.8910,,78.8397,
2020-12-20T05:00:00Z,2020-12-17T12:00:00Z,Rio_SaoCristovao,-22.8978,-43.2217,1002.9978,297.1854,0.1122,1.2143,-1.2340,0.9162,14.5070,46.1374,,199.3881,,87.8031,
2020-12-20T06:00:00Z,2020-12-17T12:00:00Z,Rio_SaoCristovao,-22.8978,-43.2217,1002.4982,297.4286,0.0110,0.2099,-1.4540,0.0434,12.9536,46.9994,,191.8838,,92.8084,
2020-12-20T07:00:00Z,2020-12-17T12:00:00Z,Rio_SaoCristovao,-22.8978,-43.2217,1002.5477,297.6989,0.0001,-0.7528,-1.5620,0.0782,5.2723,50.7548,,164.1296,,90.1298,
2020-12-20T08:00:00Z,2020-12-17T12:00:00Z,Rio_SaoCristovao,-22.8978,-43.2217,1003.3019,298.0543,0.0123,-1.2921,-1.3951,5.1685,15.9465,50.8950,,132.8780,,81.3979,
2020-12-20T09:00:00Z,2020-12-17T12:00:00Z,Rio_SaoCristovao,-22.8978,-43.2217,1003.9557,298.9107,0.2482,-1.7694,-1.4504,27.9341,38.6102,33.3681,,81.7524,,62.7710,
2020-12-20T10:00:00Z,2020-12-17T12:00:00Z,Rio_SaoCristovao,-22.8978,-43.2217,1004.3452,300.0257,1.2442,-1.7959,-1.5060,52.3636,74.1157,14.6073,,31.5023,,39.7790,
2020-12-20T11:00:00Z,2020-12-17T12:00:00Z,Rio_SaoCristovao,-22.8978,-43.2217,1004.9568,301.4405,5.0515,-1.6575,-1.3971,67.8897,77.1028,8.9782,,21.6599,,25.9544,
2020-12-20T12:00:00Z,2020-12-17T12:00:00Z,Rio_SaoCristovao,-22.8978,-43.2217,1004.7096,302.7293,4.0010,-1.8323,-1.4323,86.6548,100.6467,6.0788,,18.7213,,19.8138,
2020-12-20T13:00:00Z,2020-12-17T12:00:00Z,Rio_SaoCristovao,-22.8978,-43.2217,1004.0254,303.9141,3.3453,-1.9997,-1.5221,104.5755,117.5751,4.1027,,18.2488,,17.1955,
2020-12-20T14:00:00Z,2020-12-17T12:00:00Z,Rio_SaoCristovao,-22.8978,-43.2217,1003.2007,304.8812,3.2224,-1.8659,-1.2333,116.3210,101.2801,3.0400,,18.5615,,16.1777,
2020-12-20T15:00:00Z,2020-12-17T12:00:00Z,Rio_SaoCristovao,-22.8978,-43.2217,1002.5193,305.4113,1.9372,-1.8531,-0.3904,123.9822,102.7954,2.7650,,19.3083,,16.1492,
2020-12-20T16:00:00Z,2020-12-17T12:00:00Z,Rio_SaoCristovao,-22.8978,-43.2217,1001.9079,305.4268,1.0654,-2.3767,0.4566,128.9709,102.5744,3.1462,,20.5555,,16.9064,
2020-12-20T17:00:00Z,2020-12-17T12:00:00Z,Rio_SaoCristovao,-22.8978,-43.2217,1001.3622,305.1575,1.0058,-3.1510,0.6460,130.9993,66.3384,3.9959,,21.4907,,18.5080,
2020-12-20T18:00:00Z,2020-12-17T12:00:00Z,Rio_SaoCristovao,-22.8978,-43.2217,1001.1664,304.8825,0.6612,-3.4088,0.3628,131.7539,56.7132,3.3841,,20.2736,,20.0513,
2020-12-20T19:00:00Z,2020-12-17T12:00:00Z,Rio_SaoCristovao,-22.8978,-43.2217,1001.5098,304.5237,0.7926,-3.3288,0.2196,125.9865,29.8017,4.3027,,19.5268,,22.0020,
2020-12-20T20:00:00Z,2020-12-17T12:00:00Z,Rio_SaoCristovao,-22.8978,-43.2217,1001.7989,303.6152,0.8056,-3.3258,0.2271,112.8730,19.0585,7.4381,,19.8114,,25.7563,
2020-12-20T21:00:00Z,2020-12-17T12:00:00Z,Rio_SaoCristovao,-22.8978,-43.2217,1002.2277,301.9780,0.5253,-3.4191,0.2108,101.8233,26.2962,7.3614,,17.6884,,33.0911,
2020-12-20T22:00:00Z,2020-12-17T12:00:00Z,Rio_SaoCristovao,-22.8978,-43.2217,1002.2805,301.1072,0.1201,-3.4800,-0.2230,92.5037,-12.6582,7.6242,,17.2876,,38.9131,
2020-12-20T23:00:00Z,2020-12-17T12:00:00Z,Rio_SaoCristovao,-22.8978,-43.2217,1002.5599,300.8770,0.0436,-3.2011,-0.7093,87.7855,-22.7533,7.4847,,17.3276,,41.8823,
2020-12-21T00:00:00Z,2020-12-17T12:00:00Z,Rio_SaoCristovao,-22.8978,-43.2217,1003.1278,301.0995,0.0901,-2.4834,-1.2486,83.5161,-13.8862,7.4029,,16.9879,,41.8824,
2020-12-21T01:00:00Z,2020-12-17T12:00:00Z,Rio_SaoCristovao,-22.8978,-43.2217,1003.3580,301.3709,0.1297,-1.6081,-1.5325,78.7612,3.3447,7.5990,,16.3992,,41.9978,
2020-12-21T02:00:00Z,2020-12-17T12:00:00Z,Rio_SaoCristovao,-22.8978,-43.2217,1003.3625,301.3231,0.4042,-1.1025,-1.8678,74.8577,27.3672,7.8281,,15.4829,,42.1142,
2020-12-21T03:00:00Z,2020-12-17T12:00:00Z,Rio_SaoCristovao,-22.8978,-43.2217,1002.4523,301.0233,0.1348,-1.2344,-2.0593,72.4025,35.7573,7.7752,,14.3282,,40.6589,
2020-12-21T04:00:00Z,2020-12-17T12:00:00Z,Rio_SaoCristovao,-22.8978,-43.2217,1002.3474,300.6183,0.0576,-1.3988,-1.9489,70.9241,38.0586,7.0198,,13.1589,,37.8650,
2020-12-21T05:00:00Z,2020-12-17T12:00:00Z,Rio_SaoCristovao,-22.8978,-43.2217,1001.9404,300.0331,0.0013,-1.5253,-2.0563,60.2606,21.7699,14.8946,,19.5078,,35.3622,
2020-12-21T06:00:00Z,2020-12-17T12:00:00Z,Rio_SaoCristovao,-22.8978,-43.2217,1002.0485,299.5445,0.0000,-1.5722,-2.1442,37.9953,15.6266,32.6956,,34.2941,,33.1499,
2020-12-21T07:00:00Z,2020-12-17T12:00:00Z,Rio_SaoCristovao,-22.8978,-43.2217,1002.7916,299.1557,0.0000,-1.5095,-2.3083,23.5421,9.0246,45.0685,,46.4843,,31.9851,
2020-12-21T08:00:00Z,2020-12-17T12:00:00Z,Rio_SaoCristovao,-22.8978,-43.2217,1003.5606,299.0501,0.0000,-1.1986,-2.4008,22.9201,13.8764,45.7134,,52.9845,,31.8097,
2020-12-21T09:00:00Z,2020-12-17T12:00:00Z,Rio_SaoCristovao,-22.8978,-43.2217,1004.2423,299.5661,0.0000,-1.0064,-3.0052,31.0351,27.0192,37.8928,,56.2916,,31.7506,
2020-12-21T10:00:00Z,2020-12-17T12:00:00Z,Rio_SaoCristovao,-22.8978,-43.2217,1004.3254,300.4641,0.0015,-0.8996,-3.3840,48.4672,64.5629,25.6460,,41.2278,,25.9001,
2020-12-21T11:00:00Z,2020-12-17T12:00:00Z,Rio_SaoCristovao,-22.8978,-43.2217,1004.3275,302.0141,0.0190,-0.5442,-3.4315,77.2167,105.9703,11.2580,,21.2264,,18.5948,
2020-12-21T12:00:00Z,2020-12-17T12:00:00Z,Rio_SaoCristovao,-22.8978,-43.2217,1004.2518,303.5403,0.2477,-0.0964,-3.1873,98.7244,116.9357,6.7124,,16.6871,,14.8399,
2020-12-21T13:00:00Z,2020-12-17T12:00:00Z,Rio_SaoCristovao,-22.8978,-43.2217,1003.9651,304.9096,1.4380,0.2003,-2.7738,114.4072,93.8364,5.4874,,17.8673,,13.2249,
2020-12-21T14:00:00Z,2020-12-17T12:00:00Z,Rio_SaoCristovao,-22.8978,-43.2217,1003.5760,305.9896,2.8610,0.4273,-1.9419,128.5072,89.2507,4.8784,,20.3940,,12.8035,
2020-12-21T15:00:00Z,2020-12-17T12:00:00Z,Rio_SaoCristovao,-22.8978,-43.2217,1003.2717,306.5374,5.9456,0.7562,-0.2617,142.3163,112.5574,5.2766,,24.4488,,13.3719,
2020-12-21T16:00:00Z,2020-12-17T12:00:00Z,Rio_SaoCristovao,-22.8978,-43.2217,1002.8277,305.5413,10.3712,1.4206,2.4990,154.4080,94.5837,5.0933,,28.4745,,16.7627,
2020-12-21T17:00:00Z,2020-12-17T12:00:00Z,Rio_SaoCristovao,-22.8978,-43.2217,1003.2475,303.0290,7.6443,2.2168,4.6910,150.4132,76.9623,4.8578,,31.0387,,24.1551,
2020-12-21T18:00:00Z,2020-12-17T12:00:00Z,Rio_SaoCristovao,-22.8978,-43.2217,1003.9719,301.0726,3.9861,2.8151,4.8042,124.6064,94.5335,6.6983,,33.2011,,29.6566,
2020-12-21T19:00:00Z,2020-12-17T12:00:00Z,Rio_SaoCristovao,-22.8978,-43.2217,1004.5784,300.2450,17.2853,2.8142,3.9106,95.4555,68.6868,8.4448,,29.5219,,29.9485,
2020-12-21T20:00:00Z,2020-12-17T12:00:00Z,Rio_SaoCristovao,-22.8978,-43.2217,1005.2012,299.7324,22.3815,2.3668,2.8290,72.6883,45.2389,11.6100,,25.1276,,31.3460,
2020-12-21T21:00:00Z,2020-12-17T12:00:00Z,Rio_SaoCristovao,-22.8978,-43.2217,1005.2399,299.2128,11.5037,1.2314,1.3701,52.5526,35.1228,18.3655,,26.6996,,36.0610,
2020-12-21T22:00:00Z,2020-12-17T12:00:00Z,Rio_SaoCristovao,-22.8978,-43.2217,1004.7986,298.9139,13.5303,1.0793,1.1654,42.4723,27.3726,21.4339,,28.7060,,38.3314,
2020-12-21T23:00:00Z,2020-12-17T12:00:00Z,Rio_SaoCristovao,-22.8978,-43.2217,1005.7596,298.7716,15.7356,1.7497,0.5950,28.4780,25.5177,28.8905,,36.1149,,51.0213,
2020-12-22T00:00:00Z,2020-12-17T12:00:00Z,Rio_SaoCristovao,-22.8978,-43.2217,1007.2696,298.6970,75.1019,2.0130,0.1918,15.5246,25.6622,36.8144,,53.4948,,67.0878,
2020-12-22T01:00:00Z,2020-12-17T12:00:00Z,Rio_SaoCristovao,-22.8978,-43.2217,1007.7969,298.5827,64.0154,2.0789,0.3147,12.7740,25.0816,37.7173,,62.8103,,71.2800,
2020-12-22T02:00:00Z,2020-12-17T12:00:00Z,Rio_SaoCristovao,-22.8978,-43.2217,1006.5367,298.3478,10.4010,2.0923,0.0937,11.3085,20.3996,36.1245,,73.9397,,68.8361,
2020-12-22T03:00:00Z,2020-12-17T12:00:00Z,Rio_SaoCristovao,-22.8978,-43.2217,1005.6332,298.2467,9.0003,1.9936,-0.6353,9.7161,18.8022,34.0955,,107.8151,,76.4043,
2020-12-22T04:00:00Z,2020-12-17T12:00:00Z,Rio_SaoCristovao,-22.8978,-43.2217,1005.1508,298.2067,25.1830,1.8448,-1.1456,3.5901,16.6892,35.0607,,151.4362,,85.8338,
2020-12-22T05:00:00Z,2020-12-17T12:00:00Z,Rio_SaoCristovao,-22.8978,-43.2217,1004.7552,298.1952,41.9617,2.0041,-0.6168,0.8690,14.4694,31.5217,,179.1875,,91.4217,
2020-12-22T06:00:00Z,2020-12-17T12:00:00Z,Rio_SaoCristovao,-22.8978,-43.2217,1004.3929,298.1707,13.0087,2.1355,-0.0217,3.6789,15.6605,24.4076,,193.4320,,99.9197,
2020-12-22T07:00:00Z,2020-12-17T12:00:00Z,Rio_SaoCristovao,-22.8978,-43.2217,1004.6541,298.1346,23.0968,2.3102,0.5414,8.4363,18.9421,19.0995,,191.9389,,110.3968,
2020-12-22T08:00:00Z,2020-12-17T12:00:00Z,Rio_SaoCristovao,-22.8978,-43.2217,1006.0339,298.2780,55.8496,3.0301,0.8825,12.9631,30.5260,18.7364,,151.4250,,116.4511,
2020-12-22T09:00:00Z,2020-12-17T12:00:00Z,Rio_SaoCristovao,-22.8978,-43.2217,1006.7458,298.5984,57.5185,3.5766,1.1037,16.9945,48.7208,22.1225,,78.5547,,110.7456,
2020-12-22T10:00:00Z,2020-12-17T12:00:00Z,Rio_SaoCristovao,-22.8978,-43.2217,1006.9755,298.7961,79.3934,3.6070,1.5496,27.3493,38.7206,16.6322,,27.2401,,102.1308,
2020-12-22T11:00:00Z,2020-12-17T12:00:00Z,Rio_SaoCristovao,-22.8978,-43.2217,1007.2952,298.9438,114.3217,3.9648,2.1488,34.3080,43.5433,11.2581,,17.9741,,82.9232,
2020-12-17T12:00:00Z,2020-12-17T12:00:00Z,Rio_Bangu,-22.8879,-43.4711,1007.8810,299.6289,48.1606,-2.5676,-0.8153,56.5172,90.7925,23.6962,19.9556,36.5728,,19.1244,
2020-12-17T13:00:00Z,2020-12-17T12:00:00Z,Rio_Bangu,-22.8879,-43.4711,1007.6956,300.2180,37.0145,-2.7209,-0.6968,63.0507,97.0961,19.7000,19.9262,33.6366,,20.7322,
2020-12-17T14:00:00Z,2020-12-17T12:00:00Z,Rio_Bangu,-22.8879,-43.4711,1006.9755,300.8160,27.1797,-3.0270,-0.9261,73.5666,132.9088,17.4368,18.8109,31.8908,,21.1797,
2020-12-17T15:00:00Z,2020-12-17T12:00:00Z,Rio_Bangu,-22.8879,-43.4711,1006.1136,301.4892,29.6235,-2.8843,-0.9654,91.7305,133.2111,15.0725,21.7704,30.1971,,20.9757,
2020-12-17T16:00:00Z,2020-12-17T12:00:00Z,Rio_Bangu,-22.8879,-43.4711,1005.8204,302.0876,35.5840,-2.3389,-0.4745,106.0672,97.1922,14.8774,15.2902,30.7640,,20.8361,
2020-12-17T17:00:00Z,2020-12-17T12:00:00Z,Rio_Bangu,-22.8879,-43.4711,1004.8235,302.1109,37.1337,-1.9964,0.6439,113.8893,75.5676,14.7544,26.3799,30.8575,,21.5909,
2020-12-17T18:00:00Z,2020-12-17T12:00:00Z,Rio_Bangu,-22.8879,-43.4711,1003.5925,301.3430,220.7756,-1.9483,1.5739,111.0180,71.4692,15.2833,26.4871,29.2320,,22.1133,
2020-12-17T19:00:00Z,2020-12-17T12:00:00Z,Rio_Bangu,-22.8879,-43.4711,1004.2130,300.3187,820.1599,-1.3333,0.7902,96.8581,73.4676,21.9404,33.6302,31.1389,,23.3635,
2020-12-17T20:00:00Z,2020-12-17T12:00:00Z,Rio_Bangu,-22.8879,-43.4711,1003.8022,299.7005,720.0241,-1.2752,-0.8917,70.2313,74.5471,41.2028,31.2639,41.5777,,28.9523,
2020-12-17T21:00:00Z,2020-12-17T12:00:00Z,Rio_Bangu,-22.8879,-43.4711,1003.8370,299.4351,51.3792,-0.7936,-1.7952,76.4919,81.9449,28.7175,35.3476,27.1175,,30.9908,
2020-12-17T22:00:00Z,2020-12-17T12:00:00Z,Rio_Bangu,-22.8879,-43.4711,1003.1192,299.1353,0.2009,-0.9053,-1.6163,72.9079,35.5576,23.8661,33.9002,19.6533,,30.2925,
2020-12-17T23:00:00Z,2020-12-17T12:00:00Z,Rio_Bangu,-22.8879,-43.4711,1003.8776,299.1977,3.7998,-1.0217,-0.6549,66.9722,46.1393,24.0953,30.5190,20.4667,,33.0870,
2020-12-18T00:00:00Z,2020-12-17T12:00:00Z,Rio_Bangu,-22.8879,-43.4711,1004.3463,298.9626,8.3894,-1.3963,-0.5900,62.2019,60.8962,24.4500,22.6411,21.3743,,38.9140,
2020-12-18T01:00:00Z,2020-12-17T12:00:00Z,Rio_Bangu,-22.8879,-43.4711,1005.2628,298.6977,35.0475,-1.6168,-0.5508,55.6980,46.9273,27.5828,24.7012,23.1550,,44.3964,
2020-12-18T02:00:00Z,2020-12-17T12:00:00Z,Rio_Bangu,-22.8879,-43.4711,1005.2087,298.5435,89.2878,-1.5865,-0.4194,49.7271,40.9523,30.7401,22.2941,25.4993,,49.1641,
2020-12-18T03:00:00Z,2020-12-17T12:00:00Z,Rio_Bangu,-22.8879,-43.4711,1004.6594,298.1674,801.0864,-0.8790,-1.5962,39.2892,50.8577,38.7374,3.0905,30.6275,,53.6458,
2020-12-18T04:00:00Z,2020-12-17T12:00:00Z,Rio_Bangu,-22.8879,-43.4711,1004.5594,297.7278,250.3395,-0.2252,-2.9248,30.2728,60.6426,46.8313,13.3652,32.9114,,49.8119,
2020-12-18T05:00:00Z,2020-12-17T12:00:00Z,Rio_Bangu,-22.8879,-43.4711,1003.7423,297.6560,31.7693,-0.5341,-2.5373,31.7853,61.0081,43.8725,11.7063,32.8538,,42.3042,
2020-12-18T06:00:00Z,2020-12-17T12:00:00Z,Rio_Bangu,-22.8879,-43.4711,1003.2401,297.5962,0.6156,-0.5142,-2.3880,27.7259,48.8923,46.4648,14.3877,38.0426,,40.4984,
2020-12-18T07:00:00Z,2020-12-17T12:00:00Z,Rio_Bangu,-22.8879,-43.4711,1002.4774,297.3418,0.0001,-0.4684,-2.3406,14.0342,27.5310,59.9323,14.0358,52.9194,,41.8327,
2020-12-18T08:00:00Z,2020-12-17T12:00:00Z,Rio_Bangu,-22.8879,-43.4711,1002.6512,297.2860,0.0002,-0.2360,-1.6892,7.0055,33.5571,68.7515,11.0111,71.0469,,44.0998,
2020-12-18T09:00:00Z,2020-12-17T12:00:00Z,Rio_Bangu,-22.8879,-43.4711,1003.3622,297.7871,0.0184,0.2863,-0.9455,18.4272,66.3868,55.9893,17.6955,76.6708,,44.2718,
2020-12-18T10:00:00Z,2020-12-17T12:00:00Z,Rio_Bangu,-22.8879,-43.4711,1003.8688,299.5094,0.8736,1.0627,-0.3787,43.6439,83.7078,32.3811,9.1652,51.9187,,33.8495,
2020-12-18T11:00:00Z,2020-12-17T12:00:00Z,Rio_Bangu,-22.8879,-43.4711,1003.8975,300.4055,3.0920,1.3452,0.8056,59.8541,94.4136,22.5729,5.7405,38.6632,,29.8317,
2020-12-18T12:00:00Z,2020-12-17T12:00:00Z,Rio_Bangu,-22.8879,-43.4711,1003.9016,300.5826,11.2206,1.5879,2.1716,73.0623,93.9967,16.8324,5.7267,36.5971,,30.2393,
2020-12-18T13:00:00Z,2020-12-17T12:00:00Z,Rio_Bangu,-22.8879,-43.4711,1004.1788,300.2775,21.5769,1.6255,3.4767,83.6077,102.1501,12.9503,7.9782,32.0629,,32.0425,
2020-12-18T14:00:00Z,2020-12-17T12:00:00Z,Rio_Bangu,-22.8879,-43.4711,1004.3509,300.1039,25.0936,1.4789,4.1977,89.9682,92.3586,9.9423,7.4153,26.5226,,29.4229,
2020-12-18T15:00:00Z,2020-12-17T12:00:00Z,Rio_Bangu,-22.8879,-43.4711,1004.5640,299.9155,29.9215,1.3706,4.4743,85.8793,83.5706,9.0338,9.0334,23.1752,,24.6487,
2020-12-18T16:00:00Z,2020-12-17T12:00:00Z,Rio_Bangu,-22.8879,-43.4711,1004.0729,299.7538,31.1136,0.9884,4.3868,78.1169,86.4787,8.8320,8.5338,20.5495,,21.2141,
2020-12-18T17:00:00Z,2020-12-17T12:00:00Z,Rio_Bangu,-22.8879,-43.4711,1003.8926,299.4016,34.8687,0.9175,4.3777,68.7303,65.2161,9.7181,14.0799,17.6440,,18.5663,
2020-12-18T18:00:00Z,2020-12-17T12:00:00Z,Rio_Bangu,-22.8879,-43.4711,1003.4073,298.9494,27.8354,0.6249,4.1807,58.7628,48.8010,11.4440,17.5183,14.6149,,16.7043,
2020-12-18T19:00:00Z,2020-12-17T12:00:00Z,Rio_Bangu,-22.8879,-43.4711,1002.3637,298.6521,41.4848,-0.6163,4.0692,49.7938,46.9588,13.9699,18.7543,12.9308,,14.8267,
2020-12-18T20:00:00Z,2020-12-17T12:00:00Z,Rio_Bangu,-22.8879,-43.4711,1001.2404,298.2042,526.4282,-0.7782,4.0297,38.7558,39.0089,18.8409,29.2371,14.9667,,15.6555,
2020-12-18T21:00:00Z,2020-12-17T12:00:00Z,Rio_Bangu,-22.8879,-43.4711,1003.7399,297.9521,573.1583,0.0907,2.3845,29.6027,40.7236,22.5382,19.6654,19.8447,,23.7754,
2020-12-18T22:00:00Z,2020-12-17T12:00:00Z,Rio_Bangu,-22.8879,-43.4711,1004.0372,297.8170,658.0353,0.1724,1.7013,24.8102,28.4731,23.2337,18.5417,26.5015,,24.8236,
2020-12-18T23:00:00Z,2020-12-17T12:00:00Z,Rio_Bangu,-22.8879,-43.4711,1004.3962,297.8168,47.0281,0.6981,0.9623,23.6291,29.7744,21.8029,13.6256,33.0310,,25.1734,
2020-12-19T00:00:00Z,2020-12-17T12:00:00Z,Rio_Bangu,-22.8879,-43.4711,1005.1376,297.7704,12.4127,1.5092,0.7032,23.2816,41.1903,20.0560,14.7032,39.7777,,27.1239,
2020-12-19T01:00:00Z,2020-12-17T12:00:00Z,Rio_Bangu,-22.8879,-43.4711,1004.9399,297.6572,0.6007,1.5612,0.9752,23.3426,39.0185,18.7550,16.2979,42.5877,,27.1823,
2020-12-19T02:00:00Z,2020-12-17T12:00:00Z,Rio_Bangu,-22.8879,-43.4711,1004.5677,297.6505,1.7565,1.4220,0.2781,23.0226,43.3478,19.4549,13.0895,46.7121,,28.0266,
2020-12-19T03:00:00Z,2020-12-17T12:00:00Z,Rio_Bangu,-22.8879,-43.4711,1003.4381,297.5189,1.3523,0.7437,-0.1853,21.7602,36.4836,20.3377,13.2349,54.5878,,31.2280,
2020-12-19T04:00:00Z,2020-12-17T12:00:00Z,Rio_Bangu,-22.8879,-43.4711,1002.5176,297.2200,6.4746,0.1038,-0.7085,13.4596,30.0056,26.8568,19.5882,69.6494,,37.3975,
2020-12-19T05:00:00Z,2020-12-17T12:00:00Z,Rio_Bangu,-22.8879,-43.4711,1002.0626,297.0870,5.8413,0.3240,-0.9417,8.5574,26.2774,29.8708,19.4669,86.3961,,42.0529,
2020-12-19T06:00:00Z,2020-12-17T12:00:00Z,Rio_Bangu,-22.8879,-43.4711,1002.1796,296.9818,1.6131,0.8154,-1.0177,3.9618,26.8489,32.4387,22.9481,100.5172,,44.8459,
2020-12-19T07:00:00Z,2020-12-17T12:00:00Z,Rio_Bangu,-22.8879,-43.4711,1002.2518,296.9425,0.2859,1.0232,-0.5952,1.9140,24.9332,33.3693,19.4730,103.2649,,44.9036,
2020-12-19T08:00:00Z,2020-12-17T12:00:00Z,Rio_Bangu,-22.8879,-43.4711,1002.3335,296.9658,0.2054,0.7848,-0.5739,2.8674,40.6918,32.1194,20.9867,101.2643,,43.7982,
2020-12-19T09:00:00Z,2020-12-17T12:00:00Z,Rio_Bangu,-22.8879,-43.4711,1002.7053,297.5214,0.0188,0.4696,-0.8927,6.1155,54.4613,32.8310,18.0179,69.6402,,35.0659,
2020-12-19T10:00:00Z,2020-12-17T12:00:00Z,Rio_Bangu,-22.8879,-43.4711,1002.9292,298.7829,0.0118,0.0001,-0.9601,16.2428,64.2813,31.0242,19.5392,44.0817,,27.0033,
2020-12-19T11:00:00Z,2020-12-17T12:00:00Z,Rio_Bangu,-22.8879,-43.4711,1003.3226,299.8520,0.0078,-0.7408,-0.3243,26.9855,90.2059,25.8612,13.6311,40.7169,,25.6639,
2020-12-19T12:00:00Z,2020-12-17T12:00:00Z,Rio_Bangu,-22.8879,-43.4711,1003.1915,300.8206,0.0336,-1.0301,0.6176,35.1877,118.8045,23.8952,18.8097,39.4178,,25.1397,
2020-12-19T13:00:00Z,2020-12-17T12:00:00Z,Rio_Bangu,-22.8879,-43.4711,1003.1503,301.4297,0.2589,-1.2464,1.8271,43.6144,115.7497,21.9704,19.5360,39.3638,,25.6055,
2020-12-19T14:00:00Z,2020-12-17T12:00:00Z,Rio_Bangu,-22.8879,-43.4711,1002.6563,301.5831,2.0191,-1.5959,2.7399,53.7931,123.2839,18.7633,12.3106,38.8596,,26.2175,
2020-12-19T15:00:00Z,2020-12-17T12:00:00Z,Rio_Bangu,-22.8879,-43.4711,1002.0328,301.4745,1.8328,-1.8602,3.2888,66.1208,115.5150,14.2895,14.7808,37.4898,,26.0144,
2020-12-19T16:00:00Z,2020-12-17T12:00:00Z,Rio_Bangu,-22.8879,-43.4711,1001.1678,301.1752,3.7812,-2.1874,3.4384,75.6244,114.9384,11.1066,16.2006,36.4273,,24.8799,
2020-12-19T17:00:00Z,2020-12-17T12:00:00Z,Rio_Bangu,-22.8879,-43.4711,1000.5793,300.7817,7.2792,-2.6169,3.1881,82.0505,112.6746,9.5345,16.5790,34.8026,,23.0761,
2020-12-19T18:00:00Z,2020-12-17T12:00:00Z,Rio_Bangu,-22.8879,-43.4711,1000.0054,300.3972,4.0010,-3.0196,2.8176,82.5559,82.1529,9.5546,27.8647,32.5532,,20.8357,
2020-12-19T19:00:00Z,2020-12-17T12:00:00Z,Rio_Bangu,-22.8879,-43.4711,1000.0905,299.8678,7.8976,-3.3277,2.3933,76.6568,61.9177,11.4115,32.3120,29.2417,,18.6826,
2020-12-19T20:00:00Z,2020-12-17T12:00:00Z,Rio_Bangu,-22.8879,-43.4711,1000.4555,299.2791,6.4522,-3.2224,1.8466,63.4680,44.3823,19.4044,37.6846,29.2111,,18.6829,
2020-12-19T21:00:00Z,2020-12-17T12:00:00Z,Rio_Bangu,-22.8879,-43.4711,1001.0358,298.4805,1.1604,-2.4703,1.1130,52.1795,29.3974,27.1898,41.0966,30.9918,,22.4958,
2020-12-19T22:00:00Z,2020-12-17T12:00:00Z,Rio_Bangu,-22.8879,-43.4711,1001.6003,298.1454,0.3106,-1.9623,0.6902,49.3325,43.5167,27.8037,41.0210,30.1796,,27.7345,
2020-12-19T23:00:00Z,2020-12-17T12:00:00Z,Rio_Bangu,-22.8879,-43.4711,1002.4499,298.0302,1.2722,-1.0909,0.5813,44.2506,37.1681,30.2211,29.0422,39.0542,,33.4388,
2020-12-20T00:00:00Z,2020-12-17T12:00:00Z,Rio_Bangu,-22.8879,-43.4711,1002.6862,297.8330,0.5811,-0.4485,0.2790,33.1471,54.4620,37.1868,18.2572,53.6156,,38.7355,
2020-12-20T01:00:00Z,2020-12-17T12:00:00Z,Rio_Bangu,-22.8879,-43.4711,1002.3550,297.6202,0.2009,-0.1001,0.2837,28.9724,52.1475,37.4181,33.3549,69.9273,,43.6828,
2020-12-20T02:00:00Z,2020-12-17T12:00:00Z,Rio_Bangu,-22.8879,-43.4711,1001.9197,297.4957,0.2612,-0.1203,0.0294,26.8500,49.0948,35.3568,24.5932,87.2916,,47.4661,
2020-12-20T03:00:00Z,2020-12-17T12:00:00Z,Rio_Bangu,-22.8879,-43.4711,1001.6719,297.3114,0.7013,0.1134,-1.0638,13.9819,41.2542,42.4765,9.2954,113.7818,,52.9956,
2020-12-20T04:00:00Z,2020-12-17T12:00:00Z,Rio_Bangu,-22.8879,-43.4711,1001.4819,297.2121,0.6845,0.8944,-1.6783,0.6838,42.3133,50.7838,10.6761,137.3910,,55.3238,
2020-12-20T05:00:00Z,2020-12-17T12:00:00Z,Rio_Bangu,-22.8879,-43.4711,1000.7578,297.3417,1.1157,0.7968,-1.7399,0.0031,49.7816,49.0450,13.3681,149.6381,,57.3023,
2020-12-20T06:00:00Z,2020-12-17T12:00:00Z,Rio_Bangu,-22.8879,-43.4711,1000.2582,297.3974,0.9164,-0.0674,-1.9970,2.5223,39.2460,50.7443,24.7966,129.8838,,61.2598,
2020-12-20T07:00:00Z,2020-12-17T12:00:00Z,Rio_Bangu,-22.8879,-43.4711,999.9877,297.4489,0.6007,-0.7372,-2.1363,6.8209,25.3464,48.8814,33.5325,112.3796,,65.5662,
2020-12-20T08:00:00Z,2020-12-17T12:00:00Z,Rio_Bangu,-22.8879,-43.4711,1000.7419,297.7731,0.1227,-1.1280,-1.9869,11.8021,41.2025,44.5358,35.0741,105.2530,,69.2907,
2020-12-20T09:00:00Z,2020-12-17T12:00:00Z,Rio_Bangu,-22.8879,-43.4711,1001.3957,298.6607,0.1821,-1.5975,-2.0188,22.8442,75.8556,37.2521,22.5005,92.0024,,67.4277,
2020-12-20T10:00:00Z,2020-12-17T12:00:00Z,Rio_Bangu,-22.8879,-43.4711,1002.1052,299.9944,1.0431,-1.6162,-1.9161,41.7008,94.0806,24.8225,19.0646,49.1273,,52.4682,
2020-12-20T11:00:00Z,2020-12-17T12:00:00Z,Rio_Bangu,-22.8879,-43.4711,1002.3968,301.4405,5.9158,-1.3528,-1.6315,58.5537,117.2249,17.8570,13.1308,31.1599,,35.4714,
2020-12-20T12:00:00Z,2020-12-17T12:00:00Z,Rio_Bangu,-22.8879,-43.4711,1002.1496,302.8543,5.6103,-1.6292,-1.6979,77.9475,121.2889,12.8408,13.0352,23.8776,,25.7510,
2020-12-20T13:00:00Z,2020-12-17T12:00:00Z,Rio_Bangu,-22.8879,-43.4711,1001.4654,304.0391,4.0531,-1.9802,-1.7603,98.8424,134.2535,9.0562,11.9647,22.2488,,21.1827,
2020-12-20T14:00:00Z,2020-12-17T12:00:00Z,Rio_Bangu,-22.8879,-43.4711,1000.6407,305.0687,4.2245,-2.0339,-1.3837,117.0551,132.0721,6.6811,10.8692,23.0615,,18.9135,
2020-12-20T15:00:00Z,2020-12-17T12:00:00Z,Rio_Bangu,-22.8879,-43.4711,1000.2794,305.5988,2.9393,-2.1812,-0.5789,131.3286,153.8952,5.6262,13.2873,24.7458,,18.0701,
2020-12-20T16:00:00Z,2020-12-17T12:00:00Z,Rio_Bangu,-22.8879,-43.4711,999.6678,305.3643,2.6338,-2.6775,0.1605,140.8097,171.5130,5.6666,16.6290,26.4930,,18.7690,
2020-12-20T17:00:00Z,2020-12-17T12:00:00Z,Rio_Bangu,-22.8879,-43.4711,999.1223,304.4700,2.8759,-3.3658,0.4746,141.1463,162.4798,6.7237,22.0338,27.3657,,21.0110,
2020-12-20T18:00:00Z,2020-12-17T12:00:00Z,Rio_Bangu,-22.8879,-43.4711,998.9265,303.9450,1.2349,-3.2252,0.1723,134.9569,115.0810,6.9722,23.9414,25.6486,,21.9722,
2020-12-20T19:00:00Z,2020-12-17T12:00:00Z,Rio_Bangu,-22.8879,-43.4711,999.2698,303.9612,0.5104,-2.8483,0.0203,123.7280,73.1121,10.6663,28.0199,24.3081,,21.6237,
2020-12-20T20:00:00Z,2020-12-17T12:00:00Z,Rio_Bangu,-22.8879,-43.4711,999.5589,303.5527,0.4703,-2.7789,0.0733,108.6603,64.5331,18.4513,33.9352,24.7177,,22.9914,
2020-12-20T21:00:00Z,2020-12-17T12:00:00Z,Rio_Bangu,-22.8879,-43.4711,999.6677,302.5405,0.2454,-2.9191,0.1439,86.6068,38.1218,32.5077,31.0383,27.1884,,29.6277,
2020-12-20T22:00:00Z,2020-12-17T12:00:00Z,Rio_Bangu,-22.8879,-43.4711,999.7205,301.7947,0.1630,-3.1753,-0.1107,90.7214,27.1715,17.2283,21.1685,21.8814,,38.0982,
2020-12-20T23:00:00Z,2020-12-17T12:00:00Z,Rio_Bangu,-22.8879,-43.4711,1000.3199,301.3145,0.1581,-2.8769,-0.5492,84.3385,22.9167,14.7003,13.0814,21.0776,,45.8986,
2020-12-21T00:00:00Z,2020-12-17T12:00:00Z,Rio_Bangu,-22.8879,-43.4711,1000.8878,301.2245,0.5625,-1.8389,-1.1080,78.4939,111.9619,14.3385,18.1732,20.8004,,51.8359,
2020-12-21T01:00:00Z,2020-12-17T12:00:00Z,Rio_Bangu,-22.8879,-43.4711,1001.1179,301.2459,1.2107,-0.8991,-1.4446,73.1460,98.6429,14.5549,13.0122,19.9305,,54.8035,
2020-12-21T02:00:00Z,2020-12-17T12:00:00Z,Rio_Bangu,-22.8879,-43.4711,1001.1225,301.1981,1.6727,-0.5029,-1.8932,68.8020,85.4795,14.3432,22.2197,17.7798,,53.4646,
2020-12-21T03:00:00Z,2020-12-17T12:00:00Z,Rio_Bangu,-22.8879,-43.4711,1000.2122,301.0233,1.0654,-0.6778,-2.1765,66.9929,95.5619,13.9105,22.6615,15.8595,,48.2259,
2020-12-21T04:00:00Z,2020-12-17T12:00:00Z,Rio_Bangu,-22.8879,-43.4711,999.7874,300.7433,0.5439,-0.8656,-2.0973,67.3622,107.2603,13.5428,15.4043,15.8307,,44.3261,
2020-12-21T05:00:00Z,2020-12-17T12:00:00Z,Rio_Bangu,-22.8879,-43.4711,999.7004,300.1893,0.2233,-1.0175,-2.1500,63.0041,83.5433,18.4194,23.4434,20.2890,,41.8815,
2020-12-21T06:00:00Z,2020-12-17T12:00:00Z,Rio_Bangu,-22.8879,-43.4711,999.8085,299.7007,0.0853,-1.0507,-2.2106,52.2957,77.9646,28.0397,18.6525,29.1691,,40.0184,
2020-12-21T07:00:00Z,2020-12-17T12:00:00Z,Rio_Bangu,-22.8879,-43.4711,1000.2316,299.3120,0.0283,-0.9255,-2.3474,40.8755,77.0241,38.3654,21.2056,39.6093,,38.8536,
2020-12-21T08:00:00Z,2020-12-17T12:00:00Z,Rio_Bangu,-22.8879,-43.4711,1001.3206,299.1751,0.0003,-0.6810,-2.3969,37.2273,85.1537,43.2211,18.0348,46.7970,,38.6782,
2020-12-21T09:00:00Z,2020-12-17T12:00:00Z,Rio_Bangu,-22.8879,-43.4711,1002.0023,299.7223,0.0000,-0.5611,-3.1693,31.1182,84.6728,49.0928,17.7035,57.8541,,38.4445,
2020-12-21T10:00:00Z,2020-12-17T12:00:00Z,Rio_Bangu,-22.8879,-43.4711,1001.7654,300.6204,0.0033,-0.4787,-3.5325,48.6545,106.2496,34.7693,13.7570,46.9778,,32.6231,
2020-12-21T11:00:00Z,2020-12-17T12:00:00Z,Rio_Bangu,-22.8879,-43.4711,1002.0875,302.1391,0.0106,-0.1442,-3.4198,76.6783,123.6235,17.8102,6.7184,23.8514,,24.0373,
2020-12-21T12:00:00Z,2020-12-17T12:00:00Z,Rio_Bangu,-22.8879,-43.4711,1002.0118,303.7903,0.1912,0.2029,-3.0701,95.8739,109.7837,10.4361,7.0560,17.2184,,18.6817,
2020-12-21T13:00:00Z,2020-12-17T12:00:00Z,Rio_Bangu,-22.8879,-43.4711,1001.7252,305.3471,0.8158,0.4269,-2.3519,111.6733,104.3233,8.1085,5.8812,18.6798,,16.3536,
2020-12-21T14:00:00Z,2020-12-17T12:00:00Z,Rio_Bangu,-22.8879,-43.4711,1001.3361,306.4896,1.6019,0.6753,-0.8247,128.4503,131.7912,6.7205,9.6222,21.4878,,15.8885,
2020-12-21T15:00:00Z,2020-12-17T12:00:00Z,Rio_Bangu,-22.8879,-43.4711,1001.0317,306.1624,3.7365,1.2119,1.8516,139.0961,133.8213,7.1995,9.1274,24.6675,,18.8289,
2020-12-21T16:00:00Z,2020-12-17T12:00:00Z,Rio_Bangu,-22.8879,-43.4711,1000.9077,304.1038,5.4315,2.2039,4.6709,139.1356,126.0385,6.4126,8.7375,26.9433,,26.4252,
2020-12-21T17:00:00Z,2020-12-17T12:00:00Z,Rio_Bangu,-22.8879,-43.4711,1001.3275,301.8727,2.6450,2.9493,5.4957,126.1781,111.7579,7.2906,9.7404,31.5075,,34.0795,
2020-12-21T18:00:00Z,2020-12-17T12:00:00Z,Rio_Bangu,-22.8879,-43.4711,1002.0519,300.6976,6.7204,3.1666,5.0151,101.2311,81.5023,9.3767,11.6256,31.4199,,35.9430,
2020-12-21T19:00:00Z,2020-12-17T12:00:00Z,Rio_Bangu,-22.8879,-43.4711,1002.6584,300.1200,17.2257,2.9314,4.1919,71.8494,47.7753,10.7991,14.4360,23.7094,,34.8961,
2020-12-21T20:00:00Z,2020-12-17T12:00:00Z,Rio_Bangu,-22.8879,-43.4711,1002.9611,299.6386,19.7887,2.2945,2.9774,52.2465,58.2516,16.8426,15.7965,21.1588,,39.6697,
2020-12-21T21:00:00Z,2020-12-17T12:00:00Z,Rio_Bangu,-22.8879,-43.4711,1002.9999,299.0878,7.7933,1.1347,1.3916,36.9061,49.6261,26.8638,17.3596,26.8871,,45.7235,
2020-12-21T22:00:00Z,2020-12-17T12:00:00Z,Rio_Bangu,-22.8879,-43.4711,1002.5586,298.7889,14.5435,1.2034,1.4027,32.2475,36.7091,28.2566,17.0751,30.8622,,51.0206,
2020-12-21T23:00:00Z,2020-12-17T12:00:00Z,Rio_Bangu,-22.8879,-43.4711,1003.8396,298.7091,23.8121,1.8493,0.8207,27.4697,50.2399,29.9777,13.7704,37.4274,,56.7257,
2020-12-22T00:00:00Z,2020-12-17T12:00:00Z,Rio_Bangu,-22.8879,-43.4711,1005.3496,298.6970,77.9629,2.1634,0.5287,24.3453,45.3769,29.8615,10.3821,47.3698,,58.8805,
2020-12-22T01:00:00Z,2020-12-17T12:00:00Z,Rio_Bangu,-22.8879,-43.4711,1005.5569,298.6452,69.4990,1.6355,0.4987,21.7805,44.1720,27.4602,9.4922,53.1853,,57.3683,
2020-12-22T02:00:00Z,2020-12-17T12:00:00Z,Rio_Bangu,-22.8879,-43.4711,1004.2967,298.5040,24.2591,1.8501,0.2832,18.7957,38.6597,25.9491,7.9248,62.6897,,57.1946,
2020-12-22T03:00:00Z,2020-12-17T12:00:00Z,Rio_Bangu,-22.8879,-43.4711,1003.3932,298.4030,21.7557,2.2807,-0.1656,16.3560,32.8376,24.2831,5.8536,77.9401,,64.1806,
2020-12-22T04:00:00Z,2020-12-17T12:00:00Z,Rio_Bangu,-22.8879,-43.4711,1002.9108,298.3942,59.9623,2.1495,-0.6945,10.8011,30.0686,26.5181,10.6077,97.0611,,71.8640,
2020-12-22T05:00:00Z,2020-12-17T12:00:00Z,Rio_Bangu,-22.8879,-43.4711,1002.5152,298.4139,54.5382,2.2014,-0.2144,11.4587,31.8699,23.5848,12.3774,102.3125,,80.3623,
2020-12-22T06:00:00Z,2020-12-17T12:00:00Z,Rio_Bangu,-22.8879,-43.4711,1002.1529,298.3269,22.7988,2.4558,0.6047,18.0048,36.4831,17.4711,10.6693,95.9320,,96.3108,
2020-12-22T07:00:00Z,2020-12-17T12:00:00Z,Rio_Bangu,-22.8879,-43.4711,1002.4141,298.1971,36.6569,2.9156,1.4645,22.7053,47.0603,15.5617,11.5929,82.0639,,111.7938,
2020-12-22T08:00:00Z,2020-12-17T12:00:00Z,Rio_Bangu,-22.8879,-43.4711,1003.7939,298.2155,59.8431,3.5379,1.7448,24.7710,46.7014,16.9371,15.6900,53.6750,,114.0064,
2020-12-22T09:00:00Z,2020-12-17T12:00:00Z,Rio_Bangu,-22.8879,-43.4711,1004.5059,298.3796,49.5315,3.7876,1.8947,27.4617,40.6416,16.5604,12.2946,26.2110,,102.3637,
2020-12-22T10:00:00Z,2020-12-17T12:00:00Z,Rio_Bangu,-22.8879,-43.4711,1005.0555,298.5148,90.7183,3.7945,2.2586,32.1313,45.5101,12.6316,12.1595,15.8807,,95.6116,
2020-12-22T11:00:00Z,2020-12-17T12:00:00Z,Rio_Bangu,-22.8879,-43.4711,1005.3752,298.6938,132.5607,4.0038,2.7777,35.7416,48.4090,10.4601,9.5581,14.4585,,66.2758,
2020-12-17T12:00:00Z,2020-12-17T12:00:00Z,Rio_CampoGrande,-22.8863,-43.5565,1007.8810,299.6289,48.1606,-2.5676,-0.8153,56.5172,51.6243,23.6962,31.0008,36.5728,,19.1244,
2020-12-17T13:00:00Z,2020-12-17T12:00:00Z,Rio_CampoGrande,-22.8863,-43.5565,1007.6956,300.2180,37.0145,-2.7209,-0.6968,63.0507,60.6887,19.7000,27.9381,33.6366,,20.7322,
2020-12-17T14:00:00Z,2020-12-17T12:00:00Z,Rio_CampoGrande,-22.8863,-43.5565,1006.9755,300.8160,27.1797,-3.0270,-0.9261,73.5666,80.1097,17.4368,31.2704,31.8908,,21.1797,
2020-12-17T15:00:00Z,2020-12-17T12:00:00Z,Rio_CampoGrande,-22.8863,-43.5565,1006.1136,301.4892,29.6235,-2.8843,-0.9654,91.7305,69.3506,15.0725,29.0998,30.1971,,20.9757,
2020-12-17T16:00:00Z,2020-12-17T12:00:00Z,Rio_CampoGrande,-22.8863,-43.5565,1005.8204,302.0876,35.5840,-2.3389,-0.4745,106.0672,48.7650,14.8774,31.2572,30.7640,,20.8361,
2020-12-17T17:00:00Z,2020-12-17T12:00:00Z,Rio_CampoGrande,-22.8863,-43.5565,1004.8235,302.1109,37.1337,-1.9964,0.6439,113.8893,65.6528,14.7544,31.7142,30.8575,,21.5909,
2020-12-17T18:00:00Z,2020-12-17T12:00:00Z,Rio_CampoGrande,-22.8863,-43.5565,1003.5925,301.3430,220.7756,-1.9483,1.5739,111.0180,30.6901,15.2833,33.2844,29.2320,,22.1133,
2020-12-17T19:00:00Z,2020-12-17T12:00:00Z,Rio_CampoGrande,-22.8863,-43.5565,1004.2130,300.3187,820.1599,-1.3333,0.7902,96.8581,20.0769,21.9404,44.2548,31.1389,,23.3635,
2020-12-17T20:00:00Z,2020-12-17T12:00:00Z,Rio_CampoGrande,-22.8863,-43.5565,1003.8022,299.7005,720.0241,-1.2752,-0.8917,70.2313,13.7648,41.2028,38.1331,41.5777,,28.9523,
2020-12-17T21:00:00Z,2020-12-17T12:00:00Z,Rio_CampoGrande,-22.8863,-43.5565,1003.8370,299.4351,51.3792,-0.7936,-1.7952,76.4919,27.3380,28.7175,26.5858,27.1175,,30.9908,
2020-12-17T22:00:00Z,2020-12-17T12:00:00Z,Rio_CampoGrande,-22.8863,-43.5565,1003.1192,299.1353,0.2009,-0.9053,-1.6163,72.9079,32.5903,23.8661,37.0897,19.6533,,30.2925,
2020-12-17T23:00:00Z,2020-12-17T12:00:00Z,Rio_CampoGrande,-22.8863,-43.5565,1003.8776,299.1977,3.7998,-1.0217,-0.6549,66.9722,26.4262,24.0953,31.5872,20.4667,,33.0870,
2020-12-18T00:00:00Z,2020-12-17T12:00:00Z,Rio_CampoGrande,-22.8863,-43.5565,1004.3463,298.9626,8.3894,-1.3963,-0.5900,62.2019,44.1269,24.4500,25.2541,21.3743,,38.9140,
2020-12-18T01:00:00Z,2020-12-17T12:00:00Z,Rio_CampoGrande,-22.8863,-43.5565,1005.2628,298.6977,35.0475,-1.6168,-0.5508,55.6980,28.7547,27.5828,37.0406,23.1550,,44.3964,
2020-12-18T02:00:00Z,2020-12-17T12:00:00Z,Rio_CampoGrande,-22.8863,-43.5565,1005.2087,298.5435,89.2878,-1.5865,-0.4194,49.7271,34.4569,30.7401,39.2283,25.4993,,49.1641,
2020-12-18T03:00:00Z,2020-12-17T12:00:00Z,Rio_CampoGrande,-22.8863,-43.5565,1004.6594,298.1674,801.0864,-0.8790,-1.5962,39.2892,41.1300,38.7374,22.5134,30.6275,,53.6458,
2020-12-18T04:00:00Z,2020-12-17T12:00:00Z,Rio_CampoGrande,-22.8863,-43.5565,1004.5594,297.7278,250.3395,-0.2252,-2.9248,30.2728,34.0833,46.8313,23.1949,32.9114,,49.8119,
2020-12-18T05:00:00Z,2020-12-17T12:00:00Z,Rio_CampoGrande,-22.8863,-43.5565,1003.7423,297.6560,31.7693,-0.5341,-2.5373,31.7853,23.1486,43.8725,35.6758,32.8538,,42.3042,
2020-12-18T06:00:00Z,2020-12-17T12:00:00Z,Rio_CampoGrande,-22.8863,-43.5565,1003.2401,297.5962,0.6156,-0.5142,-2.3880,27.7259,30.8759,46.4648,27.7231,38.0426,,40.4984,
2020-12-18T07:00:00Z,2020-12-17T12:00:00Z,Rio_CampoGrande,-22.8863,-43.5565,1002.4774,297.3418,0.0001,-0.4684,-2.3406,14.0342,25.1131,59.9323,28.3839,52.9194,,41.8327,
2020-12-18T08:00:00Z,2020-12-17T12:00:00Z,Rio_CampoGrande,-22.8863,-43.5565,1002.6512,297.2860,0.0002,-0.2360,-1.6892,7.0055,25.6241,68.7515,11.9639,71.0469,,44.0998,
2020-12-18T09:00:00Z,2020-12-17T12:00:00Z,Rio_CampoGrande,-22.8863,-43.5565,1003.3622,297.7871,0.0184,0.2863,-0.9455,18.4272,48.9309,55.9893,24.0170,76.6708,,44.2718,
2020-12-18T10:00:00Z,2020-12-17T12:00:00Z,Rio_CampoGrande,-22.8863,-43.5565,1003.8688,299.5094,0.8736,1.0627,-0.3787,43.6439,59.2618,32.3811,23.5641,51.9187,,33.8495,
2020-12-18T11:00:00Z,2020-12-17T12:00:00Z,Rio_CampoGrande,-22.8863,-43.5565,1003.8975,300.4055,3.0920,1.3452,0.8056,59.8541,62.7155,22.5729,18.3724,38.6632,,29.8317,
2020-12-18T12:00:00Z,2020-12-17T12:00:00Z,Rio_CampoGrande,-22.8863,-43.5565,1003.9016,300.5826,11.2206,1.5879,2.1716,73.0623,63.0788,16.8324,20.2305,36.5971,,30.2393,
2020-12-18T13:00:00Z,2020-12-17T12:00:00Z,Rio_CampoGrande,-22.8863,-43.5565,1004.1788,300.2775,21.5769,1.6255,3.4767,83.6077,89.4179,12.9503,17.9549,32.0629,,32.0425,
2020-12-18T14:00:00Z,2020-12-17T12:00:00Z,Rio_CampoGrande,-22.8863,-43.5565,1004.3509,300.1039,25.0936,1.4789,4.1977,89.9682,83.3165,9.9423,13.3805,26.5226,,29.4229,
2020-12-18T15:00:00Z,2020-12-17T12:00:00Z,Rio_CampoGrande,-22.8863,-43.5565,1004.5640,299.9155,29.9215,1.3706,4.4743,85.8793,78.3531,9.0338,13.7401,23.1752,,24.6487,
2020-12-18T16:00:00Z,2020-12-17T12:00:00Z,Rio_CampoGrande,-22.8863,-43.5565,1004.0729,299.7538,31.1136,0.9884,4.3868,78.1169,37.5207,8.8320,15.6840,20.5495,,21.2141,
2020-12-18T17:00:00Z,2020-12-17T12:00:00Z,Rio_CampoGrande,-22.8863,-43.5565,1003.8926,299.4016,34.8687,0.9175,4.3777,68.7303,38.5516,9.7181,20.3772,17.6440,,18.5663,
2020-12-18T18:00:00Z,2020-12-17T12:00:00Z,Rio_CampoGrande,-22.8863,-43.5565,1003.4073,298.9494,27.8354,0.6249,4.1807,58.7628,34.5128,11.4440,25.7053,14.6149,,16.7043,
2020-12-18T19:00:00Z,2020-12-17T12:00:00Z,Rio_CampoGrande,-22.8863,-43.5565,1002.3637,298.6521,41.4848,-0.6163,4.0692,49.7938,32.9095,13.9699,32.1014,12.9308,,14.8267,
2020-12-18T20:00:00Z,2020-12-17T12:00:00Z,Rio_CampoGrande,-22.8863,-43.5565,1001.2404,298.2042,526.4282,-0.7782,4.0297,38.7558,27.7229,18.8409,32.7186,14.9667,,15.6555,
2020-12-18T21:00:00Z,2020-12-17T12:00:00Z,Rio_CampoGrande,-22.8863,-43.5565,1003.7399,297.9521,573.1583,0.0907,2.3845,29.6027,26.0804,22.5382,28.6962,19.8447,,23.7754,
2020-12-18T22:00:00Z,2020-12-17T12:00:00Z,Rio_CampoGrande,-22.8863,-43.5565,1004.0372,297.8170,658.0353,0.1724,1.7013,24.8102,17.9780,23.2337,31.0741,26.5015,,24.8236,
2020-12-18T23:00:00Z,2020-12-17T12:00:00Z,Rio_CampoGrande,-22.8863,-43.5565,1004.3962,297.8168,47.0281,0.6981,0.9623,23.6291,13.0461,21.8029,31.5376,33.0310,,25.1734,
2020-12-19T00:00:00Z,2020-12-17T12:00:00Z,Rio_CampoGrande,-22.8863,-43.5565,1005.1376,297.7704,12.4127,1.5092,0.7032,23.2816,26.0290,20.0560,28.9195,39.7777,,27.1239,
2020-12-19T01:00:00Z,2020-12-17T12:00:00Z,Rio_CampoGrande,-22.8863,-43.5565,1004.9399,297.6572,0.6007,1.5612,0.9752,23.3426,22.5762,18.7550,26.7270,42.5877,,27.1823,
2020-12-19T02:00:00Z,2020-12-17T12:00:00Z,Rio_CampoGrande,-22.8863,-43.5565,1004.5677,297.6505,1.7565,1.4220,0.2781,23.0226,22.2122,19.4549,27.4242,46.7121,,28.0266,
2020-12-19T03:00:00Z,2020-12-17T12:00:00Z,Rio_CampoGrande,-22.8863,-43.5565,1003.4381,297.5189,1.3523,0.7437,-0.1853,21.7602,21.5025,20.3377,19.5757,54.5878,,31.2280,
2020-12-19T04:00:00Z,2020-12-17T12:00:00Z,Rio_CampoGrande,-22.8863,-43.5565,1002.5176,297.2200,6.4746,0.1038,-0.7085,13.4596,14.2059,26.8568,26.9341,69.6494,,37.3975,
2020-12-19T05:00:00Z,2020-12-17T12:00:00Z,Rio_CampoGrande,-22.8863,-43.5565,1002.0626,297.0870,5.8413,0.3240,-0.9417,8.5574,10.7976,29.8708,30.3847,86.3961,,42.0529,
2020-12-19T06:00:00Z,2020-12-17T12:00:00Z,Rio_CampoGrande,-22.8863,-43.5565,1002.1796,296.9818,1.6131,0.8154,-1.0177,3.9618,11.6065,32.4387,23.8830,100.5172,,44.8459,
2020-12-19T07:00:00Z,2020-12-17T12:00:00Z,Rio_CampoGrande,-22.8863,-43.5565,1002.2518,296.9425,0.2859,1.0232,-0.5952,1.9140,15.9927,33.3693,19.7096,103.2649,,44.9036,
2020-12-19T08:00:00Z,2020-12-17T12:00:00Z,Rio_CampoGrande,-22.8863,-43.5565,1002.3335,296.9658,0.2054,0.7848,-0.5739,2.8674,27.6033,32.1194,23.4686,101.2643,,43.7982,
2020-12-19T09:00:00Z,2020-12-17T12:00:00Z,Rio_CampoGrande,-22.8863,-43.5565,1002.7053,297.5214,0.0188,0.4696,-0.8927,6.1155,44.8912,32.8310,25.2798,69.6402,,35.0659,
2020-12-19T10:00:00Z,2020-12-17T12:00:00Z,Rio_CampoGrande,-22.8863,-43.5565,1002.9292,298.7829,0.0118,0.0001,-0.9601,16.2428,55.1561,31.0242,26.2257,44.0817,,27.0033,
2020-12-19T11:00:00Z,2020-12-17T12:00:00Z,Rio_CampoGrande,-22.8863,-43.5565,1003.3226,299.8520,0.0078,-0.7408,-0.3243,26.9855,64.7397,25.8612,20.6297,40.7169,,25.6639,
2020-12-19T12:00:00Z,2020-12-17T12:00:00Z,Rio_CampoGrande,-22.8863,-43.5565,1003.1915,300.8206,0.0336,-1.0301,0.6176,35.1877,70.9890,23.8952,21.3573,39.4178,,25.1397,
2020-12-19T13:00:00Z,2020-12-17T12:00:00Z,Rio_CampoGrande,-22.8863,-43.5565,1003.1503,301.4297,0.2589,-1.2464,1.8271,43.6144,80.6009,21.9704,22.5490,39.3638,,25.6055,
2020-12-19T14:00:00Z,2020-12-17T12:00:00Z,Rio_CampoGrande,-22.8863,-43.5565,1002.6563,301.5831,2.0191,-1.5959,2.7399,53.7931,81.0305,18.7633,21.2895,38.8596,,26.2175,
2020-12-19T15:00:00Z,2020-12-17T12:00:00Z,Rio_CampoGrande,-22.8863,-43.5565,1002.0328,301.4745,1.8328,-1.8602,3.2888,66.1208,77.9067,14.2895,20.3187,37.4898,,26.0144,
2020-12-19T16:00:00Z,2020-12-17T12:00:00Z,Rio_CampoGrande,-22.8863,-43.5565,1001.1678,301.1752,3.7812,-2.1874,3.4384,75.6244,69.9046,11.1066,20.5342,36.4273,,24.8799,
2020-12-19T17:00:00Z,2020-12-17T12:00:00Z,Rio_CampoGrande,-22.8863,-43.5565,1000.5793,300.7817,7.2792,-2.6169,3.1881,82.0505,72.5446,9.5345,20.1400,34.8026,,23.0761,
2020-12-19T18:00:00Z,2020-12-17T12:00:00Z,Rio_CampoGrande,-22.8863,-43.5565,1000.0054,300.3972,4.0010,-3.0196,2.8176,82.5559,47.7419,9.5546,29.3333,32.5532,,20.8357,
2020-12-19T19:00:00Z,2020-12-17T12:00:00Z,Rio_CampoGrande,-22.8863,-43.5565,1000.0905,299.8678,7.8976,-3.3277,2.3933,76.6568,21.2907,11.4115,30.5126,29.2417,,18.6826,
2020-12-19T20:00:00Z,2020-12-17T12:00:00Z,Rio_CampoGrande,-22.8863,-43.5565,1000.4555,299.2791,6.4522,-3.2224,1.8466,63.4680,35.0673,19.4044,36.1632,29.2111,,18.6829,
2020-12-19T21:00:00Z,2020-12-17T12:00:00Z,Rio_CampoGrande,-22.8863,-43.5565,1001.0358,298.4805,1.1604,-2.4703,1.1130,52.1795,18.1548,27.1898,46.7196,30.9918,,22.4958,
2020-12-19T22:00:00Z,2020-12-17T12:00:00Z,Rio_CampoGrande,-22.8863,-43.5565,1001.6003,298.1454,0.3106,-1.9623,0.6902,49.3325,20.2149,27.8037,38.9844,30.1796,,27.7345,
2020-12-19T23:00:00Z,2020-12-17T12:00:00Z,Rio_CampoGrande,-22.8863,-43.5565,1002.4499,298.0302,1.2722,-1.0909,0.5813,44.2506,21.9877,30.2211,39.5630,39.0542,,33.4388,
2020-12-20T00:00:00Z,2020-12-17T12:00:00Z,Rio_CampoGrande,-22.8863,-43.5565,1002.6862,297.8330,0.5811,-0.4485,0.2790,33.1471,30.1638,37.1868,29.0416,53.6156,,38.7355,
2020-12-20T01:00:00Z,2020-12-17T12:00:00Z,Rio_CampoGrande,-22.8863,-43.5565,1002.3550,297.6202,0.2009,-0.1001,0.2837,28.9724,28.0695,37.4181,29.2441,69.9273,,43.6828,
2020-12-20T02:00:00Z,2020-12-17T12:00:00Z,Rio_CampoGrande,-22.8863,-43.5565,1001.9197,297.4957,0.2612,-0.1203,0.0294,26.8500,30.4833,35.3568,21.7510,87.2916,,47.4661,
2020-12-20T03:00:00Z,2020-12-17T12:00:00Z,Rio_CampoGrande,-22.8863,-43.5565,1001.6719,297.3114,0.7013,0.1134,-1.0638,13.9819,24.8391,42.4765,24.2189,113.7818,,52.9956,
2020-12-20T04:00:00Z,2020-12-17T12:00:00Z,Rio_CampoGrande,-22.8863,-43.5565,1001.4819,297.2121,0.6845,0.8944,-1.6783,0.6838,8.2978,50.7838,22.2149,137.3910,,55.3238,
2020-12-20T05:00:00Z,2020-12-17T12:00:00Z,Rio_CampoGrande,-22.8863,-43.5565,1000.7578,297.3417,1.1157,0.7968,-1.7399,0.0031,8.5679,49.0450,26.2473,149.6381,,57.3023,
2020-12-20T06:00:00Z,2020-12-17T12:00:00Z,Rio_CampoGrande,-22.8863,-43.5565,1000.2582,297.3974,0.9164,-0.0674,-1.9970,2.5223,9.3345,50.7443,23.7440,129.8838,,61.2598,
2020-12-20T07:00:00Z,2020-12-17T12:00:00Z,Rio_CampoGrande,-22.8863,-43.5565,999.9877,297.4489,0.6007,-0.7372,-2.1363,6.8209,9.7371,48.8814,27.3942,112.3796,,65.5662,
2020-12-20T08:00:00Z,2020-12-17T12:00:00Z,Rio_CampoGrande,-22.8863,-43.5565,1000.7419,297.7731,0.1227,-1.1280,-1.9869,11.8021,31.5708,44.5358,25.8772,105.2530,,69.2907,
2020-12-20T09:00:00Z,2020-12-17T12:00:00Z,Rio_CampoGrande,-22.8863,-43.5565,1001.3957,298.6607,0.1821,-1.5975,-2.0188,22.8442,58.9412,37.2521,26.3906,92.0024,,67.4277,
2020-12-20T10:00:00Z,2020-12-17T12:00:00Z,Rio_CampoGrande,-22.8863,-43.5565,1002.1052,299.9944,1.0431,-1.6162,-1.9161,41.7008,63.9772,24.8225,21.8042,49.1273,,52.4682,
2020-12-20T11:00:00Z,2020-12-17T12:00:00Z,Rio_CampoGrande,-22.8863,-43.5565,1002.3968,301.4405,5.9158,-1.3528,-1.6315,58.5537,72.5782,17.8570,18.5175,31.1599,,35.4714,
2020-12-20T12:00:00Z,2020-12-17T12:00:00Z,Rio_CampoGrande,-22.8863,-43.5565,1002.1496,302.8543,5.6103,-1.6292,-1.6979,77.9475,74.7025,12.8408,22.4691,23.8776,,25.7510,
2020-12-20T13:00:00Z,2020-12-17T12:00:00Z,Rio_CampoGrande,-22.8863,-43.5565,1001.4654,304.0391,4.0531,-1.9802,-1.7603,98.8424,72.8433,9.0562,25.0244,22.2488,,21.1827,
2020-12-20T14:00:00Z,2020-12-17T12:00:00Z,Rio_CampoGrande,-22.8863,-43.5565,1000.6407,305.0687,4.2245,-2.0339,-1.3837,117.0551,73.8429,6.6811,18.3888,23.0615,,18.9135,
2020-12-20T15:00:00Z,2020-12-17T12:00:00Z,Rio_CampoGrande,-22.8863,-43.5565,1000.2794,305.5988,2.9393,-2.1812,-0.5789,131.3286,84.8979,5.6262,21.4079,24.7458,,18.0701,
2020-12-20T16:00:00Z,2020-12-17T12:00:00Z,Rio_CampoGrande,-22.8863,-43.5565,999.6678,305.3643,2.6338,-2.6775,0.1605,140.8097,107.5042,5.6666,29.5511,26.4930,,18.7690,
2020-12-20T17:00:00Z,2020-12-17T12:00:00Z,Rio_CampoGrande,-22.8863,-43.5565,999.1223,304.4700,2.8759,-3.3658,0.4746,141.1463,96.8425,6.7237,35.8879,27.3657,,21.0110,
2020-12-20T18:00:00Z,2020-12-17T12:00:00Z,Rio_CampoGrande,-22.8863,-43.5565,998.9265,303.9450,1.2349,-3.2252,0.1723,134.9569,62.4186,6.9722,33.6735,25.6486,,21.9722,
2020-12-20T19:00:00Z,2020-12-17T12:00:00Z,Rio_CampoGrande,-22.8863,-43.5565,999.2698,303.9612,0.5104,-2.8483,0.0203,123.7280,57.0537,10.6663,31.8864,24.3081,,21.6237,
2020-12-20T20:00:00Z,2020-12-17T12:00:00Z,Rio_CampoGrande,-22.8863,-43.5565,999.5589,303.5527,0.4703,-2.7789,0.0733,108.6603,13.0763,18.4513,41.5607,24.7177,,22.9914,
2020-12-20T21:00:00Z,2020-12-17T12:00:00Z,Rio_CampoGrande,-22.8863,-43.5565,999.6677,302.5405,0.2454,-2.9191,0.1439,86.6068,61.5599,32.5077,33.0712,27.1884,,29.6277,
2020-12-20T22:00:00Z,2020-12-17T12:00:00Z,Rio_CampoGrande,-22.8863,-43.5565,999.7205,301.7947,0.1630,-3.1753,-0.1107,90.7214,56.3819,17.2283,36.3820,21.8814,,38.0982,
2020-12-20T23:00:00Z,2020-12-17T12:00:00Z,Rio_CampoGrande,-22.8863,-43.5565,1000.3199,301.3145,0.1581,-2.8769,-0.5492,84.3385,55.5994,14.7003,40.5474,21.0776,,45.8986,
2020-12-21T00:00:00Z,2020-12-17T12:00:00Z,Rio_CampoGrande,-22.8863,-43.5565,1000.8878,301.2245,0.5625,-1.8389,-1.1080,78.4939,38.5882,14.3385,33.8306,20.8004,,51.8359,
2020-12-21T01:00:00Z,2020-12-17T12:00:00Z,Rio_CampoGrande,-22.8863,-43.5565,1001.1179,301.2459,1.2107,-0.8991,-1.4446,73.1460,35.5432,14.5549,23.3107,19.9305,,54.8035,
2020-12-21T02:00:00Z,2020-12-17T12:00:00Z,Rio_CampoGrande,-22.8863,-43.5565,1001.1225,301.1981,1.6727,-0.5029,-1.8932,68.8020,32.6515,14.3432,29.0912,17.7798,,53.4646,
2020-12-21T03:00:00Z,2020-12-17T12:00:00Z,Rio_CampoGrande,-22.8863,-43.5565,1000.2122,301.0233,1.0654,-0.6778,-2.1765,66.9929,30.8543,13.9105,19.9376,15.8595,,48.2259,
2020-12-21T04:00:00Z,2020-12-17T12:00:00Z,Rio_CampoGrande,-22.8863,-43.5565,999.7874,300.7433,0.5439,-0.8656,-2.0973,67.3622,26.2076,13.5428,22.6773,15.8307,,44.3261,
2020-12-21T05:00:00Z,2020-12-17T12:00:00Z,Rio_CampoGrande,-22.8863,-43.5565,999.7004,300.1893,0.2233,-1.0175,-2.1500,63.0041,26.5523,18.4194,35.4851,20.2890,,41.8815,
2020-12-21T06:00:00Z,2020-12-17T12:00:00Z,Rio_CampoGrande,-22.8863,-43.5565,999.8085,299.7007,0.0853,-1.0507,-2.2106,52.2957,22.5555,28.0397,31.9680,29.1691,,40.0184,
2020-12-21T07:00:00Z,2020-12-17T12:00:00Z,Rio_CampoGrande,-22.8863,-43.5565,1000.2316,299.3120,0.0283,-0.9255,-2.3474,40.8755,23.5498,38.3654,27.1635,39.6093,,38.8536,
2020-12-21T08:00:00Z,2020-12-17T12:00:00Z,Rio_CampoGrande,-22.8863,-43.5565,1001.3206,299.1751,0.0003,-0.6810,-2.3969,37.2273,43.2696,43.2211,25.1884,46.7970,,38.6782,
2020-12-21T09:00:00Z,2020-12-17T12:00:00Z,Rio_CampoGrande,-22.8863,-43.5565,1002.0023,299.7223,0.0000,-0.5611,-3.1693,31.1182,53.6926,49.0928,20.6787,57.8541,,38.4445,
2020-12-21T10:00:00Z,2020-12-17T12:00:00Z,Rio_CampoGrande,-22.8863,-43.5565,1001.7654,300.6204,0.0033,-0.4787,-3.5325,48.6545,53.7052,34.7693,23.2584,46.9778,,32.6231,
2020-12-21T11:00:00Z,2020-12-17T12:00:00Z,Rio_CampoGrande,-22.8863,-43.5565,1002.0875,302.1391,0.0106,-0.1442,-3.4198,76.6783,55.1661,17.8102,27.4034,23.8514,,24.0373,
2020-12-21T12:00:00Z,2020-12-17T12:00:00Z,Rio_CampoGrande,-22.8863,-43.5565,1002.0118,303.7903,0.1912,0.2029,-3.0701,95.8739,71.7349,10.4361,32.9890,17.2184,,18.6817,
2020-12-21T13:00:00Z,2020-12-17T12:00:00Z,Rio_CampoGrande,-22.8863,-43.5565,1001.7252,305.3471,0.8158,0.4269,-2.3519,111.6733,75.5701,8.1085,23.4949,18.6798,,16.3536,
2020-12-21T14:00:00Z,2020-12-17T12:00:00Z,Rio_CampoGrande,-22.8863,-43.5565,1001.3361,306.4896,1.6019,0.6753,-0.8247,128.4503,95.3853,6.7205,16.3217,21.4878,,15.8885,
2020-12-21T15:00:00Z,2020-12-17T12:00:00Z,Rio_CampoGrande,-22.8863,-43.5565,1001.0317,306.1624,3.7365,1.2119,1.8516,139.0961,97.8383,7.1995,19.3218,24.6675,,18.8289,
2020-12-21T16:00:00Z,2020-12-17T12:00:00Z,Rio_CampoGrande,-22.8863,-43.5565,1000.9077,304.1038,5.4315,2.2039,4.6709,139.1356,79.3613,6.4126,14.8079,26.9433,,26.4252,
2020-12-21T17:00:00Z,2020-12-17T12:00:00Z,Rio_CampoGrande,-22.8863,-43.5565,1001.3275,301.8727,2.6450,2.9493,5.4957,126.1781,54.2672,7.2906,21.7146,31.5075,,34.0795,
2020-12-21T18:00:00Z,2020-12-17T12:00:00Z,Rio_CampoGrande,-22.8863,-43.5565,1002.0519,300.6976,6.7204,3.1666,5.0151,101.2311,43.7104,9.3767,20.1093,31.4199,,35.9430,
2020-12-21T19:00:00Z,2020-12-17T12:00:00Z,Rio_CampoGrande,-22.8863,-43.5565,1002.6584,300.1200,17.2257,2.9314,4.1919,71.8494,39.3256,10.7991,16.9064,23.7094,,34.8961,
2020-12-21T20:00:00Z,2020-12-17T12:00:00Z,Rio_CampoGrande,-22.8863,-43.5565,1002.9611,299.6386,19.7887,2.2945,2.9774,52.2465,29.8357,16.8426,25.7216,21.1588,,39.6697,
2020-12-21T21:00:00Z,2020-12-17T12:00:00Z,Rio_CampoGrande,-22.8863,-43.5565,1002.9999,299.0878,7.7933,1.1347,1.3916,36.9061,28.4585,26.8638,26.9658,26.8871,,45.7235,
2020-12-21T22:00:00Z,2020-12-17T12:00:00Z,Rio_CampoGrande,-22.8863,-43.5565,1002.5586,298.7889,14.5435,1.2034,1.4027,32.2475,26.9669,28.2566,21.4227,30.8622,,51.0206,
2020-12-21T23:00:00Z,2020-12-17T12:00:00Z,Rio_CampoGrande,-22.8863,-43.5565,1003.8396,298.7091,23.8121,1.8493,0.8207,27.4697,18.9282,29.9777,20.1870,37.4274,,56.7257,
2020-12-22T00:00:00Z,2020-12-17T12:00:00Z,Rio_CampoGrande,-22.8863,-43.5565,1005.3496,298.6970,77.9629,2.1634,0.5287,24.3453,23.6781,29.8615,19.1323,47.3698,,58.8805,
2020-12-22T01:00:00Z,2020-12-17T12:00:00Z,Rio_CampoGrande,-22.8863,-43.5565,1005.5569,298.6452,69.4990,1.6355,0.4987,21.7805,23.3009,27.4602,16.8871,53.1853,,57.3683,
2020-12-22T02:00:00Z,2020-12-17T12:00:00Z,Rio_CampoGrande,-22.8863,-43.5565,1004.2967,298.5040,24.2591,1.8501,0.2832,18.7957,20.9259,25.9491,12.4351,62.6897,,57.1946,
2020-12-22T03:00:00Z,2020-12-17T12:00:00Z,Rio_CampoGrande,-22.8863,-43.5565,1003.3932,298.4030,21.7557,2.2807,-0.1656,16.3560,26.6819,24.2831,9.7633,77.9401,,64.1806,
2020-12-22T04:00:00Z,2020-12-17T12:00:00Z,Rio_CampoGrande,-22.8863,-43.5565,1002.9108,298.3942,59.9623,2.1495,-0.6945,10.8011,31.4678,26.5181,22.2882,97.0611,,71.8640,
2020-12-22T05:00:00Z,2020-12-17T12:00:00Z,Rio_CampoGrande,-22.8863,-43.5565,1002.5152,298.4139,54.5382,2.2014,-0.2144,11.4587,31.1292,23.5848,22.4107,102.3125,,80.3623,
2020-12-22T06:00:00Z,2020-12-17T12:00:00Z,Rio_CampoGrande,-22.8863,-43.5565,1002.1529,298.3269,22.7988,2.4558,0.6047,18.0048,20.2908,17.4711,15.1731,95.9320,,96.3108,
2020-12-22T07:00:00Z,2020-12-17T12:00:00Z,Rio_CampoGrande,-22.8863,-43.5565,1002.4141,298.1971,36.6569,2.9156,1.4645,22.7053,23.1056,15.5617,13.7904,82.0639,,111.7938,
2020-12-22T08:00:00Z,2020-12-17T12:00:00Z,Rio_CampoGrande,-22.8863,-43.5565,1003.7939,298.2155,59.8431,3.5379,1.7448,24.7710,34.3630,16.9371,17.8769,53.6750,,114.0064,
2020-12-22T09:00:00Z,2020-12-17T12:00:00Z,Rio_CampoGrande,-22.8863,-43.5565,1004.5059,298.3796,49.5315,3.7876,1.8947,27.4617,39.3933,16.5604,21.5390,26.2110,,102.3637,
2020-12-22T10:00:00Z,2020-12-17T12:00:00Z,Rio_CampoGrande,-22.8863,-43.5565,1005.0555,298.5148,90.7183,3.7945,2.2586,32.1313,55.2284,12.6316,22.5519,15.8807,,95.6116,
2020-12-22T11:00:00Z,2020-12-17T12:00:00Z,Rio_CampoGrande,-22.8863,-43.5565,1005.3752,298.6938,132.5607,4.0038,2.7777,35.7416,48.9274,10.4601,20.4727,14.4585,,66.2758,
2020-12-17T12:00:00Z,2020-12-17T12:00:00Z,Rio_Iraja,-22.8316,-43.3268,994.4411,300.3164,44.5247,-1.9426,-0.6903,72.5492,86.3132,8.4910,19.6352,16.2603,12.0119,15.6028,13.2796
2020-12-17T13:00:00Z,2020-12-17T12:00:00Z,Rio_Iraja,-22.8316,-43.3268,994.2556,300.5305,44.7631,-2.0608,-1.2219,77.0421,98.5315,7.7909,19.0393,17.3241,16.6045,16.7158,14.4191
2020-12-17T14:00:00Z,2020-12-17T12:00:00Z,Rio_Iraja,-22.8316,-43.3268,993.8555,300.8785,56.8628,-2.4293,-1.7416,83.3599,98.0472,6.9277,18.8624,18.7033,12.5758,18.0365,18.2087
2020-12-17T15:00:00Z,2020-12-17T12:00:00Z,Rio_Iraja,-22.8316,-43.3268,993.3136,301.6767,38.5046,-2.5718,-2.3794,92.7201,110.7368,5.3350,26.3868,18.4784,17.6180,17.5996,20.9920
2020-12-17T16:00:00Z,2020-12-17T12:00:00Z,Rio_Iraja,-22.8316,-43.3268,992.3804,302.4313,35.4052,-2.0460,-2.4813,96.9227,105.6703,5.5610,27.0813,18.6078,13.4200,16.1795,21.0381
2020-12-17T17:00:00Z,2020-12-17T12:00:00Z,Rio_Iraja,-22.8316,-43.3268,991.7036,302.7359,26.7923,-1.7074,-1.9879,97.7499,68.9372,6.4747,42.0105,18.7325,22.9147,15.2463,32.6466
2020-12-17T18:00:00Z,2020-12-17T12:00:00Z,Rio_Iraja,-22.8316,-43.3268,990.4725,302.5617,19.9080,-1.6944,-1.5687,91.3044,50.0382,5.7983,43.4512,16.1695,19.2704,13.7459,27.0443
2020-12-17T19:00:00Z,2020-12-17T12:00:00Z,Rio_Iraja,-22.8316,-43.3268,990.4530,301.7562,400.5432,-0.2601,-1.3036,82.8329,68.2081,6.6263,38.1624,14.5296,19.5719,13.5264,24.7816
2020-12-17T20:00:00Z,2020-12-17T12:00:00Z,Rio_Iraja,-22.8316,-43.3268,991.0023,300.4505,514.9841,0.3666,-0.9523,78.0296,35.1822,8.0595,42.8629,13.5777,14.6392,16.7578,14.4625
2020-12-17T21:00:00Z,2020-12-17T12:00:00Z,Rio_Iraja,-22.8316,-43.3268,990.7170,299.2789,389.0991,0.8046,-1.2112,77.8676,22.1471,9.1948,30.6968,12.6800,12.9300,18.1560,15.3269
2020-12-17T22:00:00Z,2020-12-17T12:00:00Z,Rio_Iraja,-22.8316,-43.3268,989.9992,298.6978,26.3155,0.3728,-2.0050,76.2919,11.9833,10.9938,32.5077,13.1846,14.3665,17.7197,15.8877
2020-12-17T23:00:00Z,2020-12-17T12:00:00Z,Rio_Iraja,-22.8316,-43.3268,990.1176,298.8852,0.3376,0.0505,-1.2188,61.4479,6.2721,24.0032,29.3936,21.1855,15.2017,19.3209,13.3160
2020-12-18T00:00:00Z,2020-12-17T12:00:00Z,Rio_Iraja,-22.8316,-43.3268,991.5463,298.8064,0.6957,-0.1527,-1.2379,58.5420,48.0023,25.6738,35.7020,23.6868,12.1417,23.0233,21.7081
2020-12-18T01:00:00Z,2020-12-17T12:00:00Z,Rio_Iraja,-22.8316,-43.3268,991.8228,298.5727,1.0412,-0.3614,-1.5367,52.7996,41.5782,27.9208,31.2546,26.4362,11.9034,24.8678,18.3662
2020-12-18T02:00:00Z,2020-12-17T12:00:00Z,Rio_Iraja,-22.8316,-43.3268,991.4487,298.4810,2.7791,-0.4649,-1.3701,47.4381,34.9796,29.1490,26.0164,28.4993,15.3877,26.6377,18.8104
2020-12-18T03:00:00Z,2020-12-17T12:00:00Z,Rio_Iraja,-22.8316,-43.3268,991.2194,298.1049,301.3611,0.1259,-1.1899,47.8781,26.0285,25.4580,24.2281,26.4087,20.3052,29.0531,17.3328
2020-12-18T04:00:00Z,2020-12-17T12:00:00Z,Rio_Iraja,-22.8316,-43.3268,991.7595,297.0716,418.6630,1.3046,-1.9326,57.4381,35.7815,13.0760,18.2369,15.6146,11.6937,27.4893,14.7771
2020-12-18T05:00:00Z,2020-12-17T12:00:00Z,Rio_Iraja,-22.8316,-43.3268,990.6223,296.8435,2.9504,0.2305,-3.0490,57.9771,45.9791,12.4799,30.3708,15.9007,13.2695,20.3017,20.4848
2020-12-18T06:00:00Z,2020-12-17T12:00:00Z,Rio_Iraja,-22.8316,-43.3268,989.8000,296.6900,0.0111,0.1464,-2.3568,56.2773,44.3173,15.2022,30.7449,18.7301,17.0371,18.3212,17.7622
2020-12-18T07:00:00Z,2020-12-17T12:00:00Z,Rio_Iraja,-22.8316,-43.3268,989.3574,296.3105,0.0000,0.0426,-2.1531,47.9092,33.5447,21.5588,40.7816,24.5756,15.0197,19.3354,19.7542
2020-12-18T08:00:00Z,2020-12-17T12:00:00Z,Rio_Iraja,-22.8316,-43.3268,989.5312,296.3173,0.0000,0.1036,-2.0993,43.2596,44.8359,25.6218,48.5672,30.3594,13.9390,20.4092,25.9499
2020-12-18T09:00:00Z,2020-12-17T12:00:00Z,Rio_Iraja,-22.8316,-43.3268,989.9222,297.0684,0.0000,0.4929,-2.2072,40.5358,55.8854,25.4330,45.3382,36.4833,20.7930,21.5708,22.6044
2020-12-18T10:00:00Z,2020-12-17T12:00:00Z,Rio_Iraja,-22.8316,-43.3268,990.4288,298.3844,0.1087,0.9206,-1.8132,51.3644,90.4878,16.7823,20.7673,29.5437,15.6550,19.2393,18.9118
2020-12-18T11:00:00Z,2020-12-17T12:00:00Z,Rio_Iraja,-22.8316,-43.3268,990.4575,300.4680,0.6137,1.1421,-1.6500,70.8929,101.2612,8.8375,28.2468,20.7569,19.9824,15.4544,21.7003
2020-12-18T12:00:00Z,2020-12-17T12:00:00Z,Rio_Iraja,-22.8316,-43.3268,990.4615,301.7701,2.0303,1.4170,-0.9846,86.1386,131.9987,8.3634,27.6890,22.0346,21.3147,14.0139,21.7411
2020-12-18T13:00:00Z,2020-12-17T12:00:00Z,Rio_Iraja,-22.8316,-43.3268,990.4188,302.6525,12.1295,1.4898,0.2350,102.4887,128.0400,8.6285,21.0483,24.2817,22.2688,13.7944,21.3229
2020-12-18T14:00:00Z,2020-12-17T12:00:00Z,Rio_Iraja,-22.8316,-43.3268,990.2709,302.4789,26.2260,1.1948,1.9712,114.4136,94.9607,7.4724,19.6508,26.8351,12.6837,16.7627,17.6282
2020-12-18T15:00:00Z,2020-12-17T12:00:00Z,Rio_Iraja,-22.8316,-43.3268,990.4839,302.1030,34.0343,0.7895,3.2712,126.4793,73.6351,7.3645,24.9077,33.3939,12.9223,21.4181,18.7299
2020-12-18T16:00:00Z,2020-12-17T12:00:00Z,Rio_Iraja,-22.8316,-43.3268,990.3129,301.4726,51.0216,0.1969,3.8673,130.9165,65.7251,7.7621,26.0266,39.4558,13.9083,24.9393,18.2939
2020-12-18T17:00:00Z,2020-12-17T12:00:00Z,Rio_Iraja,-22.8316,-43.3268,990.1326,300.4641,78.4397,-0.1934,4.1980,119.8156,61.2775,10.2939,26.3025,42.2065,10.6639,26.5698,17.9669
2020-12-18T18:00:00Z,2020-12-17T12:00:00Z,Rio_Iraja,-22.8316,-43.3268,989.6473,299.3557,93.3409,-0.3848,4.3604,94.2050,47.0131,13.1881,24.8875,39.4586,15.0885,26.1339,12.3055
2020-12-18T19:00:00Z,2020-12-17T12:00:00Z,Rio_Iraja,-22.8316,-43.3268,988.9237,298.4646,67.5917,-1.4019,4.1161,66.0252,40.9086,16.0053,23.6945,32.8996,16.2731,23.2813,10.7285
2020-12-18T20:00:00Z,2020-12-17T12:00:00Z,Rio_Iraja,-22.8316,-43.3268,987.4805,297.5792,1131.0577,-1.8153,3.9789,48.3950,45.6343,21.5063,23.0918,29.5292,12.3062,28.4030,10.1454
2020-12-18T21:00:00Z,2020-12-17T12:00:00Z,Rio_Iraja,-22.8316,-43.3268,989.9799,296.9209,1043.3197,-0.3786,2.8923,25.5170,32.9099,36.9894,36.7353,34.9072,12.3478,39.8989,10.1550
2020-12-18T22:00:00Z,2020-12-17T12:00:00Z,Rio_Iraja,-22.8316,-43.3268,990.5972,296.6920,1123.4283,0.0076,1.9044,16.9977,27.7218,42.3633,35.8087,43.4077,10.0750,33.9622,5.7413
2020-12-18T23:00:00Z,2020-12-17T12:00:00Z,Rio_Iraja,-22.8316,-43.3268,991.2761,296.5668,1188.2782,0.3417,1.5131,15.4159,26.4538,41.2262,37.0837,52.3435,10.6359,32.2165,9.5270
2020-12-19T00:00:00Z,2020-12-17T12:00:00Z,Rio_Iraja,-22.8316,-43.3268,992.0176,296.5517,304.2221,0.9282,0.5098,11.2691,35.9510,42.2287,32.3525,65.0277,16.7551,34.0215,13.0575
2020-12-19T01:00:00Z,2020-12-17T12:00:00Z,Rio_Iraja,-22.8316,-43.3268,991.1799,296.4384,3.6210,0.8873,0.4312,6.7064,35.1145,44.0935,30.4335,88.7751,15.1128,39.6096,15.3212
2020-12-19T02:00:00Z,2020-12-17T12:00:00Z,Rio_Iraja,-22.8316,-43.3268,990.8077,296.3380,17.6728,0.9532,0.1055,1.8082,31.0421,44.4688,32.5534,113.3996,14.8360,45.5471,13.0961
2020-12-19T03:00:00Z,2020-12-17T12:00:00Z,Rio_Iraja,-22.8316,-43.3268,989.9981,296.3001,23.5736,0.7222,0.2361,0.4162,28.6585,40.8336,33.4027,129.4003,17.8659,51.4843,13.2978
2020-12-19T04:00:00Z,2020-12-17T12:00:00Z,Rio_Iraja,-22.8316,-43.3268,989.0776,296.2512,7.5325,0.5482,-0.1245,0.2879,26.2033,37.3618,25.8904,133.3994,15.5201,49.1554,12.6816
2020-12-19T05:00:00Z,2020-12-17T12:00:00Z,Rio_Iraja,-22.8316,-43.3268,988.6226,296.0870,3.0585,0.9275,-0.2542,0.0750,17.4630,34.4622,29.6432,139.6461,19.1115,47.4662,19.5843
2020-12-19T06:00:00Z,2020-12-17T12:00:00Z,Rio_Iraja,-22.8316,-43.3268,988.7396,295.9193,1.3672,1.2314,-0.5177,0.0204,9.9520,32.0648,30.2245,146.8922,16.7642,47.2906,18.6991
2020-12-19T07:00:00Z,2020-12-17T12:00:00Z,Rio_Iraja,-22.8316,-43.3268,988.8118,295.8175,1.1511,1.2302,-0.3415,0.0093,13.1931,30.3559,28.5148,152.8899,20.2172,46.9409,17.2775
2020-12-19T08:00:00Z,2020-12-17T12:00:00Z,Rio_Iraja,-22.8316,-43.3268,988.8935,295.8720,0.7544,0.9781,-0.3969,0.7722,13.8029,28.6307,45.4135,159.3893,12.1895,47.3489,20.6854
2020-12-19T09:00:00Z,2020-12-17T12:00:00Z,Rio_Iraja,-22.8316,-43.3268,989.2653,296.6464,0.1066,0.6425,-0.9025,7.2000,37.4244,30.4997,45.3052,124.8902,20.4113,38.1509,20.5936
2020-12-19T10:00:00Z,2020-12-17T12:00:00Z,Rio_Iraja,-22.8316,-43.3268,989.8092,298.2517,0.0159,0.2032,-1.0700,27.8522,51.7680,24.0200,37.4507,70.8942,22.8403,24.1511,17.4669
2020-12-19T11:00:00Z,2020-12-17T12:00:00Z,Rio_Iraja,-22.8316,-43.3268,989.8826,299.7582,0.0899,0.0251,-0.7395,49.6582,83.8999,15.6594,18.7928,42.6544,10.1931,17.3693,20.5877
2020-12-19T12:00:00Z,2020-12-17T12:00:00Z,Rio_Iraja,-22.8316,-43.3268,989.7515,301.3831,0.2168,-0.0921,-0.2163,73.0551,111.6735,9.7959,15.9164,29.6990,17.9669,14.0366,15.2904
2020-12-19T13:00:00Z,2020-12-17T12:00:00Z,Rio_Iraja,-22.8316,-43.3268,989.3903,302.8047,0.7153,-0.1380,0.7978,92.9980,111.7040,6.4516,14.3617,23.9575,12.1998,12.8581,19.9280
2020-12-19T14:00:00Z,2020-12-17T12:00:00Z,Rio_Iraja,-22.8316,-43.3268,988.8963,303.4893,2.2948,-0.6091,1.7751,108.3996,124.2245,5.5419,17.9765,23.8596,15.8603,13.4846,26.0626
2020-12-19T15:00:00Z,2020-12-17T12:00:00Z,Rio_Iraja,-22.8316,-43.3268,988.2728,303.6932,1.8924,-1.0689,2.6169,121.8182,121.3685,4.9714,18.6560,25.8335,15.8675,14.8094,32.8512
2020-12-19T16:00:00Z,2020-12-17T12:00:00Z,Rio_Iraja,-22.8316,-43.3268,987.4078,303.3627,7.2941,-1.4706,3.4227,131.6880,113.1534,4.1273,19.0539,28.0836,10.7971,16.5562,24.4310
2020-12-19T17:00:00Z,2020-12-17T12:00:00Z,Rio_Iraja,-22.8316,-43.3268,986.8193,302.5942,6.8024,-2.0485,3.8678,135.6697,81.3897,4.2929,24.3369,31.3338,11.0915,18.2739,12.8082
2020-12-19T18:00:00Z,2020-12-17T12:00:00Z,Rio_Iraja,-22.8316,-43.3268,986.5654,301.5534,17.0171,-2.4825,3.5988,127.9676,34.3541,5.3667,30.6227,32.0219,11.6363,19.0021,14.5987
2020-12-19T19:00:00Z,2020-12-17T12:00:00Z,Rio_Iraja,-22.8316,-43.3268,986.6505,300.6490,9.5069,-2.4449,3.1277,109.2855,62.8913,8.0056,27.9918,30.3355,13.8732,18.9736,14.8289
2020-12-19T20:00:00Z,2020-12-17T12:00:00Z,Rio_Iraja,-22.8316,-43.3268,987.0155,299.7478,19.5205,-1.9060,2.5693,87.5245,31.7726,13.0298,29.4721,28.4611,13.2689,20.1963,12.6160
2020-12-19T21:00:00Z,2020-12-17T12:00:00Z,Rio_Iraja,-22.8316,-43.3268,987.5958,298.4180,10.7437,-0.9781,1.6404,67.7262,19.4778,21.7681,27.5231,30.7106,14.3241,25.4935,10.9148
2020-12-19T22:00:00Z,2020-12-17T12:00:00Z,Rio_Iraja,-22.8316,-43.3268,988.1603,297.7704,11.3100,-0.7738,1.3133,49.5124,24.5489,33.4498,27.4012,38.1796,13.6058,32.1001,13.4151
2020-12-19T23:00:00Z,2020-12-17T12:00:00Z,Rio_Iraja,-22.8316,-43.3268,989.0099,297.5302,7.7486,-0.1558,1.0139,31.5554,25.8162,46.1370,41.3223,50.4292,22.2694,39.2595,16.6014
2020-12-20T00:00:00Z,2020-12-17T12:00:00Z,Rio_Iraja,-22.8316,-43.3268,989.2462,297.2705,19.2225,0.6675,0.5744,13.7684,33.2077,59.9055,38.5952,73.6781,16.5005,48.5143,16.7515
2020-12-20T01:00:00Z,2020-12-17T12:00:00Z,Rio_Iraja,-22.8316,-43.3268,988.9150,296.9952,3.9637,1.0203,0.1852,3.7693,31.4937,67.7687,35.9812,108.3023,17.5458,58.9915,27.5955
2020-12-20T02:00:00Z,2020-12-17T12:00:00Z,Rio_Iraja,-22.8316,-43.3268,988.7997,296.7770,0.7702,1.0170,-0.4687,1.4502,33.6733,66.7377,20.3273,146.4166,19.5788,68.2462,27.8125
2020-12-20T03:00:00Z,2020-12-17T12:00:00Z,Rio_Iraja,-22.8316,-43.3268,988.2319,296.7801,1.3821,1.1602,-1.2708,0.2181,35.4216,64.6613,21.7821,163.6568,15.9221,72.3206,16.5640
2020-12-20T04:00:00Z,2020-12-17T12:00:00Z,Rio_Iraja,-22.8316,-43.3268,988.0419,297.0558,2.3060,1.3578,-1.7643,31.9101,20.9003,36.7396,38.6334,86.8910,20.6355,65.6847,24.6204
2020-12-20T05:00:00Z,2020-12-17T12:00:00Z,Rio_Iraja,-22.8316,-43.3268,987.6378,297.4667,0.9015,0.9082,-2.0563,49.3694,36.8035,19.8072,33.0819,57.1381,21.7354,52.1218,23.1641
2020-12-20T06:00:00Z,2020-12-17T12:00:00Z,Rio_Iraja,-22.8316,-43.3268,987.1382,297.6474,4.9099,0.1748,-2.4189,55.8346,35.3647,12.2423,31.8453,41.5088,23.8052,37.2201,15.8444
2020-12-20T07:00:00Z,2020-12-17T12:00:00Z,Rio_Iraja,-22.8316,-43.3268,986.8677,297.6052,0.6557,-0.1668,-2.5113,54.0440,40.1674,12.0671,30.8002,32.8171,18.3936,27.4693,11.0181
2020-12-20T08:00:00Z,2020-12-17T12:00:00Z,Rio_Iraja,-22.8316,-43.3268,987.6218,297.7731,0.4019,-0.1944,-2.3053,47.5909,47.8994,14.6329,34.7677,28.3467,13.8108,23.6559,18.0762
2020-12-20T09:00:00Z,2020-12-17T12:00:00Z,Rio_Iraja,-22.8316,-43.3268,988.2757,298.8482,0.5271,-0.2167,-2.7766,54.0625,60.3215,9.1055,30.3912,19.0961,19.1226,21.0653,17.7738
2020-12-20T10:00:00Z,2020-12-17T12:00:00Z,Rio_Iraja,-22.8316,-43.3268,988.9852,300.2757,4.1202,-0.2295,-2.8439,63.4176,78.1131,5.0316,16.9269,12.4086,14.1280,16.6705,17.7686
2020-12-20T11:00:00Z,2020-12-17T12:00:00Z,Rio_Iraja,-22.8316,-43.3268,989.2768,302.1280,11.2653,-0.1555,-2.5300,76.1409,97.8112,3.9939,17.0332,12.9880,21.0961,13.9346,29.6981
2020-12-20T12:00:00Z,2020-12-17T12:00:00Z,Rio_Iraja,-22.8316,-43.3268,989.0296,303.7293,4.9546,-0.3382,-2.3483,88.7419,125.5378,3.2476,16.7309,14.0963,21.0347,13.0908,25.9890
2020-12-20T13:00:00Z,2020-12-17T12:00:00Z,Rio_Iraja,-22.8316,-43.3268,988.3454,304.9766,5.4687,-0.5661,-2.4185,98.4455,151.3863,2.5798,18.6984,14.9676,19.6713,13.0045,24.7507
2020-12-20T14:00:00Z,2020-12-17T12:00:00Z,Rio_Iraja,-22.8316,-43.3268,987.5208,305.9437,2.2501,-0.4538,-2.3817,104.1265,144.5051,2.2414,25.0724,15.6708,19.6926,12.8163,22.1539
2020-12-20T15:00:00Z,2020-12-17T12:00:00Z,Rio_Iraja,-22.8316,-43.3268,987.1594,306.5988,1.7919,-0.1695,-1.9568,108.8429,140.3517,2.2196,33.3485,16.4958,20.5175,12.6859,20.8110
2020-12-20T16:00:00Z,2020-12-17T12:00:00Z,Rio_Iraja,-22.8316,-43.3268,986.5479,306.9268,1.6540,-0.2468,-1.5146,113.1957,132.5122,2.8725,31.5422,17.6180,19.5791,12.7445,19.0149
2020-12-20T17:00:00Z,2020-12-17T12:00:00Z,Rio_Iraja,-22.8316,-43.3268,986.0023,306.9700,1.2293,-0.6432,-1.2681,114.4124,140.4224,3.0742,40.1201,17.8970,19.0719,12.9492,17.7717
2020-12-20T18:00:00Z,2020-12-17T12:00:00Z,Rio_Iraja,-22.8316,-43.3268,985.8065,306.8825,1.1716,-0.8736,-1.1167,112.0475,116.4132,2.9322,37.6573,16.9924,16.4942,13.1974,14.6007
2020-12-20T19:00:00Z,2020-12-17T12:00:00Z,Rio_Iraja,-22.8316,-43.3268,986.1498,306.9612,0.2515,-0.8249,-1.0920,108.2793,100.5671,3.7504,39.7162,16.3081,18.8146,12.4996,17.1662
2020-12-20T20:00:00Z,2020-12-17T12:00:00Z,Rio_Iraja,-22.8316,-43.3268,986.4389,306.4277,0.1506,-0.7926,-0.9960,99.9538,59.6811,7.7752,40.7031,17.5302,9.4208,12.7178,11.8364
2020-12-20T21:00:00Z,2020-12-17T12:00:00Z,Rio_Iraja,-22.8316,-43.3268,986.8676,304.7280,0.1551,-0.8703,-0.8584,90.9784,41.4881,11.4851,37.3373,18.5634,15.1686,17.0549,8.7736
2020-12-20T22:00:00Z,2020-12-17T12:00:00Z,Rio_Iraja,-22.8316,-43.3268,986.9205,303.6697,0.0714,-1.0093,-1.2445,88.4608,36.4966,6.2862,20.9854,14.8189,9.4519,21.3344,17.8257
2020-12-20T23:00:00Z,2020-12-17T12:00:00Z,Rio_Iraja,-22.8316,-43.3268,987.1999,302.8770,0.0269,-0.9394,-1.5804,83.5696,27.5565,5.6681,25.9671,13.8745,8.9827,23.3431,18.7931
2020-12-21T00:00:00Z,2020-12-17T12:00:00Z,Rio_Iraja,-22.8316,-43.3268,987.7678,302.2245,0.0516,-0.4776,-1.9615,79.5150,47.0140,4.9469,29.4501,12.7536,12.7926,23.1396,25.2390
2020-12-21T01:00:00Z,2020-12-17T12:00:00Z,Rio_Iraja,-22.8316,-43.3268,988.3179,301.7147,0.5681,0.0628,-2.0950,76.9419,31.1503,4.3845,26.5971,11.7117,10.5889,22.1490,24.4038
2020-12-21T02:00:00Z,2020-12-17T12:00:00Z,Rio_Iraja,-22.8316,-43.3268,988.3224,301.0419,0.1471,0.2315,-2.2330,75.0181,28.5667,4.0837,20.5004,10.7329,13.0205,21.1012,23.6243
2020-12-21T03:00:00Z,2020-12-17T12:00:00Z,Rio_Iraja,-22.8316,-43.3268,987.4122,300.3046,0.0118,-0.0567,-2.3854,71.7079,27.8271,5.9231,17.9565,11.5470,13.3244,19.0056,25.1341
2020-12-21T04:00:00Z,2020-12-17T12:00:00Z,Rio_Iraja,-22.8316,-43.3268,986.9874,299.6808,0.0044,-0.1380,-2.3747,60.6486,30.5471,14.3448,34.3602,17.1276,19.8638,17.1722,14.8779
2020-12-21T05:00:00Z,2020-12-17T12:00:00Z,Rio_Iraja,-22.8316,-43.3268,986.9004,299.0331,0.0000,-0.1396,-2.4450,49.7397,20.2009,22.5583,40.5380,24.0703,15.0432,16.2410,14.1452
2020-12-21T06:00:00Z,2020-12-17T12:00:00Z,Rio_Iraja,-22.8316,-43.3268,987.0085,298.5132,0.0000,-0.1391,-2.5446,45.0540,20.4408,26.0339,45.5046,27.7003,14.0849,15.7458,11.6247
2020-12-21T07:00:00Z,2020-12-17T12:00:00Z,Rio_Iraja,-22.8316,-43.3268,987.4315,298.0932,0.0000,-0.1237,-2.6989,47.0291,23.8677,24.6951,43.6679,27.8281,14.6598,15.6288,18.1818
2020-12-21T08:00:00Z,2020-12-17T12:00:00Z,Rio_Iraja,-22.8316,-43.3268,988.5206,298.1126,0.0000,0.0231,-2.9907,51.0894,51.8130,20.9032,41.4858,26.4845,14.3937,15.3952,14.8219
2020-12-21T09:00:00Z,2020-12-17T12:00:00Z,Rio_Iraja,-22.8316,-43.3268,989.2023,299.1286,0.0000,0.1952,-4.0950,54.6736,102.2623,15.8147,27.2417,24.7291,13.1389,15.1614,11.6785
2020-12-21T10:00:00Z,2020-12-17T12:00:00Z,Rio_Iraja,-22.8316,-43.3268,989.2855,300.4954,0.0004,0.0838,-4.4934,62.6160,101.8592,10.0720,23.2283,18.4153,17.5585,13.0944,23.6906
2020-12-21T11:00:00Z,2020-12-17T12:00:00Z,Rio_Iraja,-22.8316,-43.3268,988.9675,302.2016,0.0162,0.2112,-4.5448,84.6762,125.3650,4.3210,13.1043,12.4452,16.5751,10.4167,20.9941
2020-12-21T12:00:00Z,2020-12-17T12:00:00Z,Rio_Iraja,-22.8316,-43.3268,989.2118,303.7278,0.3111,0.5105,-4.1873,94.7781,111.5677,3.4350,15.6371,12.4215,11.7626,9.3539,21.0540
2020-12-21T13:00:00Z,2020-12-17T12:00:00Z,Rio_Iraja,-22.8316,-43.3268,988.9251,304.9721,1.0226,0.6281,-3.6488,101.4468,187.8831,3.0121,19.3958,13.2735,12.4864,8.9321,20.7772
2020-12-21T14:00:00Z,2020-12-17T12:00:00Z,Rio_Iraja,-22.8316,-43.3268,988.2161,305.9271,3.7849,0.6304,-2.9419,107.2448,152.6405,2.8640,28.6905,14.4878,18.7919,8.9327,19.8648
2020-12-21T15:00:00Z,2020-12-17T12:00:00Z,Rio_Iraja,-22.8316,-43.3268,987.5917,306.5999,7.0333,0.6226,-1.8887,114.3022,108.2401,3.7863,30.9566,16.8863,20.5084,9.3119,20.4329
2020-12-21T16:00:00Z,2020-12-17T12:00:00Z,Rio_Iraja,-22.8316,-43.3268,987.1477,306.9163,15.6164,0.8338,0.0263,125.1573,122.0982,4.8358,28.5213,20.2558,23.1207,10.5636,22.3125
2020-12-21T17:00:00Z,2020-12-17T12:00:00Z,Rio_Iraja,-22.8316,-43.3268,987.2475,305.6540,23.6034,1.5996,3.0816,141.3163,124.9103,5.9289,34.5896,26.1012,21.8581,16.4717,18.5854
2020-12-21T18:00:00Z,2020-12-17T12:00:00Z,Rio_Iraja,-22.8316,-43.3268,987.9719,302.7914,41.5444,2.4518,5.2651,140.7834,66.5740,9.8772,40.2803,37.1386,15.8160,28.8999,11.1590
2020-12-21T19:00:00Z,2020-12-17T12:00:00Z,Rio_Iraja,-22.8316,-43.3268,989.2184,300.6825,47.9817,2.2088,4.6528,108.2311,54.7160,16.4217,32.7867,45.2719,7.8506,35.1289,16.9004
2020-12-21T20:00:00Z,2020-12-17T12:00:00Z,Rio_Iraja,-22.8316,-43.3268,989.8411,299.7011,51.4388,1.4371,3.2391,71.9180,40.8865,24.3299,33.0424,47.2838,9.9266,36.1773,15.7214
2020-12-21T21:00:00Z,2020-12-17T12:00:00Z,Rio_Iraja,-22.8316,-43.3268,989.8799,298.9003,24.6465,0.3549,1.6162,38.2825,29.4796,40.3668,30.5623,53.8558,10.9820,40.6594,13.1380
2020-12-21T22:00:00Z,2020-12-17T12:00:00Z,Rio_Iraja,-22.8316,-43.3268,989.4386,298.4764,15.1247,0.1887,0.9579,25.4815,30.9466,43.1283,31.8220,55.4872,4.4015,45.0253,14.2522
2020-12-21T23:00:00Z,2020-12-17T12:00:00Z,Rio_Iraja,-22.8316,-43.3268,990.7196,298.3654,43.7498,0.8572,0.4379,14.3381,33.8300,46.9428,37.4185,64.9274,19.2125,52.5929,17.3544
2020-12-22T00:00:00Z,2020-12-17T12:00:00Z,Rio_Iraja,-22.8316,-43.3268,991.9096,298.1658,100.6126,1.0433,0.6835,1.7153,22.5362,53.9407,36.8893,86.5573,15.4706,64.9923,17.8410
2020-12-22T01:00:00Z,2020-12-17T12:00:00Z,Rio_Iraja,-22.8316,-43.3268,992.4370,297.9577,75.8171,1.1775,0.7756,0.0623,15.5948,51.8082,25.5017,106.1853,18.5431,75.1217,16.8145
2020-12-22T02:00:00Z,2020-12-17T12:00:00Z,Rio_Iraja,-22.8316,-43.3268,990.8567,297.7540,14.0518,1.0815,-0.0547,0.0216,16.2957,47.0458,23.2796,116.8147,13.9203,74.5405,18.6214
2020-12-22T03:00:00Z,2020-12-17T12:00:00Z,Rio_Iraja,-22.8316,-43.3268,990.2732,297.5905,5.3570,0.7622,-1.1392,0.0017,12.6613,42.4360,24.1312,133.4401,13.0139,71.3984,17.7082
2020-12-22T04:00:00Z,2020-12-17T12:00:00Z,Rio_Iraja,-22.8316,-43.3268,989.7908,297.5505,5.2899,0.8732,-1.3136,0.0044,9.6024,38.1361,28.3200,140.9362,17.1501,64.5298,23.1846
2020-12-22T05:00:00Z,2020-12-17T12:00:00Z,Rio_Iraja,-22.8316,-43.3268,989.0752,297.5077,7.3165,1.2854,-0.7418,0.0028,6.7729,34.7416,36.5359,151.9375,21.7884,63.0164,19.9599
2020-12-22T06:00:00Z,2020-12-17T12:00:00Z,Rio_Iraja,-22.8316,-43.3268,989.0329,297.3894,2.5555,1.2331,-0.4368,0.0007,11.1414,31.7016,35.3285,173.9320,12.7301,67.9055,24.2659
2020-12-22T07:00:00Z,2020-12-17T12:00:00Z,Rio_Iraja,-22.8316,-43.3268,989.2941,297.2909,9.3132,1.0836,-0.1400,0.0023,5.2786,29.2557,18.6959,206.9389,22.4717,75.7051,21.1957
2020-12-22T08:00:00Z,2020-12-17T12:00:00Z,Rio_Iraja,-22.8316,-43.3268,990.3539,297.3717,45.7168,1.5652,0.1208,0.3078,15.7885,27.5631,25.0640,237.6750,26.1900,84.7861,14.8197
2020-12-22T09:00:00Z,2020-12-17T12:00:00Z,Rio_Iraja,-22.8316,-43.3268,991.3859,298.0359,61.7504,1.8149,0.1510,3.3324,20.9382,31.9223,37.7112,185.9297,24.3286,78.9642,18.7566
2020-12-22T10:00:00Z,2020-12-17T12:00:00Z,Rio_Iraja,-22.8316,-43.3268,991.6155,299.1086,87.9765,1.8413,0.5906,18.4652,49.7733,26.9308,30.7249,67.6776,14.8594,57.0199,20.2896
2020-12-22T11:00:00Z,2020-12-17T12:00:00Z,Rio_Iraja,-22.8316,-43.3268,991.6152,300.0063,106.4539,2.0898,1.1409,34.4873,58.5631,19.5323,18.0351,37.2866,18.8808,46.0195,17.3359